[[{"header":{"parameterUnit":"m.s-1","parameterCategory":1,"la1":31.0,"la2":29.5877,"lo1":-88.7671,"lo2":-86.6584,"dy":0.0162,"dx":0.0185,"nx":115,"ny":88,"refTime":"2024-04-25T12:00:00:Z","depth":0,"parameterNumber":2,"parameterNumberName":"U-component_of_WINDS"},"data":[0.0,0.0,0.0,0.0,0.0,0.0,0.0,0.0,0.0,0.0,0.0,0.0,0.0,0.0,0.0,0.0,0.0,0.0,0.0,0.0,0.0,0.0,0.0,0.0,0.0,0.0,0.0,0.0,0.0,0.0,0.0,0.0,0.0,0.0,0.0,0.0,0.0,0.0,0.0,0.0,0.0,0.0,0.0,0.0,0.0,0.0,0.0,0.0,0.0,0.0,0.0,0.0,0.0,0.0,0.0,0.0,0.0,0.0,0.0,0.0,0.0,0.0,0.0,0.0,0.0,0.0,0.0,0.0,0.0,0.0,0.0,0.0,0.0,0.0,0.0,0.0,0.0,0.0,0.0,0.0,0.0,0.0,0.0,0.0,0.0,0.0,0.0,0.0,0.0,0.0,0.0,0.0,0.0,0.0,0.0,0.0,0.0,0.0,0.0,0.0,0.0,0.0,0.0,0.0,0.0,0.0,0.0,0.0,0.0,0.0,0.0,0.0,0.0,0.0,0.0,0.0,0.0,0.0,0.0,0.0,0.0,0.0,0.0,0.0,0.0,0.0,0.0,0.0,0.0,0.0,0.0,0.0,0.0,0.0,0.0,0.0,0.0,0.0,0.0,0.0,0.0,0.0,0.0,0.0,0.0,0.0,0.0,0.0,0.0,0.0,0.0,0.0,0.0,0.0,0.0,0.0,0.0,0.0,0.0,0.0,0.0,0.0,0.0,0.0,0.0,0.0,0.0,0.0,0.0,0.0,0.0,0.0,0.0,0.0,0.0,0.0,0.0,0.0,0.0,0.0,0.0,0.0,0.0,0.0,0.0,0.0,0.0,0.0,0.0,0.0,0.0,0.0,0.0,0.0,0.0,0.0,0.0,0.0,0.0,0.0,0.0,0.0,0.0,0.0,0.0,0.0,0.0,0.0,0.0,0.0,0.0,0.0,0.0,0.0,0.0,0.0,0.0,0.0,0.0,0.0,0.0,0.0,0.0,0.0,0.0,0.0,0.0,0.0,0.0,0.0,0.0,0.0,0.0,0.0,0.0,0.0,0.0,0.0,0.0,0.0,0.0,0.0,0.0,0.0,0.0,0.0,0.0,0.0,0.0,0.0,0.0,0.0,0.0,0.0,0.0,0.0,0.0,0.0,0.0,0.0,0.0,0.0,0.0,0.0,0.0,0.0,0.0,0.0,0.0,0.0,0.0,0.0,0.0,0.0,0.0,0.0,0.0,0.0,0.0,0.0,0.0,0.0,0.0,0.0,0.0,0.0,0.0,0.0,0.0,0.0,0.0,0.0,0.0,0.0,0.0,0.0,0.0,0.0,0.0,0.0,0.0,0.0,0.0,0.0,0.0,0.0,0.0,0.0,0.0,0.0,0.0,0.0,0.0,0.0,0.0,0.0,0.0,0.0,0.0,0.0,0.0,0.0,0.0,0.0,0.0,0.0,0.0,0.0,0.0,0.0,0.0,0.0,0.0,0.0,0.0,0.0,0.0,0.0,0.0,0.0,0.0,0.0,0.0,0.0,0.0,0.0,0.0,0.0,0.0,0.0,0.0,0.0,0.0,0.0,0.0,0.0,0.0,0.0,0.0,0.0,0.0,0.0,0.0,0.0,0.0,0.0,0.0,0.0,0.0,0.0,0.0,0.0,0.0,0.0,0.0,0.0,0.0,0.0,0.0,0.0,0.0,0.0,0.0,0.0,0.0,0.0,0.0,0.0,0.0,0.0,0.0,0.0,0.0,0.0,0.0,0.0,0.0,0.0,0.0,0.0,0.0,0.0,0.0,0.0,0.0,0.0,0.0,0.0,0.0,0.0,0.0,0.0,0.0,0.0,0.0,0.0,0.0,0.0,0.0,0.0,0.0,0.0,0.0,0.0,0.0,0.0,0.0,0.0,0.0,0.0,0.0,0.0,0.0,0.0,0.0,0.0,0.0,0.0,0.0,0.0,0.0,0.0,0.0,0.0,0.0,0.0,0.0,0.0,0.0,0.0,0.0,0.0,0.0,0.0,0.0,0.0,0.0,0.0,0.0,0.0,0.0,0.0,0.0,0.0,0.0,0.0,0.0,0.0,0.0,0.0,0.0,0.0,0.0,0.0,0.0,0.0,0.0,0.0,0.0,0.0,0.0,0.0,0.0,0.0,0.0,0.0,0.0,0.0,0.0,0.0,0.0,0.0,0.0,0.0,0.0,0.0,0.0,0.0,0.0,0.0,0.0,0.0,0.0,0.0,0.0,0.0,0.0,0.0,0.0,0.0,0.0,0.0,0.0,0.0,0.0,0.0,0.0,0.0,0.0,0.0,0.0,0.0,0.0,0.0,0.0,0.0,0.0,0.0,0.0,0.0,0.0,0.0,0.0,0.0,0.0,0.0,0.0,0.0,0.0,0.0,0.0,0.0,0.0,0.0,0.0,0.0,0.0,0.0,0.0,0.0,0.0,0.0,0.0,0.0,0.0,0.0,0.0,0.0,0.0,0.0,0.0,0.0,0.0,0.0,0.0,0.0,0.0,0.0,0.0,0.0,0.0,0.0,0.0,0.0,0.0,0.0,0.0,0.0,0.0,0.0,0.0,0.0,0.0,0.0,0.0,0.0,0.0,0.0,0.0,0.0,0.0,0.0,0.0,0.0,0.0,0.0,0.0,0.0,0.0,0.0,0.0,0.0,0.0,0.0,0.0,0.0,0.0,0.0,0.0,0.0,0.0,0.0,0.0,0.0,0.0,0.0,0.0,0.0,0.0,0.0,0.0,0.0,0.0,0.0,0.0,0.0,0.0,0.0,0.0,0.0,0.0,0.0,0.0,0.0,0.0,0.0,0.0,0.0,0.0,0.0,0.0,0.0,0.0,0.0,0.0,0.0,0.0,0.0,0.0,0.0,0.0,0.0,0.0,0.0,0.0,0.0,0.0,0.0,0.0,0.0,0.0,0.0,0.0,0.0,0.0,0.0,0.0,0.0,0.0,0.0,0.0,0.0,0.0,0.0,0.0,0.0,0.0,0.0,0.0,0.0,0.0,0.0,0.0,0.0,0.0,0.0,0.0,0.0,0.0,0.0,0.0,0.0,0.0,0.0,0.0,0.0,0.0,0.0,0.0,0.0,0.0,0.0,0.0,0.0,0.0,0.0,0.0,0.0,0.0,0.0,0.0,0.0,0.0,0.0,0.0,0.0,0.0,0.0,0.0,0.0,0.0,0.0,0.0,0.0,0.0,0.0,0.0,0.0,0.0,0.0,0.0,0.0,0.0,0.0,0.0,0.0,0.0,0.0,0.0,0.0,0.0,0.0,0.0,0.0,0.0,0.0,0.0,0.0,0.0,0.0,0.0,0.0,0.0,0.0,0.0,0.0,0.0,0.0,0.0,0.0,0.0,0.0,0.0,0.0,0.0,0.0,0.0,0.0,0.0,0.0,0.0,0.0,0.0,0.0,0.0,0.0,0.0,0.0,0.0,0.0,0.0,0.0,0.0,0.0,0.0,0.0,0.0,0.0,0.0,0.0,0.0,0.0,0.0,0.0,0.0,0.0,0.0,0.0,0.0,0.0,0.0,0.0,0.0,0.0,0.0,0.0,0.0,0.0,0.0,0.0,0.0,0.0,0.0,0.0,0.0,0.0,0.0,0.0,0.0,0.0,0.0,0.0,0.0,0.0,0.0,0.0,0.0,0.0,0.0,0.0,0.0,0.0,0.0,0.0,0.0,0.0,0.0,0.0,0.0,0.0,0.0,0.0,0.0,0.0,0.0,0.0,0.0,0.0,0.0,0.0,0.0,0.0,0.0,0.0,0.0,0.0,0.0,0.0,0.0,0.0,0.0,0.0,0.0,0.0,0.0,0.0,0.0,0.0,0.0,0.0,0.0,0.0,0.0,0.0,0.0,0.0,0.0,0.0,0.0,0.0,0.0,0.0,0.0,0.0,0.0,0.0,0.0,0.0,0.0,0.0,0.0,0.0,0.0,0.0,0.0,0.0,0.0,0.0,0.0,0.0,0.0,0.0,0.0,0.0,0.0,0.0,0.0,0.0,0.0,0.0,0.0,0.0,0.0,0.0,0.0,0.0,0.0,0.0,0.0,0.0,0.0,0.0,0.0,0.0,0.0,0.0,0.0,0.0,0.0,0.0,0.0,0.0,0.0,0.0,0.0,0.0,0.0,0.0,0.0,0.0,0.0,0.0,0.0,0.0,0.0,0.0,0.0,0.0,0.0,0.0,0.0,0.0,0.0,0.0,0.0,0.0,0.0,0.0,0.0,0.0,0.0,0.0,0.0,0.0,0.0,0.0,-1.9333,0.0,0.0,0.0,0.0,0.0,0.0,0.0,0.0,0.0,0.0,0.0,0.0,0.0,0.0,0.0,0.0,0.0,0.0,0.0,0.0,0.0,0.0,0.0,0.0,0.0,0.0,0.0,0.0,0.0,0.0,0.0,0.0,0.0,0.0,0.0,0.0,0.0,0.0,0.0,0.0,0.0,0.0,0.0,0.0,0.0,0.0,0.0,0.0,0.0,0.0,0.0,0.0,0.0,0.0,0.0,0.0,0.0,0.0,0.0,0.0,0.0,0.0,0.0,0.0,0.0,0.0,0.0,0.0,0.0,0.0,0.0,0.0,0.0,0.0,0.0,0.0,0.0,0.0,0.0,0.0,0.0,0.0,0.0,0.0,0.0,0.0,0.0,0.0,0.0,0.0,0.0,0.0,0.0,0.0,0.0,0.0,0.0,0.0,0.0,0.0,0.0,0.0,0.0,0.0,0.0,0.0,0.0,0.0,0.0,0.0,-1.6426,-1.7894,-1.5661,-1.6097,-1.9596,0.0,0.0,0.0,0.0,0.0,0.0,0.0,0.0,0.0,0.0,0.0,0.0,0.0,0.0,0.0,0.0,0.0,0.0,0.0,0.0,0.0,0.0,0.0,0.0,0.0,0.0,0.0,0.0,0.0,0.0,0.0,0.0,0.0,0.0,0.0,0.0,0.0,0.0,0.0,0.0,0.0,0.0,0.0,0.0,0.0,0.0,0.0,0.0,0.0,0.0,0.0,0.0,0.0,0.0,0.0,0.0,0.0,0.0,0.0,0.0,0.0,0.0,0.0,0.0,0.0,0.0,0.0,0.0,0.0,0.0,0.0,0.0,0.0,0.0,0.0,0.0,0.0,0.0,0.0,0.0,0.0,0.0,0.0,0.0,0.0,0.0,0.0,0.0,0.0,0.0,0.0,0.0,0.0,0.0,0.0,0.0,0.0,0.0,0.0,0.0,0.0,0.0,0.0,0.0,0.0,0.0,0.0,0.0,0.0,0.0,0.0,0.0,-1.5596,-1.6185,-2.0193,0.0,0.0,0.0,0.0,0.0,0.0,0.0,0.0,0.0,0.0,0.0,0.0,0.0,0.0,0.0,0.0,0.0,0.0,0.0,0.0,0.0,0.0,0.0,0.0,0.0,0.0,0.0,0.0,0.0,0.0,0.0,0.0,0.0,0.0,0.0,0.0,0.0,0.0,0.0,0.0,0.0,0.0,0.0,0.0,0.0,0.0,0.0,0.0,0.0,0.0,0.0,0.0,0.0,0.0,0.0,0.0,0.0,0.0,0.0,0.0,0.0,0.0,0.0,0.0,0.0,0.0,0.0,0.0,0.0,0.0,0.0,0.0,0.0,0.0,0.0,0.0,0.0,0.0,0.0,0.0,0.0,0.0,0.0,0.0,0.0,0.0,0.0,0.0,0.0,0.0,0.0,0.0,0.0,0.0,0.0,0.0,0.0,0.0,0.0,0.0,0.0,0.0,0.0,0.0,0.0,0.0,0.0,0.0,0.0,0.0,-1.8465,-2.1337,-2.0548,0.0,-2.2242,0.0,0.0,0.0,0.0,0.0,0.0,0.0,0.0,0.0,0.0,0.0,0.0,0.0,0.0,0.0,0.0,0.0,0.0,0.0,0.0,0.0,0.0,0.0,0.0,0.0,0.0,0.0,0.0,0.0,0.0,0.0,0.0,0.0,0.0,0.0,0.0,0.0,0.0,0.0,0.0,0.0,0.0,0.0,0.0,0.0,0.0,0.0,0.0,0.0,0.0,0.0,0.0,0.0,0.0,0.0,0.0,0.0,0.0,0.0,0.0,0.0,0.0,0.0,0.0,0.0,0.0,0.0,0.0,0.0,0.0,0.0,0.0,0.0,0.0,0.0,0.0,0.0,0.0,0.0,0.0,0.0,0.0,0.0,0.0,0.0,0.0,0.0,0.0,0.0,0.0,0.0,0.0,0.0,0.0,0.0,0.0,0.0,0.0,0.0,0.0,0.0,0.0,0.0,0.0,0.0,0.0,0.0,0.0,0.0,0.0,-1.9045,-2.1202,-2.1052,-2.1059,0.0,0.0,0.0,0.0,0.0,0.0,0.0,0.0,0.0,0.0,0.0,0.0,0.0,0.0,0.0,0.0,0.0,0.0,0.0,0.0,0.0,0.0,0.0,0.0,0.0,0.0,0.0,0.0,0.0,0.0,0.0,0.0,0.0,0.0,0.0,0.0,0.0,0.0,0.0,0.0,0.0,0.0,0.0,0.0,0.0,0.0,0.0,0.0,0.0,0.0,0.0,0.0,0.0,0.0,0.0,0.0,0.0,0.0,0.0,0.0,0.0,0.0,0.0,0.0,0.0,0.0,0.0,0.0,0.0,0.0,0.0,0.0,0.0,0.0,0.0,0.0,0.0,0.0,0.0,0.0,0.0,0.0,0.0,0.0,0.0,0.0,0.0,0.0,0.0,0.0,0.0,0.0,0.0,0.0,0.0,0.0,0.0,0.0,0.0,0.0,0.0,0.0,0.0,0.0,0.0,0.0,0.0,0.0,0.0,0.0,-1.8722,-1.973,-2.116,-2.0703,-2.0459,-2.0607,0.0,0.0,0.0,0.0,0.0,0.0,0.0,0.0,0.0,0.0,0.0,0.0,0.0,0.0,0.0,0.0,0.0,0.0,0.0,0.0,0.0,0.0,0.0,0.0,0.0,0.0,0.0,0.0,0.0,0.0,0.0,0.0,0.0,0.0,0.0,0.0,0.0,0.0,0.0,0.0,0.0,0.0,0.0,0.0,0.0,0.0,0.0,0.0,0.0,0.0,0.0,0.0,0.0,0.0,0.0,0.0,0.0,0.0,0.0,0.0,0.0,0.0,0.0,0.0,0.0,0.0,0.0,0.0,0.0,0.0,0.0,0.0,0.0,0.0,0.0,0.0,0.0,0.0,0.0,0.0,0.0,0.0,0.0,0.0,0.0,0.0,0.0,0.0,0.0,0.0,0.0,0.0,0.0,0.0,0.0,0.0,0.0,0.0,0.0,0.0,0.0,0.0,0.0,0.0,0.0,0.0,0.0,0.0,-2.2827,-2.1064,-2.0829,-2.2385,-2.0184,-1.9694,0.0,0.0,0.0,0.0,0.0,0.0,0.0,0.0,0.0,0.0,0.0,0.0,0.0,0.0,0.0,0.0,0.0,0.0,0.0,0.0,0.0,0.0,0.0,0.0,0.0,0.0,0.0,0.0,0.0,0.0,0.0,0.0,0.0,0.0,0.0,0.0,0.0,0.0,0.0,0.0,0.0,0.0,0.0,0.0,0.0,0.0,0.0,0.0,0.0,0.0,0.0,0.0,0.0,0.0,0.0,0.0,0.0,0.0,0.0,0.0,0.0,0.0,0.0,0.0,0.0,0.0,0.0,0.0,0.0,0.0,0.0,0.0,0.0,0.0,0.0,0.0,0.0,0.0,0.0,0.0,0.0,0.0,0.0,0.0,0.0,0.0,0.0,0.0,0.0,0.0,0.0,0.0,0.0,0.0,0.0,0.0,0.0,0.0,0.0,0.0,0.0,0.0,0.0,0.0,0.0,0.0,0.0,0.0,0.0,-2.0475,-2.0641,-2.133,-2.2561,-2.0063,-1.9778,0.0,0.0,0.0,0.0,0.0,0.0,0.0,0.0,0.0,0.0,0.0,0.0,0.0,0.0,0.0,0.0,0.0,0.0,0.0,0.0,0.0,0.0,0.0,0.0,0.0,0.0,0.0,0.0,0.0,0.0,0.0,0.0,0.0,0.0,0.0,0.0,0.0,0.0,0.0,0.0,0.0,0.0,0.0,0.0,0.0,0.0,0.0,0.0,0.0,0.0,0.0,0.0,0.0,0.0,0.0,0.0,0.0,0.0,0.0,0.0,0.0,0.0,0.0,0.0,0.0,0.0,0.0,0.0,0.0,0.0,0.0,0.0,0.0,0.0,0.0,0.0,0.0,0.0,0.0,0.0,0.0,0.0,0.0,0.0,0.0,0.0,0.0,0.0,0.0,0.0,0.0,0.0,0.0,0.0,0.0,0.0,0.0,0.0,0.0,0.0,0.0,0.0,0.0,0.0,0.0,0.0,0.0,0.0,0.0,-1.9754,0.0,-2.1937,-2.2683,-2.0345,-1.983,0.0,0.0,0.0,0.0,0.0,0.0,0.0,0.0,0.0,0.0,0.0,0.0,0.0,0.0,0.0,0.0,0.0,0.0,0.0,0.0,0.0,0.0,0.0,0.0,0.0,0.0,0.0,0.0,0.0,0.0,0.0,0.0,0.0,0.0,0.0,0.0,0.0,0.0,0.0,0.0,0.0,0.0,0.0,0.0,0.0,0.0,0.0,0.0,0.0,0.0,0.0,0.0,0.0,0.0,0.0,0.0,0.0,0.0,0.0,0.0,0.0,0.0,0.0,0.0,0.0,0.0,0.0,0.0,0.0,0.0,0.0,0.0,0.0,0.0,0.0,0.0,0.0,0.0,0.0,0.0,0.0,0.0,0.0,0.0,0.0,0.0,0.0,0.0,0.0,0.0,0.0,0.0,0.0,0.0,0.0,0.0,0.0,0.0,0.0,0.0,0.0,0.0,0.0,0.0,0.0,0.0,0.0,0.0,-1.8969,-2.1308,-2.2106,-2.2566,-2.2774,-2.098,-1.9765,0.0,0.0,0.0,0.0,0.0,0.0,0.0,0.0,0.0,0.0,0.0,0.0,0.0,0.0,0.0,0.0,0.0,0.0,0.0,0.0,0.0,0.0,0.0,0.0,0.0,0.0,0.0,0.0,0.0,0.0,0.0,0.0,0.0,0.0,0.0,0.0,0.0,0.0,0.0,0.0,0.0,0.0,0.0,0.0,0.0,0.0,0.0,0.0,0.0,0.0,0.0,0.0,0.0,0.0,0.0,0.0,0.0,0.0,0.0,0.0,0.0,0.0,0.0,0.0,0.0,0.0,0.0,0.0,0.0,0.0,0.0,0.0,0.0,0.0,0.0,0.0,0.0,0.0,0.0,0.0,0.0,0.0,0.0,0.0,0.0,0.0,0.0,0.0,0.0,0.0,0.0,0.0,0.0,0.0,0.0,0.0,0.0,0.0,0.0,0.0,0.0,0.0,0.0,0.0,0.0,0.0,0.0,0.0,0.0,-1.9815,-2.0501,-2.2034,-2.4265,-2.0516,-1.9937,0.0,0.0,0.0,0.0,0.0,0.0,0.0,0.0,0.0,0.0,0.0,0.0,0.0,0.0,0.0,0.0,0.0,0.0,0.0,0.0,0.0,0.0,0.0,0.0,0.0,0.0,0.0,0.0,0.0,0.0,0.0,0.0,0.0,0.0,0.0,0.0,0.0,0.0,0.0,0.0,0.0,0.0,0.0,0.0,0.0,0.0,0.0,0.0,0.0,0.0,0.0,0.0,0.0,0.0,0.0,0.0,0.0,0.0,0.0,0.0,0.0,0.0,0.0,0.0,0.0,0.0,0.0,0.0,0.0,0.0,0.0,0.0,0.0,0.0,0.0,0.0,0.0,0.0,0.0,0.0,0.0,0.0,0.0,0.0,0.0,0.0,0.0,0.0,0.0,0.0,0.0,0.0,0.0,0.0,0.0,0.0,0.0,0.0,0.0,0.0,0.0,0.0,0.0,0.0,0.0,0.0,0.0,0.0,0.0,-2.0873,-2.1607,-2.2604,-2.3846,-2.105,-2.0585,-2.2769,0.0,0.0,0.0,0.0,0.0,0.0,0.0,0.0,0.0,0.0,0.0,0.0,0.0,0.0,0.0,0.0,0.0,0.0,0.0,0.0,0.0,0.0,0.0,0.0,0.0,0.0,0.0,0.0,0.0,0.0,0.0,0.0,0.0,0.0,0.0,0.0,0.0,0.0,0.0,0.0,0.0,0.0,0.0,0.0,0.0,0.0,0.0,0.0,0.0,0.0,0.0,0.0,0.0,0.0,0.0,0.0,0.0,0.0,0.0,0.0,0.0,0.0,0.0,0.0,0.0,0.0,0.0,0.0,0.0,0.0,0.0,0.0,0.0,0.0,0.0,0.0,0.0,0.0,0.0,0.0,0.0,0.0,0.0,0.0,0.0,0.0,0.0,0.0,0.0,0.0,0.0,0.0,0.0,0.0,0.0,0.0,0.0,0.0,0.0,0.0,0.0,0.0,0.0,0.0,0.0,0.0,0.0,0.0,-2.3717,-2.4786,-2.4288,-2.2139,-2.2524,-2.172,0.0,0.0,0.0,0.0,0.0,0.0,0.0,0.0,0.0,0.0,0.0,0.0,0.0,0.0,0.0,0.0,0.0,0.0,0.0,0.0,0.0,0.0,0.0,0.0,0.0,0.0,0.0,0.0,0.0,0.0,0.0,0.0,0.0,0.0,0.0,0.0,0.0,0.0,0.0,0.0,0.0,0.0,0.0,0.0,0.0,0.0,0.0,0.0,0.0,0.0,0.0,0.0,0.0,0.0,0.0,0.0,0.0,0.0,0.0,0.0,0.0,0.0,0.0,0.0,0.0,0.0,0.0,0.0,0.0,0.0,0.0,0.0,0.0,0.0,0.0,0.0,0.0,0.0,0.0,0.0,0.0,0.0,0.0,0.0,0.0,0.0,0.0,0.0,0.0,0.0,0.0,0.0,0.0,0.0,0.0,0.0,0.0,0.0,0.0,0.0,0.0,0.0,0.0,0.0,0.0,0.0,0.0,0.0,0.0,-2.2838,-2.5053,-2.6524,-2.701,-2.4317,-2.3062,0.0,0.0,0.0,0.0,0.0,0.0,0.0,0.0,0.0,0.0,0.0,0.0,0.0,0.0,0.0,0.0,0.0,0.0,0.0,0.0,0.0,0.0,0.0,0.0,0.0,0.0,0.0,0.0,0.0,0.0,0.0,0.0,0.0,0.0,0.0,0.0,0.0,0.0,0.0,0.0,0.0,0.0,0.0,0.0,0.0,0.0,0.0,0.0,0.0,0.0,0.0,0.0,0.0,0.0,0.0,0.0,0.0,0.0,0.0,0.0,0.0,0.0,0.0,0.0,0.0,0.0,0.0,0.0,0.0,0.0,0.0,0.0,0.0,0.0,0.0,0.0,0.0,0.0,0.0,0.0,0.0,0.0,0.0,0.0,0.0,0.0,0.0,0.0,0.0,0.0,0.0,0.0,0.0,0.0,0.0,0.0,0.0,0.0,0.0,0.0,0.0,0.0,0.0,0.0,0.0,0.0,0.0,0.0,-2.2576,-2.3528,-2.5557,-2.7236,-2.8549,-2.587,-2.3985,0.0,0.0,0.0,0.0,0.0,0.0,0.0,0.0,0.0,0.0,0.0,0.0,0.0,0.0,0.0,0.0,0.0,0.0,0.0,0.0,0.0,0.0,0.0,0.0,0.0,0.0,0.0,0.0,0.0,0.0,0.0,0.0,0.0,0.0,0.0,0.0,0.0,0.0,0.0,0.0,0.0,0.0,0.0,0.0,0.0,0.0,0.0,0.0,0.0,0.0,0.0,0.0,0.0,0.0,0.0,0.0,0.0,0.0,0.0,0.0,0.0,0.0,0.0,0.0,0.0,0.0,0.0,0.0,0.0,0.0,0.0,0.0,0.0,0.0,0.0,0.0,0.0,0.0,0.0,0.0,0.0,0.0,0.0,0.0,0.0,0.0,0.0,0.0,0.0,0.0,0.0,0.0,0.0,0.0,0.0,0.0,0.0,0.0,0.0,0.0,0.0,0.0,0.0,0.0,0.0,0.0,0.0,0.0,-2.238,-2.4899,-2.6049,-2.6967,-2.7698,-2.6851,-2.4524,0.0,0.0,0.0,0.0,0.0,0.0,0.0,0.0,0.0,0.0,0.0,0.0,0.0,0.0,0.0,0.0,0.0,0.0,0.0,0.0,0.0,0.0,0.0,0.0,0.0,0.0,0.0,0.0,0.0,0.0,0.0,0.0,0.0,0.0,0.0,0.0,0.0,0.0,0.0,0.0,0.0,0.0,0.0,0.0,0.0,0.0,0.0,0.0,0.0,0.0,0.0,0.0,0.0,0.0,0.0,0.0,0.0,0.0,0.0,0.0,0.0,0.0,0.0,0.0,0.0,0.0,0.0,0.0,0.0,0.0,0.0,0.0,0.0,0.0,0.0,0.0,0.0,0.0,0.0,0.0,0.0,0.0,0.0,0.0,0.0,0.0,0.0,0.0,0.0,0.0,0.0,0.0,0.0,0.0,0.0,0.0,0.0,0.0,0.0,0.0,0.0,0.0,0.0,0.0,0.0,0.0,0.0,0.0,-2.2307,-2.4143,-2.5748,-2.6678,-2.6851,-2.5414,-2.3894,0.0,0.0,0.0,0.0,0.0,0.0,0.0,0.0,0.0,0.0,0.0,0.0,0.0,0.0,0.0,0.0,0.0,0.0,0.0,0.0,0.0,0.0,0.0,0.0,0.0,0.0,0.0,0.0,0.0,0.0,0.0,0.0,0.0,0.0,0.0,0.0,0.0,0.0,0.0,0.0,0.0,0.0,0.0,0.0,0.0,0.0,0.0,0.0,-1.2452,0.0,0.0,0.0,0.0,0.0,0.0,0.0,0.0,0.0,0.0,0.0,0.0,0.0,0.0,0.0,0.0,0.0,0.0,0.0,0.0,0.0,0.0,0.0,0.0,0.0,0.0,0.0,0.0,0.0,0.0,0.0,0.0,0.0,0.0,0.0,0.0,0.0,0.0,0.0,0.0,0.0,0.0,0.0,0.0,0.0,0.0,0.0,0.0,0.0,0.0,0.0,0.0,0.0,0.0,0.0,0.0,0.0,0.0,0.0,-2.2427,-2.4493,-2.5499,-2.6178,-2.6505,-2.4582,-2.3285,0.0,0.0,0.0,0.0,0.0,0.0,0.0,0.0,0.0,0.0,0.0,0.0,0.0,0.0,0.0,0.0,0.0,0.0,0.0,0.0,0.0,0.0,0.0,0.0,0.0,0.0,0.0,0.0,0.0,0.0,0.0,0.0,0.0,0.0,0.0,0.0,0.0,0.0,0.0,0.0,0.0,0.0,0.0,0.0,0.0,0.0,0.0,0.0,0.0,0.0,0.0,0.0,0.0,0.0,0.0,0.0,0.0,0.0,0.0,0.0,0.0,0.0,0.0,0.0,0.0,0.0,0.0,0.0,0.0,0.0,0.0,0.0,0.0,0.0,0.0,0.0,0.0,0.0,0.0,0.0,0.0,0.0,0.0,0.0,0.0,0.0,0.0,0.0,0.0,0.0,0.0,0.0,0.0,0.0,0.0,0.0,0.0,0.0,0.0,0.0,0.0,0.0,0.0,0.0,0.0,0.0,0.0,-2.1579,-2.2752,-2.5168,-2.5173,-2.5462,-2.6159,-2.3735,-2.2516,-2.2678,0.0,0.0,0.0,0.0,0.0,0.0,0.0,0.0,0.0,0.0,0.0,0.0,0.0,0.0,0.0,0.0,0.0,0.0,0.0,0.0,0.0,0.0,0.0,0.0,0.0,0.0,0.0,0.0,0.0,0.0,0.0,0.0,0.0,0.0,0.0,0.0,0.0,0.0,-1.2029,-1.1946,0.0,0.0,0.0,0.0,0.0,0.0,0.0,0.0,-1.2933,0.0,0.0,0.0,0.0,0.0,0.0,0.0,0.0,0.0,0.0,0.0,0.0,0.0,0.0,0.0,0.0,0.0,0.0,0.0,0.0,0.0,0.0,0.0,0.0,0.0,0.0,0.0,0.0,0.0,0.0,0.0,0.0,0.0,0.0,0.0,0.0,0.0,0.0,0.0,0.0,0.0,0.0,0.0,0.0,0.0,0.0,0.0,0.0,0.0,0.0,0.0,0.0,0.0,0.0,0.0,0.0,-2.2543,-2.2549,-2.3452,-2.5212,-2.4639,-2.4356,-2.4432,-2.2043,-2.1051,-2.173,0.0,0.0,0.0,0.0,0.0,0.0,0.0,0.0,0.0,0.0,0.0,0.0,0.0,0.0,0.0,0.0,0.0,0.0,0.0,0.0,0.0,0.0,0.0,0.0,0.0,0.0,0.0,0.0,0.0,0.0,0.0,0.0,0.0,0.0,0.0,0.0,0.0,0.0,0.0,-1.1104,-1.1407,0.0,0.0,0.0,0.0,0.0,0.0,0.0,0.0,-1.355,0.0,0.0,0.0,0.0,0.0,0.0,0.0,0.0,0.0,0.0,0.0,0.0,0.0,0.0,0.0,0.0,0.0,0.0,0.0,0.0,0.0,0.0,0.0,0.0,0.0,0.0,0.0,0.0,0.0,0.0,0.0,0.0,0.0,0.0,0.0,0.0,0.0,0.0,0.0,0.0,0.0,0.0,0.0,0.0,0.0,0.0,0.0,0.0,0.0,0.0,0.0,0.0,0.0,0.0,0.0,-2.1985,-2.1716,-2.2331,-2.3947,-2.4067,-2.3663,-2.2754,-2.1154,-2.0485,0.0,0.0,0.0,0.0,0.0,0.0,0.0,0.0,0.0,0.0,0.0,0.0,0.0,0.0,0.0,0.0,0.0,0.0,0.0,0.0,0.0,0.0,0.0,0.0,0.0,0.0,0.0,0.0,0.0,0.0,0.0,0.0,0.0,0.0,0.0,0.0,0.0,0.0,0.0,0.0,-1.1576,-1.1374,-1.1293,0.0,0.0,0.0,0.0,0.0,0.0,-1.3939,-1.421,0.0,0.0,0.0,0.0,0.0,0.0,0.0,0.0,0.0,0.0,0.0,0.0,0.0,0.0,0.0,0.0,0.0,0.0,0.0,0.0,0.0,0.0,0.0,0.0,0.0,0.0,0.0,0.0,0.0,0.0,0.0,0.0,0.0,0.0,0.0,0.0,0.0,0.0,0.0,0.0,0.0,0.0,0.0,0.0,0.0,0.0,0.0,0.0,0.0,0.0,0.0,0.0,0.0,0.0,0.0,-2.1389,-2.0865,-2.1273,-2.274,-2.3297,-2.2836,-2.1308,-2.0304,-1.9958,0.0,0.0,0.0,0.0,0.0,0.0,0.0,0.0,0.0,0.0,0.0,0.0,0.0,0.0,0.0,0.0,0.0,0.0,0.0,0.0,0.0,0.0,0.0,0.0,0.0,0.0,0.0,0.0,0.0,0.0,0.0,0.0,0.0,0.0,0.0,0.0,0.0,0.0,0.0,0.0,0.0,-1.1824,-1.1239,-1.2349,0.0,0.0,0.0,0.0,-1.447,-1.4488,0.0,0.0,0.0,0.0,0.0,0.0,0.0,0.0,0.0,0.0,0.0,0.0,0.0,0.0,0.0,0.0,0.0,0.0,0.0,0.0,0.0,0.0,0.0,0.0,0.0,0.0,0.0,0.0,0.0,0.0,0.0,0.0,0.0,0.0,0.0,0.0,0.0,0.0,0.0,0.0,0.0,0.0,0.0,0.0,0.0,0.0,0.0,0.0,0.0,0.0,0.0,0.0,0.0,0.0,0.0,0.0,-2.1446,-2.1408,-2.1812,-2.2701,-2.2139,-2.137,-2.0442,-1.8908,-1.8773,0.0,0.0,0.0,0.0,0.0,0.0,0.0,0.0,0.0,0.0,0.0,0.0,0.0,0.0,0.0,0.0,0.0,0.0,0.0,0.0,0.0,0.0,0.0,0.0,0.0,0.0,0.0,0.0,0.0,0.0,0.0,0.0,0.0,0.0,0.0,0.0,0.0,0.0,0.0,0.0,0.0,-1.2753,-1.2663,-1.3466,-1.3878,0.0,0.0,0.0,-1.4488,-1.4488,0.0,0.0,0.0,0.0,0.0,0.0,0.0,0.0,0.0,0.0,0.0,0.0,0.0,0.0,0.0,0.0,0.0,0.0,0.0,0.0,0.0,0.0,0.0,0.0,0.0,0.0,0.0,0.0,0.0,0.0,0.0,0.0,0.0,0.0,0.0,0.0,0.0,0.0,0.0,0.0,0.0,0.0,0.0,0.0,0.0,0.0,0.0,0.0,0.0,0.0,0.0,0.0,0.0,0.0,0.0,-1.9985,-2.0773,-2.0331,-2.0027,-1.9931,-2.0504,-1.9965,-1.8197,-1.744,-1.7863,0.0,0.0,0.0,0.0,0.0,0.0,0.0,0.0,0.0,0.0,0.0,0.0,0.0,0.0,0.0,0.0,0.0,0.0,0.0,0.0,0.0,0.0,0.0,0.0,0.0,0.0,0.0,0.0,0.0,0.0,0.0,0.0,0.0,0.0,0.0,0.0,0.0,0.0,0.0,0.0,0.0,0.0,-1.2466,-1.394,0.0,0.0,0.0,-1.508,-1.5154,0.0,0.0,0.0,0.0,0.0,0.0,0.0,0.0,0.0,0.0,0.0,0.0,0.0,0.0,0.0,0.0,0.0,0.0,0.0,0.0,0.0,0.0,0.0,0.0,0.0,0.0,0.0,0.0,0.0,0.0,0.0,0.0,0.0,0.0,0.0,0.0,0.0,0.0,0.0,0.0,0.0,0.0,0.0,0.0,0.0,0.0,0.0,0.0,0.0,0.0,0.0,0.0,0.0,0.0,0.0,0.0,0.0,-1.9927,-1.87,-1.793,-1.7734,-1.8965,-1.8638,-1.6588,-1.6508,0.0,0.0,0.0,0.0,0.0,0.0,0.0,0.0,0.0,0.0,0.0,0.0,0.0,0.0,0.0,0.0,0.0,0.0,0.0,0.0,0.0,0.0,0.0,0.0,0.0,0.0,0.0,-1.3412,0.0,0.0,0.0,0.0,0.0,0.0,0.0,0.0,0.0,0.0,0.0,0.0,0.0,0.0,-1.3394,-1.291,-1.4488,-1.5331,0.0,0.0,-1.5643,-1.5423,-1.5068,-1.5282,0.0,0.0,0.0,0.0,0.0,0.0,0.0,0.0,0.0,0.0,0.0,0.0,0.0,0.0,0.0,0.0,0.0,0.0,0.0,0.0,0.0,0.0,0.0,0.0,0.0,0.0,0.0,0.0,0.0,0.0,0.0,0.0,0.0,0.0,0.0,0.0,0.0,0.0,0.0,0.0,0.0,0.0,0.0,0.0,0.0,0.0,0.0,0.0,0.0,0.0,0.0,0.0,0.0,0.0,0.0,-1.8934,-1.6696,-1.6215,-1.7622,-1.7792,-1.7427,-1.6552,-1.6559,-1.773,0.0,0.0,0.0,0.0,0.0,0.0,0.0,0.0,0.0,0.0,0.0,0.0,0.0,0.0,0.0,0.0,0.0,0.0,0.0,0.0,0.0,0.0,0.0,0.0,0.0,0.0,0.0,0.0,0.0,0.0,0.0,0.0,0.0,0.0,0.0,0.0,0.0,0.0,0.0,0.0,0.0,-1.5666,-1.4896,-1.5313,-1.5147,0.0,0.0,-1.5454,-1.4695,-1.5178,-1.5906,-1.6762,0.0,0.0,0.0,0.0,0.0,0.0,0.0,0.0,0.0,0.0,0.0,0.0,0.0,0.0,0.0,0.0,0.0,0.0,0.0,0.0,0.0,0.0,0.0,0.0,0.0,0.0,0.0,0.0,0.0,0.0,0.0,0.0,0.0,0.0,0.0,0.0,0.0,0.0,0.0,0.0,0.0,0.0,0.0,0.0,0.0,0.0,0.0,0.0,0.0,0.0,0.0,0.0,0.0,-1.9158,-1.9754,-1.7292,-1.6061,-1.6157,-1.6684,-1.6588,-1.5792,-1.583,-1.6796,0.0,0.0,0.0,0.0,0.0,0.0,0.0,0.0,0.0,0.0,0.0,0.0,0.0,0.0,0.0,0.0,0.0,0.0,0.0,0.0,0.0,0.0,0.0,0.0,0.0,0.0,0.0,0.0,-1.5845,-1.6581,-1.6895,0.0,0.0,0.0,0.0,0.0,0.0,0.0,0.0,0.0,0.0,-1.5627,-1.5401,-1.5972,0.0,0.0,-1.5392,-1.5991,-1.4714,-1.5178,-1.5808,-1.6114,-1.7215,0.0,0.0,0.0,0.0,0.0,0.0,0.0,0.0,0.0,0.0,0.0,0.0,0.0,0.0,0.0,0.0,0.0,0.0,0.0,0.0,0.0,0.0,0.0,0.0,0.0,0.0,0.0,0.0,0.0,0.0,0.0,0.0,0.0,0.0,0.0,0.0,0.0,0.0,0.0,0.0,0.0,0.0,0.0,0.0,0.0,0.0,0.0,0.0,0.0,0.0,0.0,0.0,-1.9658,-1.9888,-1.7157,-1.5573,-1.5229,-1.5816,-1.5893,-1.5368,-1.5387,-1.6195,0.0,0.0,0.0,0.0,0.0,0.0,0.0,0.0,0.0,0.0,0.0,0.0,0.0,0.0,0.0,0.0,0.0,0.0,0.0,0.0,0.0,0.0,0.0,0.0,0.0,0.0,0.0,0.0,-1.6967,-1.8079,-1.8553,0.0,0.0,0.0,0.0,0.0,0.0,0.0,0.0,0.0,0.0,-1.5778,-1.5859,-1.6182,-1.6036,-1.5001,-1.5946,-1.6413,-1.5374,-1.5635,-1.6023,-1.626,0.0,0.0,0.0,0.0,0.0,0.0,0.0,0.0,0.0,0.0,0.0,0.0,0.0,0.0,0.0,0.0,0.0,0.0,0.0,0.0,0.0,0.0,0.0,0.0,0.0,0.0,0.0,0.0,0.0,0.0,-2.5703,0.0,0.0,0.0,0.0,0.0,0.0,0.0,0.0,0.0,0.0,0.0,0.0,0.0,0.0,0.0,0.0,0.0,0.0,0.0,0.0,0.0,0.0,0.0,-1.8992,-1.5792,-1.4439,-1.5274,-1.5339,-1.5349,-1.5392,-1.5413,-1.6223,-1.7969,0.0,0.0,0.0,0.0,0.0,0.0,0.0,0.0,0.0,0.0,0.0,0.0,0.0,0.0,0.0,0.0,0.0,0.0,0.0,0.0,0.0,0.0,0.0,0.0,0.0,0.0,-1.7211,-1.7895,-1.8778,0.0,0.0,0.0,0.0,0.0,0.0,0.0,0.0,0.0,0.0,-1.7369,-1.6468,-1.6494,-1.5828,-1.5488,-1.5655,-1.617,-1.6595,-1.6783,-1.665,-1.6754,0.0,0.0,0.0,0.0,0.0,0.0,0.0,0.0,0.0,0.0,0.0,0.0,0.0,0.0,0.0,0.0,0.0,0.0,0.0,0.0,0.0,0.0,0.0,0.0,0.0,0.0,0.0,-2.7969,-2.7441,0.0,0.0,0.0,0.0,0.0,0.0,0.0,0.0,0.0,0.0,0.0,-2.5234,-2.4668,0.0,0.0,0.0,0.0,0.0,0.0,0.0,0.0,0.0,0.0,0.0,0.0,-1.9831,-2.0431,-1.6822,-1.5238,-1.6053,-1.5632,-1.5378,-1.5413,-1.5952,-1.7069,-1.8809,0.0,0.0,0.0,0.0,0.0,0.0,0.0,0.0,0.0,0.0,0.0,0.0,0.0,0.0,0.0,0.0,0.0,0.0,0.0,0.0,0.0,0.0,0.0,0.0,0.0,-1.8719,0.0,0.0,0.0,0.0,0.0,0.0,0.0,0.0,0.0,0.0,0.0,-1.887,-1.8861,-1.7659,-1.6969,-1.7494,-1.6878,-1.6395,0.0,0.0,0.0,0.0,0.0,0.0,0.0,0.0,0.0,0.0,0.0,0.0,0.0,0.0,-2.0221,-2.1164,-2.1153,-2.0871,-2.0372,0.0,0.0,0.0,0.0,0.0,0.0,0.0,0.0,0.0,0.0,0.0,0.0,0.0,0.0,0.0,0.0,-2.8574,0.0,0.0,0.0,0.0,0.0,0.0,0.0,0.0,-2.5742,-2.5898,-2.6113,-2.5254,-2.5156,0.0,-2.5117,-2.4686,0.0,0.0,0.0,0.0,0.0,0.0,0.0,0.0,-2.0881,-2.0942,-1.7876,-1.6314,-1.6539,-1.6373,-1.6141,-1.5892,-1.6699,-1.7793,-1.9102,-1.8961,-2.0601,0.0,0.0,0.0,0.0,0.0,0.0,0.0,0.0,0.0,0.0,0.0,0.0,0.0,0.0,0.0,0.0,0.0,0.0,0.0,0.0,0.0,0.0,0.0,-2.0126,0.0,0.0,0.0,0.0,0.0,0.0,0.0,0.0,0.0,-1.9616,-1.9282,-1.9101,-1.9092,-1.8074,-1.752,-1.8041,0.0,0.0,0.0,0.0,0.0,0.0,0.0,-1.8424,-1.8406,-1.8851,-1.923,-1.9289,-1.918,-1.9274,-1.9738,0.0,0.0,-2.1042,-2.1261,-2.1075,-2.0309,-1.997,-1.9793,-1.9657,-1.9323,-1.9144,0.0,0.0,0.0,0.0,0.0,0.0,0.0,0.0,-2.7441,-2.8809,0.0,-2.918,0.0,0.0,0.0,0.0,0.0,0.0,0.0,0.0,-2.7539,-2.7871,-2.7012,-2.6191,-2.5781,-2.5742,-2.5703,-2.5234,-2.4375,-2.3544,0.0,0.0,0.0,0.0,0.0,0.0,-2.1162,-2.0355,-1.8706,-1.7544,-1.6859,-1.7506,-1.7533,-1.6855,-1.7598,-1.832,-1.8926,-1.9922,-2.1055,-2.2187,-2.265,0.0,0.0,0.0,0.0,0.0,0.0,0.0,0.0,0.0,0.0,0.0,0.0,0.0,0.0,0.0,0.0,0.0,0.0,0.0,0.0,-2.0371,0.0,0.0,0.0,0.0,0.0,0.0,0.0,0.0,0.0,0.0,-2.0472,-1.9795,-1.9315,-1.9334,0.0,0.0,0.0,0.0,-1.7801,-1.8097,-1.8634,-1.9067,-1.9248,-1.9123,-1.9009,-1.8991,0.0,0.0,-1.9266,-1.9279,-1.9289,-1.9315,-1.9318,-1.9476,-1.9984,-2.0679,-2.0922,-2.0227,-2.0347,-2.0354,-1.956,-1.9256,-1.8981,-3.6875,0.0,0.0,0.0,0.0,-3.3144,-3.3672,-3.4316,-3.3672,-3.3144,-3.2578,-3.0898,0.0,0.0,0.0,0.0,0.0,0.0,-2.8379,-2.7617,-2.8711,-2.8769,-2.793,-2.7676,-2.7246,-2.6621,-2.5996,-2.5254,-2.4375,-2.3515,-2.3818,-2.5156,0.0,0.0,0.0,0.0,-2.0925,-2.116,-1.9055,-1.8086,-1.8477,-1.8159,-1.8163,-1.8535,-1.8809,-1.9004,-1.918,-1.9492,-2.0098,-2.1016,-2.0449,0.0,0.0,0.0,0.0,0.0,0.0,0.0,0.0,0.0,0.0,0.0,0.0,0.0,0.0,0.0,0.0,0.0,0.0,0.0,-2.1978,-1.7657,-1.6881,0.0,0.0,0.0,0.0,0.0,0.0,0.0,0.0,0.0,-2.0525,-1.9803,-1.951,0.0,0.0,-1.8529,-1.9649,-1.8778,-1.8214,-1.8867,0.0,0.0,0.0,-1.9243,-1.9204,-1.9222,-1.9222,-1.9227,-1.9289,-1.9279,-1.9279,-1.9279,-1.9279,-1.9347,-1.9504,-1.9699,-1.979,-1.9573,-1.9541,-1.9442,-1.9163,-1.894,-1.8663,-4.0652,-3.7627,-3.7361,-3.668,-3.582,-3.6465,-3.6777,-3.6738,-3.623,-3.5586,-3.4844,-3.3144,-3.1523,-2.998,-2.8457,0.0,0.0,0.0,-3.0019,-2.9863,-3.0391,-3.0332,-2.9844,-2.9492,-2.8691,-2.7519,-2.6992,-2.6094,-2.4922,-2.4394,-2.4628,-2.5539,0.0,0.0,-2.3638,-2.1884,-2.1037,-2.1156,-1.973,-1.9057,-1.9212,-1.8769,-1.8926,-1.9785,-1.9824,-1.9824,-1.9805,-1.9805,-2.0059,-2.0566,-2.0293,-2.0741,0.0,0.0,0.0,0.0,0.0,0.0,0.0,0.0,0.0,0.0,0.0,-2.1278,0.0,0.0,0.0,0.0,-2.2565,-2.1254,-1.7795,-1.6797,0.0,0.0,0.0,0.0,0.0,0.0,0.0,-2.2217,-2.1454,-2.0933,-2.0748,-1.9978,-1.9564,-1.9976,-1.9179,-1.8922,-1.9887,0.0,-1.8746,-1.9224,-1.9279,-1.9279,-1.9279,-1.9279,-1.9279,-1.9279,-1.9279,-1.9279,-1.9279,-1.9279,-1.9279,-1.9279,-1.9279,-1.9279,-1.9279,-1.9279,-1.9279,-1.9297,-1.9196,-1.9092,-1.9036,-1.887,-1.8678,-4.3867,-4.2362,-4.1799,-4.0078,-3.7891,-3.9414,-3.873,-3.6543,-3.6465,-3.6797,-3.7266,-3.5566,-3.4687,-3.4355,-3.2051,0.0,-3.1016,-3.1152,-3.1601,-3.2305,-3.2363,-3.2324,-3.2148,-3.1387,-3.0059,-2.8281,-2.8281,-2.7402,-2.5742,-2.5684,-2.5703,-2.5644,-2.4033,-2.3167,-2.3077,-2.2306,-2.1502,-2.0725,-2.0701,-2.0293,-1.9434,-1.9473,-1.9863,-2.0566,-2.0605,-2.0586,-2.0605,-2.0605,-2.0605,-2.0625,-2.1367,-2.1953,-2.2285,0.0,0.0,0.0,0.0,0.0,0.0,0.0,0.0,0.0,0.0,0.0,0.0,0.0,0.0,0.0,-2.3178,0.0,-1.1909,-1.7801,0.0,0.0,0.0,-2.2863,-2.274,-2.2758,-2.2705,-2.2451,0.0,0.0,0.0,0.0,-1.9673,-1.9557,-1.9401,-1.9352,-1.9499,-1.9426,-1.9323,-1.9456,-1.9364,-1.9309,-1.9361,-1.9339,-1.9327,-1.9305,-1.9279,-1.9279,-1.9279,-1.9279,-1.9279,-1.9279,-1.9279,-1.9279,-1.9279,-1.9279,-1.9279,-1.9279,-1.9279,-1.9227,-1.9086,-1.9008,-1.8931,-4.5437,-4.5131,-4.4983,-4.3469,-4.1166,-4.1599,-4.1445,-4.084,-4.0234,-3.9355,-3.8184,-3.6445,-3.4629,-3.2754,-3.2168,-3.1894,-3.1953,-3.3223,-3.3535,-3.3164,-3.3809,-3.3437,-3.2207,-3.1973,-3.0625,-2.8398,-2.8281,-2.7402,-2.5762,-2.5703,-2.5703,-2.5644,-2.4628,-2.408,-2.4038,-2.3259,-2.2733,-2.2479,-2.1894,-2.1172,-2.0332,-2.0937,-2.1074,-2.0605,-2.0605,-2.0605,-2.0605,-2.0605,-2.0605,-2.0605,-2.0801,-2.1328,-2.2266,-2.3105,0.0,0.0,0.0,0.0,0.0,0.0,0.0,0.0,0.0,-2.3802,-2.3802,0.0,-2.475,0.0,-2.362,-2.2176,-2.0704,-2.2173,0.0,0.0,-2.3621,-2.4015,-2.4571,-2.3544,-2.2973,-2.3391,-2.2767,-2.222,-2.2035,-2.1262,-2.0941,-2.1467,-2.027,-1.9756,-2.0939,-2.0068,-1.9578,-2.0185,-1.9899,-1.9582,-1.9632,-1.9579,-1.9478,-1.932,-1.9286,-1.9279,-1.9279,-1.9279,-1.9279,-1.9279,-1.9279,-1.9279,-1.9279,-1.9279,-1.9279,-1.9279,-1.9279,-1.9282,-1.9227,-1.9219,-1.9174,-4.5825,-4.5881,-4.5938,-4.5161,-4.3899,-4.4074,-4.3926,-4.3496,-4.2656,-4.1348,-3.9629,-3.7519,-3.5801,-3.4473,-3.4062,-3.3887,-3.3965,-3.4863,-3.5019,-3.457,-3.4648,-3.4004,-3.2734,-3.2363,-3.1035,-2.8887,-2.8476,-2.7598,-2.6328,-2.5898,-2.5703,-2.5684,-2.5215,-2.498,-2.4922,-2.3809,-2.3164,-2.3105,-2.2695,-2.2227,-2.1758,-2.2187,-2.2207,-2.1738,-2.1738,-2.1562,-2.1191,-2.1191,-2.1191,-2.1172,-2.1172,-2.1523,-2.2285,-2.3379,-2.2422,0.0,0.0,0.0,0.0,0.0,0.0,0.0,0.0,0.0,0.0,0.0,-2.5308,0.0,-2.4,0.0,-2.3882,-2.3871,-2.3554,-2.2843,-2.3213,-2.3548,-2.3615,-2.2793,-2.266,-2.3793,-2.3203,-2.2795,-2.3032,-2.2342,-2.1935,-2.2366,-2.1399,-2.0832,-2.122,-2.0357,-1.9733,-2.0237,-1.9988,-1.972,-1.9803,-1.9688,-1.9562,-1.9445,-1.9357,-1.9279,-1.9279,-1.9279,-1.9279,-1.9279,-1.9279,-1.9279,-1.9279,-1.9279,-1.9279,-1.9279,-1.9279,-1.9279,-1.9279,-1.9279,-1.9251,-4.5631,-4.5635,-4.5754,-4.5836,-4.5935,-4.6153,-4.5742,-4.4766,-4.4023,-4.2754,-4.1055,-3.8789,-3.7754,-3.7578,-3.6601,-3.6172,-3.6152,-3.6055,-3.5957,-3.5801,-3.5059,-3.418,-3.3242,-3.2519,-3.1289,-2.9609,-2.8828,-2.8008,-2.7148,-2.6289,-2.5859,-2.5859,-2.5762,-2.5703,-2.5625,-2.4258,-2.3437,-2.3262,-2.3418,-2.3398,-2.3105,-2.3203,-2.3223,-2.3105,-2.3164,-2.2852,-2.209,-2.2051,-2.2051,-2.2051,-2.2051,-2.2207,-2.2559,-2.3496,-2.4531,0.0,-2.5629,0.0,0.0,0.0,0.0,0.0,0.0,0.0,0.0,-2.5308,-2.5308,-2.5308,-2.4308,-2.3788,-2.4067,-2.4105,-2.349,-2.2062,-2.2509,-2.2697,-2.2081,-2.1908,-2.2466,-2.4072,-2.3586,-2.3408,-2.4077,-2.3399,-2.2797,-2.2977,-2.2565,-2.2122,-2.1604,-2.0807,-2.0218,-2.0021,-1.9911,-1.9882,-1.9836,-1.9732,-1.9643,-1.9596,-1.9471,-1.9327,-1.9323,-1.9279,-1.9279,-1.9279,-1.9279,-1.9279,-1.9279,-1.9279,-1.9279,-1.9279,-1.9279,-1.9279,-1.9279,-1.9279,-1.9279,-4.5657,-4.5768,-4.579,-4.5836,-4.5912,-4.6075,-4.5302,-4.3945,-4.3769,-4.2754,-4.1191,-4.0684,-4.0059,-3.9297,-3.7754,-3.7051,-3.7012,-3.6328,-3.5625,-3.4941,-3.4785,-3.3906,-3.2461,-3.2266,-3.1289,-2.9648,-2.9434,-2.8906,-2.8047,-2.7168,-2.6738,-2.6738,-2.6055,-2.5703,-2.5684,0.0,0.0,0.0,-2.4883,-2.4551,-2.3203,-2.3789,-2.3828,-2.3125,-2.3164,0.0,-2.2969,-2.291,-2.2871,-2.2871,-2.293,0.0,0.0,0.0,0.0,0.0,0.0,0.0,0.0,0.0,0.0,0.0,-2.5561,-2.5476,-2.5322,-2.5308,-2.5308,-2.5288,-2.4505,-2.4028,-2.4086,-2.4105,-2.3975,-2.3682,-2.3759,-2.4028,-2.4462,-2.399,-2.4009,-2.4923,-2.4928,-2.4865,-2.4942,-2.4332,-2.4053,-2.4524,-2.3592,-2.3002,-2.3424,-2.2481,-2.1599,-2.1043,-2.0542,-2.0164,-1.9983,-1.9943,-1.9824,-1.9682,-1.9569,-1.9474,-1.935,-1.9312,-1.9305,-1.9305,-1.9279,-1.9279,-1.9279,-1.9279,-1.9279,-1.9279,-1.9279,-1.9279,-1.9279,-1.9279,-1.9279,-4.5643,0.0,-4.5719,-4.5769,0.0,-4.5915,-4.5296,-4.4198,-4.4293,-4.3379,-4.1777,-4.1367,-4.0703,-3.9805,-3.8086,-3.7285,-3.7246,-3.6387,-3.5762,-3.5332,-3.4883,-3.4258,-3.3418,-3.3008,-3.2129,-3.0879,-3.0449,-2.9805,-2.8926,-2.8066,-2.7656,-2.7617,-2.7207,-2.6777,-2.6328,-2.5918,-2.5469,-2.5039,-2.5469,-2.5254,-2.4453,-2.4824,-2.4844,-2.4394,0.0,0.0,0.0,0.0,0.0,0.0,0.0,0.0,0.0,0.0,0.0,-2.5664,-2.5662,-2.5661,-2.5703,-2.5662,-2.5635,-2.5603,-2.5566,-2.5503,-2.5363,-2.5346,-2.5339,-2.5293,-2.4928,-2.4697,-2.4678,-2.4697,-2.4529,-2.4163,-2.4105,-2.4279,-2.4582,-2.4356,-2.4432,-2.5135,-2.5308,-2.5308,-2.5308,-2.4962,-2.4851,-2.5192,-2.4615,-2.4024,-2.3985,-2.3222,-2.2271,-2.1484,-2.1122,-2.071,-2.0242,-2.0041,-1.9978,-1.9838,-1.9744,-1.9657,-1.956,-1.9495,-1.9456,-1.9431,-1.9365,-1.9279,-1.9279,-1.9279,-1.9279,-1.9279,-1.9279,-1.9279,-1.9279,-1.9279,-1.9279,-4.5594,-4.5594,-4.5594,-4.5657,-4.5756,-4.5783,-4.5462,-4.4895,0.0,0.0,0.0,-4.1502,-4.078,-4.0039,-3.8476,-3.7754,-3.7695,-3.6855,-3.6387,-3.6172,-3.5332,-3.4863,-3.4668,-3.3809,-3.3047,-3.2402,-3.168,-3.0976,-3.0234,-2.9258,-2.875,-2.8711,-2.8301,-2.7637,-2.6777,-2.6074,-2.5703,-2.5703,-2.5703,-2.5703,-2.5703,-2.5703,-2.5703,-2.5703,-2.5703,-2.5352,-2.4668,-2.4629,-2.4629,-2.4629,-2.4629,-2.4961,-2.5644,-2.5703,-2.5703,-2.5703,-2.5703,-2.5703,-2.5703,-2.5703,-2.5682,-2.561,-2.5584,-2.5513,-2.5425,-2.5401,-2.5391,-2.5331,-2.5303,-2.5288,-2.5308,-2.5308,-2.5019,-2.4394,-2.4317,-2.4317,-2.4317,-2.4317,-2.462,-2.5173,-2.5308,-2.5308,-2.5308,-2.5269,-2.5308,-2.5308,-2.5212,-2.5096,-2.4356,-2.3442,-2.2544,-2.1934,-2.175,-2.1462,-2.0761,-2.0653,-2.0423,-2.0317,-2.0186,-2.0019,-1.9835,-1.972,-1.9649,-1.9624,-1.9476,-1.9419,-1.939,-1.9412,-1.9387,-1.9339,-1.938,-1.9369,-1.9357,-1.935,-1.935,-4.5594,-4.5594,-4.5594,-4.5612,-4.5654,-4.5754,-4.5772,-4.5596,-4.3808,-4.277,-4.2268,-4.1339,-4.0975,-4.0976,-3.9961,-3.9531,-3.9473,-3.8633,-3.7832,0.0,-3.623,-3.543,-3.4668,-3.3809,-3.334,-3.3223,-3.3105,-3.2988,-3.2715,-3.1289,-3.0527,-3.0254,-2.8301,-2.6797,-2.5937,-2.5762,-2.5703,-2.5703,-2.5703,-2.5703,-2.5703,-2.5703,-2.5703,-2.5703,-2.5703,-2.5664,-2.5527,-2.5508,-2.5527,-2.5527,-2.5527,-2.5586,-2.5684,-2.5703,-2.5703,-2.5703,-2.5703,-2.5703,-2.5703,-2.5703,-2.5703,-2.5683,-2.5682,-2.5629,-2.5489,-2.5428,-2.5398,-2.5387,-2.5339,-2.5308,-2.5308,-2.5308,-2.525,-2.5135,-2.5115,-2.5115,-2.5082,-2.5077,-2.5115,-2.5269,-2.5308,-2.5308,-2.5308,-2.5308,-2.5308,-2.5308,-2.5308,-2.5231,-2.4885,-2.3793,-2.2855,-2.2639,-2.2605,-2.2235,-2.1596,-2.1962,-2.1847,-2.1248,-2.1046,-2.0709,-1.9941,-1.9809,-1.978,-1.9774,-1.9713,-1.9719,-1.9719,-1.9725,-1.9651,-1.9577,-1.9637,-1.967,-1.9564,-1.9548,-1.9492,-4.5594,-4.5594,-4.5594,-4.5594,-4.5603,-4.5665,-4.5699,-4.5602,-4.4201,-4.3578,-4.3458,-4.2264,-4.1694,-4.1569,-4.0322,-3.9753,-3.9753,-3.8874,-3.8335,-3.7988,-3.7598,-3.7207,-3.6758,-3.5937,-3.5273,-3.4824,-3.4336,-3.3867,-3.332,-3.2168,-3.1601,-3.1465,-2.9453,-2.8203,-2.7832,-2.7344,-2.6875,-2.6406,-2.5937,-2.5703,-2.5703,-2.5703,-2.5703,-2.5703,-2.5703,-2.5703,-2.5703,-2.5703,-2.5703,-2.5703,-2.5703,-2.5703,-2.5703,-2.5703,-2.5703,-2.5703,-2.5703,-2.5703,-2.5703,-2.5703,-2.5703,-2.5703,-2.5703,-2.5662,-2.5608,-2.5549,-2.5484,-2.5465,-2.5379,-2.5354,-2.535,-2.5312,-2.5308,-2.5308,-2.5308,-2.5308,-2.5308,-2.5308,-2.5308,-2.5308,-2.5308,-2.5308,-2.5308,-2.5308,-2.5308,-2.5308,-2.5308,-2.5308,-2.5308,-2.4673,-2.3985,-2.3605,-2.349,-2.3124,-2.2408,-2.2509,-2.2367,-2.1564,-2.1406,-2.1039,-2.0265,-2.0011,-1.9922,-1.9906,-1.9877,-1.9815,-1.9834,-1.9809,-1.9774,-1.9744,-1.9744,-1.9762,-1.9726,-1.9669,-1.9534,-4.5594,-4.5594,-4.5594,-4.5594,-4.5594,-4.5594,-4.5594,-4.5537,-4.4863,-4.4711,-4.4672,-4.3266,-4.2392,-4.1976,-4.0711,-4.0192,-4.0128,-3.9331,-3.9013,-3.9118,-3.8943,-3.8866,-3.8789,-3.7988,-3.7246,-3.6543,-3.5703,-3.4941,-3.4238,-3.3262,-3.2441,-3.1836,-3.0547,-2.9707,-2.9316,-2.8633,-2.7871,-2.7012,-2.6328,-2.5898,-2.5703,-2.5703,-2.5703,-2.5703,-2.5703,-2.5703,-2.5703,-2.5703,-2.5703,-2.5703,-2.5703,-2.5703,-2.5703,-2.5703,-2.5703,-2.5703,-2.5703,-2.5703,-2.5703,-2.5703,-2.5703,-2.5703,-2.5703,-2.5703,-2.5703,-2.5639,-2.558,-2.5535,-2.5471,-2.5421,-2.5411,-2.5367,-2.5312,-2.5307,-2.5298,-2.5308,-2.5308,-2.5308,-2.5308,-2.5308,-2.5308,-2.5308,-2.5308,-2.5308,-2.5308,-2.5308,-2.5308,-2.5308,-2.5308,-2.5308,-2.5,-2.4601,-2.4375,-2.4028,-2.3297,-2.3312,-2.3062,-2.2235,-2.1942,-2.1626,-2.1052,-2.0655,-2.0522,-2.0642,-2.0435,-2.0326,-2.021,-2.0034,-1.9928,-1.9863,-1.9909,-1.9934,-1.9847,-1.9786,-1.9624,-4.5614,-4.5594,-4.5614,-4.5594,-4.5594,-4.5594,-4.5594,-4.5575,-4.5498,-4.5488,-4.5263,-4.3826,-4.2787,-4.2147,-4.1913,-4.182,-4.1758,-4.0964,-4.0646,-4.0627,-3.9946,-3.9653,-3.9726,-3.8887,-3.8437,-3.8242,-3.7461,-3.6934,-3.6699,-3.5215,-3.3301,-3.1269,-3.084,-3.0019,-2.8672,-2.8418,-2.7891,-2.7031,-2.6934,-2.6504,-2.5742,-2.5703,-2.5703,-2.5703,-2.5703,-2.5703,-2.5703,-2.5703,-2.5703,-2.5703,-2.5703,-2.5703,-2.5703,-2.5703,-2.5703,-2.5703,-2.5703,-2.5703,-2.5703,-2.5703,-2.5703,-2.5703,-2.5703,-2.5703,-2.5703,-2.5684,-2.5661,-2.5599,-2.5518,-2.5503,-2.5479,-2.5431,-2.5395,-2.5403,-2.5348,-2.5308,-2.5308,-2.5308,-2.5308,-2.5308,-2.5313,-2.5308,-2.5322,-2.5322,-2.5298,-2.5327,-2.5293,-2.5308,-2.5308,-2.5288,-2.5288,-2.5173,-2.5173,-2.4812,-2.424,-2.4639,-2.4409,-2.3836,-2.3163,-2.2639,-2.225,-2.1823,-2.1545,-2.1826,-2.1758,-2.1329,-2.106,-2.0813,-2.0229,-2.0041,-2.0083,-2.018,-2.0041,-1.9958,-1.9847,-4.6374,-4.6317,-4.5806,-4.5594,-4.5594,-4.5594,-4.5594,-4.5594,-4.5594,-4.5325,-4.4863,-4.4657,-4.4155,-4.3375,-4.2911,-4.2692,-4.2715,-4.2371,-4.1995,-4.1646,-4.1279,-4.1206,-4.1155,-3.9869,-3.9524,-3.9961,-3.873,-3.8066,-3.7773,-3.6328,-3.4414,-3.2539,-3.1914,-3.1309,-3.0605,-3.0098,-2.9394,-2.8574,-2.8535,-2.7871,-2.6582,-2.5957,-2.5703,-2.5703,-2.5703,-2.5703,-2.5703,-2.5703,-2.5703,-2.5703,-2.5703,-2.5703,-2.5703,-2.5703,-2.5703,-2.5703,-2.5703,-2.5703,-2.5703,-2.5703,-2.5703,-2.5703,-2.5703,-2.5703,-2.5703,-2.5703,-2.5683,-2.566,-2.5601,-2.5558,-2.5554,-2.5491,-2.5446,-2.5459,-2.5431,-2.5431,-2.5434,-2.5408,-2.5417,-2.5383,-2.5398,-2.5402,-2.5371,-2.5354,-2.5354,-2.5361,-2.5321,-2.5298,-2.5308,-2.5308,-2.5308,-2.5308,-2.5308,-2.5173,-2.487,-2.5038,-2.4909,-2.4317,-2.3841,-2.3509,-2.2889,-2.2601,-2.2408,-2.2797,-2.2509,-2.2062,-2.1492,-2.1288,-2.0887,-2.0466,-2.0182,-2.0253,-2.0193,-2.0097,-1.9958,-4.7077,-4.6778,-4.596,-4.5594,-4.5594,-4.5594,-4.5594,-4.5594,-4.5594,-4.5229,-4.4767,-4.5325,-4.5267,-4.4586,-4.3797,-4.3455,-4.3477,-4.3252,-4.2898,-4.2422,-4.2413,-4.2346,-4.2136,-4.1319,-4.0894,-4.0894,-3.9863,-3.9023,-3.8426,-3.7059,-3.5497,-3.4109,-3.3237,-3.2614,-3.2126,-3.1523,-3.0684,-2.9687,-2.9609,-2.8867,-2.7461,-2.6716,-2.6171,-2.5762,-2.5703,-2.5703,-2.5703,-2.5937,-2.6074,-2.6055,-2.6074,-2.6074,-2.6035,-2.584,-2.5703,-2.5703,-2.5703,-2.5703,-2.5703,-2.5703,-2.5703,-2.5703,-2.5703,-2.5703,-2.5703,-2.5703,-2.5703,-2.5684,-2.564,-2.5613,-2.563,-2.5564,-2.5518,-2.5533,-2.5524,-2.5513,-2.5508,-2.551,-2.5468,-2.5447,-2.5471,-2.5473,-2.5441,-2.5418,-2.5415,-2.5414,-2.535,-2.5317,-2.5298,-2.5308,-2.5308,-2.5308,-2.5308,-2.5288,-2.5308,-2.5288,-2.4966,-2.462,-2.4298,-2.3913,-2.3432,-2.3394,-2.3389,-2.3774,-2.3394,-2.3028,-2.2562,-2.2177,-2.1288,-2.0615,-2.0327,-2.0346,-2.0277,-2.0161,-2.0073,-4.7596,-4.6808,-4.597,-4.5594,-4.5594,-4.5594,-4.5594,-4.5594,-4.5594,-4.5556,-4.5479,-4.5575,-4.5575,-4.5441,-4.4605,-4.4267,-4.4168,-4.3561,-4.3231,-4.315,-4.3156,-4.2793,-4.2202,-4.295,-4.2572,-4.1408,-4.0978,-3.9997,-3.8419,-3.7465,-3.6485,-3.5613,-3.4822,-3.3656,-3.243,-3.22,-3.1289,-2.9941,-2.9785,-2.9177,-2.828,-2.8098,-2.7312,-2.5996,-2.5742,-2.582,-2.5879,-2.6523,-2.6934,-2.6934,-2.6953,-2.6953,-2.6875,-2.6191,-2.582,-2.5801,-2.5781,-2.5762,-2.5781,-2.5781,-2.5742,-2.5703,-2.5703,-2.5703,-2.5703,-2.5703,-2.5703,-2.5703,-2.5703,-2.5684,-2.5683,-2.5633,-2.5599,-2.5597,-2.5547,-2.5524,-2.5517,-2.5529,-2.5513,-2.5506,-2.5515,-2.55,-2.5491,-2.5486,-2.5474,-2.5444,-2.5402,-2.5368,-2.5335,-2.5313,-2.5317,-2.5322,-2.5317,-2.5293,-2.5293,-2.5308,-2.5288,-2.5038,-2.462,-2.4356,-2.4606,-2.4755,-2.4755,-2.4678,-2.4293,-2.3971,-2.3701,-2.2874,-2.1639,-2.0904,-2.0577,-2.05,-2.0596,-2.0365,-2.0214,-4.8144,-4.6836,-4.5951,-4.5594,-4.5594,-4.5594,-4.5594,-4.5594,-4.5594,-4.5594,-4.5594,-4.5594,-4.5594,-4.5594,-4.5287,-4.5133,-4.5086,-4.4825,-4.4416,-4.396,-4.3902,-4.3819,-4.3646,-4.3486,-4.3454,-4.3256,-4.2227,-4.0827,-3.9276,-3.8805,-3.8222,-3.7242,-3.5966,-3.4931,-3.4317,-3.3344,-3.226,-3.127,-3.1136,-3.0448,-2.9189,-2.9033,-2.8442,-2.733,-2.7262,-2.7318,-2.7363,-2.7656,-2.7851,-2.7832,-2.7832,-2.7832,-2.7812,-2.7539,-2.7363,-2.7363,-2.7363,-2.7187,-2.6836,-2.6621,-2.6269,-2.5762,-2.5703,-2.5703,-2.5703,-2.5703,-2.5703,-2.5703,-2.5703,-2.5703,-2.5703,-2.5682,-2.5664,-2.5664,-2.5644,-2.5625,-2.5613,-2.5612,-2.5606,-2.5569,-2.5561,-2.559,-2.5602,-2.5597,-2.5575,-2.5516,-2.5498,-2.5456,-2.5434,-2.5444,-2.5415,-2.5444,-2.5425,-2.5447,-2.5425,-2.5357,-2.5288,-2.5231,-2.5038,-2.4966,-2.5082,-2.5082,-2.5058,-2.5019,-2.4832,-2.4509,-2.4086,-2.3355,-2.2139,-2.1831,-2.1481,-2.1077,-2.1081,-2.075,-2.0446,-4.8586,-4.7278,-4.6374,-4.5864,-4.5614,-4.5594,-4.5594,-4.5594,-4.5594,-4.5594,-4.5594,-4.5594,-4.5594,-4.5594,-4.5594,-4.5594,-4.5594,-4.5575,-4.5287,-4.4759,-4.4729,-4.463,-4.4404,-4.4176,-4.4083,-4.3991,-4.2777,-4.1417,-4.0363,-3.9761,-3.9213,-3.8524,-3.7162,-3.6155,-3.5562,-3.454,-3.3517,-3.2582,-3.2123,-3.1358,-3.0331,-2.9959,-2.9527,-2.8994,-2.8916,-2.8705,-2.8335,-2.8532,-2.871,-2.873,-2.8711,-2.8594,-2.834,-2.8281,-2.8281,-2.8281,-2.8281,-2.8027,-2.748,-2.7148,-2.6602,-2.5801,-2.5703,-2.5703,-2.5703,-2.5703,-2.5703,-2.5703,-2.5703,-2.5703,-2.5703,-2.5703,-2.5703,-2.5703,-2.5703,-2.5703,-2.5703,-2.5703,-2.5664,-2.5636,-2.5614,-2.5659,-2.5703,-2.566,-2.5631,-2.5604,-2.5558,-2.5537,-2.5517,-2.551,-2.551,-2.551,-2.5503,-2.5498,-2.549,-2.5437,-2.5371,-2.5316,-2.5269,-2.5293,-2.5317,-2.5313,-2.5303,-2.5298,-2.5139,-2.4812,-2.4317,-2.3644,-2.322,-2.2913,-2.237,-2.185,-2.1543,-2.1062,-2.0723,-4.8894,-4.8029,-4.7221,-4.6394,-4.5768,-4.5633,-4.5594,-4.5594,-4.5594,-4.5594,-4.5594,-4.5594,-4.5594,-4.5594,-4.5594,-4.5594,-4.5594,-4.5594,-4.5556,-4.546,-4.5498,-4.5094,-4.4493,-4.5177,-4.4718,-4.3479,-4.2492,-4.1982,-4.1563,-4.028,-3.9509,-3.9201,-3.8459,-3.7312,-3.5759,-3.5663,-3.4835,-3.3524,-3.2594,-3.1956,-3.1693,-3.0989,-3.0516,-3.0363,-3.0372,-2.9758,-2.8418,-2.909,-2.9536,-2.9589,-2.959,-2.9199,-2.8652,-2.8535,-2.8418,-2.8535,-2.8437,-2.8105,-2.7637,-2.7402,-2.6934,-2.6172,-2.584,-2.6016,-2.6055,-2.5898,-2.584,-2.5859,-2.5742,-2.5703,-2.5703,-2.5703,-2.5703,-2.5703,-2.5703,-2.5703,-2.5703,-2.5703,-2.5703,-2.5684,-2.5684,-2.5684,-2.5703,-2.5684,-2.5664,-2.5632,-2.5604,-2.5573,-2.5549,-2.5541,-2.5524,-2.5503,-2.5541,-2.5552,-2.5535,-2.5508,-2.5446,-2.5399,-2.5356,-2.5344,-2.537,-2.5354,-2.5337,-2.5344,-2.5298,-2.501,-2.4736,-2.4144,-2.3894,-2.3543,-2.3043,-2.2562,-2.2004,-2.1504,-2.0946,-4.924,-4.8836,-4.749,-4.6759,-4.6413,-4.5855,-4.5594,-4.5594,-4.5594,-4.5594,-4.5594,-4.5594,-4.5594,-4.5594,-4.5594,-4.5594,-4.5594,-4.5594,-4.5594,-4.5594,-4.5594,-4.546,-4.5304,-4.5528,-4.5078,-4.4087,-4.3721,-4.2938,-4.1901,-4.1239,-4.0758,-4.0108,-3.9316,-3.8689,-3.8015,-3.6999,-3.5817,-3.4899,-3.3998,-3.3034,-3.1985,-3.2096,-3.1647,-3.0623,-3.0998,-3.0811,-2.9864,-3.0103,-3.0275,-3.0356,-3.0358,-3.0267,-3.0098,-3.0098,-3.0098,-3.0098,-3.0078,-3.0059,-2.9785,-2.9121,-2.834,-2.7676,-2.7461,-2.75,-2.7402,-2.6914,-2.6602,-2.6504,-2.6074,-2.5703,-2.5703,-2.5703,-2.5703,-2.5703,-2.5703,-2.5703,-2.5703,-2.5703,-2.5703,-2.5703,-2.5703,-2.5703,-2.5703,-2.5703,-2.5684,-2.5684,-2.5664,-2.5644,-2.5644,-2.5625,-2.5635,-2.5635,-2.5635,-2.5625,-2.5603,-2.5593,-2.5552,-2.5496,-2.5453,-2.5402,-2.5409,-2.5413,-2.5395,-2.536,-2.5339,-2.5216,-2.4961,-2.4736,-2.4485,-2.4351,-2.4043,-2.3389,-2.2581,-2.1966,-2.1427,-4.9683,-4.926,-4.7913,-4.7154,-4.6808,-4.597,-4.5594,-4.5594,-4.5594,-4.5594,-4.5594,-4.5594,-4.5594,-4.5594,-4.5594,-4.5594,-4.5594,-4.5594,-4.5594,-4.5594,-4.5594,-4.5594,-4.5594,-4.5594,-4.5364,-4.4825,-4.4451,-4.3778,-4.2758,-4.2077,-4.1527,-4.0931,-4.015,-3.9554,-3.9277,-3.8257,-3.7178,-3.6079,-3.5139,-3.4063,-3.3032,-3.2872,-3.2441,-3.1537,-3.1679,-3.1515,-3.0989,-3.0697,-3.0736,-3.1059,-3.1133,-3.1105,-3.0937,-3.082,-3.0838,-3.0898,-3.0898,-3.0879,-3.082,-2.9961,-2.9355,-2.875,-2.8437,-2.8281,-2.8203,-2.7715,-2.7422,-2.6953,-2.6523,-2.6055,-2.5781,-2.5703,-2.5703,-2.5703,-2.5703,-2.5703,-2.5703,-2.5703,-2.5703,-2.5703,-2.5703,-2.5703,-2.5703,-2.5703,-2.5703,-2.5703,-2.5703,-2.5703,-2.5703,-2.5684,-2.5703,-2.5703,-2.5684,-2.5684,-2.5684,-2.5662,-2.5636,-2.5598,-2.5547,-2.5503,-2.5477,-2.5477,-2.5468,-2.5428,-2.5402,-2.5367,-2.5138,-2.5163,-2.5019,-2.4986,-2.4817,-2.4235,-2.3447,-2.2601,-2.1966,-5.024,-4.9375,-4.8529,-4.7798,-4.7067,-4.6163,-4.5768,-4.571,-4.5614,-4.5594,-4.5594,-4.5594,-4.5594,-4.5594,-4.5594,-4.5594,-4.5594,-4.5594,-4.5594,-4.5594,-4.5594,-4.5594,-4.5594,-4.5594,-4.5537,-4.5383,-4.4797,-4.4335,-4.3951,-4.2816,-4.1912,-4.1788,-4.1123,-4.0285,-3.9758,-3.9431,-3.8476,-3.7086,-3.6136,-3.527,-3.4372,-3.3692,-3.3109,-3.2929,-3.2506,-3.2147,-3.1742,-3.1316,-3.1212,-3.1773,-3.1884,-3.1711,-3.1124,-3.0824,-3.092,-3.0918,-3.0898,-3.0879,-3.0703,-3.0215,-2.9668,-2.9355,-2.8945,-2.8437,-2.8652,-2.8535,-2.8125,-2.7519,-2.7187,-2.6777,-2.6191,-2.6055,-2.6055,-2.5898,-2.5859,-2.5723,-2.5703,-2.5703,-2.5703,-2.5703,-2.5703,-2.5703,-2.5703,-2.5703,-2.5703,-2.5703,-2.5703,-2.5703,-2.5703,-2.5703,-2.5703,-2.5703,-2.5703,-2.5703,-2.5703,-2.5684,-2.5664,-2.5658,-2.5625,-2.5586,-2.5547,-2.5541,-2.5533,-2.5503,-2.5462,-2.5418,-2.5402,-2.5375,-2.5346,-2.5243,-2.5056,-2.4826,-2.4223,-2.3315,-2.2474,-5.1106,-5.0289,-4.9413,-4.8933,-4.8529,-4.7201,-4.6547,-4.6451,-4.5855,-4.5594,-4.5594,-4.5594,-4.5594,-4.5594,-4.5594,-4.5594,-4.5594,-4.5594,-4.5594,-4.5594,-4.5594,-4.5594,-4.5594,-4.5594,-4.5594,-4.5537,-4.5306,-4.4932,-4.4316,-4.3778,-4.3278,-4.2777,-4.245,-4.1931,-4.1219,-4.0469,-3.9669,-3.8642,-3.7757,-3.6892,-3.6122,-3.5776,-3.5064,-3.3891,-3.3545,-3.3096,-3.2718,-3.3006,-3.2648,-3.19,-3.2508,-3.2474,-3.1834,-3.1612,-3.1305,-3.0856,-3.0704,-3.0693,-3.0713,-3.0527,-3.0324,-3.0279,-3.0067,-3.0215,-3.0176,-2.9609,-2.9199,-2.8809,-2.8398,-2.7851,-2.7637,-2.75,-2.7519,-2.7441,-2.6523,-2.5781,-2.5762,-2.5703,-2.5703,-2.5703,-2.5703,-2.5703,-2.5703,-2.5703,-2.5703,-2.5703,-2.5703,-2.5703,-2.5703,-2.5703,-2.5703,-2.5703,-2.5703,-2.5703,-2.5703,-2.5703,-2.5684,-2.5684,-2.5684,-2.5664,-2.5625,-2.5605,-2.5597,-2.5582,-2.5524,-2.5485,-2.5482,-2.5465,-2.545,-2.5415,-2.5347,-2.512,-2.4626,-2.3858,-2.3062,-5.1414,-5.0616,-4.976,-4.9413,-4.9183,-4.7596,-4.6904,-4.674,-4.599,-4.5594,-4.5594,-4.5594,-4.5594,-4.5594,-4.5594,-4.5594,-4.5594,-4.5594,-4.5594,-4.5594,-4.5594,-4.5594,-4.5594,-4.5594,-4.5594,-4.5594,-4.5594,-4.5344,-4.4855,-4.4509,-4.4047,-4.3605,-4.3258,-4.2662,-4.1758,-4.1316,-4.0431,-3.9419,-3.8757,-3.8123,-3.7334,-3.6873,-3.6276,-3.5276,-3.4795,-3.4173,-3.3526,-3.3872,-3.3576,-3.2736,-3.3088,-3.3534,-3.3359,-3.2345,-3.1669,-3.1138,-3.0817,-3.062,-3.0641,-3.0659,-3.0628,-3.0606,-3.0719,-3.0783,-3.0684,-3.0308,-3.0015,-2.9512,-2.9101,-2.8711,-2.8301,-2.7988,-2.7969,-2.7988,-2.707,-2.6269,-2.623,-2.6269,-2.6055,-2.584,-2.5703,-2.5703,-2.5703,-2.5703,-2.5703,-2.5703,-2.5703,-2.5703,-2.5703,-2.5703,-2.5703,-2.5703,-2.5703,-2.5703,-2.5703,-2.5703,-2.5703,-2.5703,-2.5703,-2.5703,-2.5684,-2.5644,-2.5644,-2.5625,-2.5586,-2.5547,-2.5545,-2.5533,-2.5498,-2.5485,-2.5508,-2.5401,-2.494,-2.451,-2.3688,-5.151,-5.0616,-4.9856,-4.9529,-4.9336,-4.7894,-4.7355,-4.7048,-4.624,-4.5806,-4.5787,-4.5671,-4.5594,-4.5594,-4.5594,-4.5594,-4.5594,-4.5594,-4.5594,-4.5594,-4.5594,-4.5594,-4.5594,-4.5594,-4.5594,-4.5594,-4.5594,-4.5575,-4.5325,-4.4778,-4.4509,-4.4335,-4.3778,-4.2893,-4.2277,-4.1942,-4.1027,-3.9796,-3.9496,-3.9084,-3.8315,-3.7546,-3.6885,-3.6661,-3.5673,-3.4788,-3.4115,-3.4103,-3.3962,-3.3026,-3.384,-3.452,-3.4905,-3.3032,-3.2154,-3.1915,-3.1398,-3.102,-3.0769,-3.0847,-3.0678,-3.0626,-3.0587,-3.0625,-3.0654,-3.0573,-3.0377,-2.9881,-2.9746,-2.9434,-2.8867,-2.7949,-2.8047,-2.8516,-2.791,-2.7363,-2.7246,-2.7187,-2.6797,-2.5996,-2.5859,-2.582,-2.5703,-2.5703,-2.5703,-2.5703,-2.5703,-2.5703,-2.5703,-2.5703,-2.5703,-2.5703,-2.5703,-2.5703,-2.5703,-2.5703,-2.5703,-2.5703,-2.5703,-2.5703,-2.5703,-2.5684,-2.5684,-2.5664,-2.5625,-2.5606,-2.5605,-2.5591,-2.5547,-2.5549,-2.5587,-2.5554,-2.5424,-2.5021,-2.4378,-5.2049,-5.0673,-5.051,-5.0423,-5.025,-4.9317,-4.8836,-4.8682,-4.7221,-4.6547,-4.6451,-4.5893,-4.5614,-4.5594,-4.5594,-4.5594,-4.5594,-4.5594,-4.5594,-4.5594,-4.5594,-4.5594,-4.5594,-4.5594,-4.5594,-4.5594,-4.5594,-4.5594,-4.5498,-4.5402,-4.5297,-4.521,-4.4902,-4.4297,-4.3008,-4.2681,-4.197,-4.0554,-4.0227,-4.0092,-3.9604,-3.843,-3.7661,-3.7469,-3.6269,-3.5,-3.4269,-3.4712,-3.4673,-3.4173,-3.4538,-3.5007,-3.4597,-3.3987,-3.3304,-3.2753,-3.2488,-3.2072,-3.1625,-3.1429,-3.121,-3.0632,-3.0591,-3.0613,-3.063,-3.0659,-3.0633,-3.0475,-3.0547,-3.0391,-3.0078,-2.9492,-2.9394,-2.9668,-2.9394,-2.8926,-2.8926,-2.8398,-2.7676,-2.6992,-2.666,-2.6465,-2.582,-2.5723,-2.5703,-2.5703,-2.5703,-2.5703,-2.5703,-2.5684,-2.5703,-2.5703,-2.5703,-2.5703,-2.5703,-2.5703,-2.5703,-2.5703,-2.5703,-2.5703,-2.5703,-2.5703,-2.5703,-2.5703,-2.5684,-2.5684,-2.5644,-2.5664,-2.5625,-2.5644,-2.5644,-2.5625,-2.5547,-2.5293,-2.5145,-5.2241,-5.0731,-5.0683,-5.0683,-5.0558,-4.9779,-4.9413,-4.9086,-4.7625,-4.6904,-4.6721,-4.597,-4.5614,-4.5594,-4.5594,-4.5594,-4.5594,-4.5594,-4.5594,-4.5594,-4.5594,-4.5594,-4.5594,-4.5594,-4.5594,-4.5594,-4.5594,-4.5594,-4.5594,-4.5594,-4.5556,-4.5594,-4.5594,-4.4863,-4.3758,-4.3316,-4.2393,-4.1277,-4.0689,-4.0496,-4.0265,-3.9304,-3.8027,-3.7507,-3.65,-3.5577,-3.4808,-3.5115,-3.5135,-3.4904,-3.5135,-3.5308,-3.4814,-3.443,-3.3949,-3.3609,-3.3045,-3.2776,-3.2351,-3.1917,-3.1535,-3.105,-3.0753,-3.0552,-3.0548,-3.0601,-3.0628,-3.0659,-3.0702,-3.0723,-3.0717,-3.0039,-3.0051,-3.0426,-3.0097,-2.9805,-2.9961,-2.9434,-2.8574,-2.7773,-2.7207,-2.6836,-2.6426,-2.6094,-2.5762,-2.5762,-2.5742,-2.5742,-2.5664,-2.5664,-2.5684,-2.5703,-2.5703,-2.5703,-2.5703,-2.5703,-2.5703,-2.5703,-2.5703,-2.5703,-2.5703,-2.5703,-2.5703,-2.5703,-2.5703,-2.5703,-2.5684,-2.5703,-2.5703,-2.5684,-2.5684,-2.5684,-2.5644,-2.5508,-2.543,-5.208,-5.0604,-5.0614,-5.0653,-5.0587,-4.9942,-4.9548,-4.9183,-4.7913,-4.7278,-4.6797,-4.6086,-4.5845,-4.5633,-4.5594,-4.5594,-4.5594,-4.5594,-4.5594,-4.5594,-4.5594,-4.5594,-4.5594,-4.5594,-4.5594,-4.5594,-4.5594,-4.5594,-4.5594,-4.5594,-4.5594,-4.5594,-4.5594,-4.5075,-4.4297,-4.3662,-4.2835,-4.1835,-4.1143,-4.065,-4.04,-3.9631,-3.8488,-3.7392,-3.7,-3.65,-3.5827,-3.5731,-3.5635,-3.5519,-3.55,-3.55,-3.5308,-3.4891,-3.4398,-3.4379,-3.3833,-3.343,-3.3103,-3.2596,-3.2172,-3.1923,-3.1127,-3.0819,-3.0907,-3.074,-3.0684,-3.0746,-3.0784,-3.0625,-3.0573,-3.0167,-3.0115,-3.0396,-3.0086,-3.0152,-3.0486,-3.0154,-2.9394,-2.8613,-2.8086,-2.7695,-2.707,-2.6602,-2.6172,-2.5845,-2.5855,-2.5857,-2.5829,-2.5664,-2.5723,-2.5644,-2.5625,-2.5625,-2.5625,-2.5625,-2.5644,-2.5664,-2.5664,-2.5684,-2.5684,-2.5703,-2.5703,-2.5703,-2.5703,-2.5703,-2.5703,-2.5703,-2.5703,-2.5703,-2.5703,-2.5703,-2.5703,-2.5703,-2.5625,-5.1418,-5.0195,-5.0195,-5.0369,-5.0654,-5.0539,-5.0029,-4.9452,-4.8971,-4.8163,-4.6971,-4.6721,-4.6163,-4.5806,-4.5594,-4.5594,-4.5594,-4.5594,-4.5594,-4.5594,-4.5594,-4.5594,-4.5594,-4.5594,-4.5594,-4.5594,-4.5594,-4.5594,-4.5594,-4.5594,-4.5594,-4.5594,-4.5594,-4.5152,-4.4594,-4.4066,-4.3393,-4.2431,-4.1797,-4.1296,-4.0458,-3.9785,-3.8957,-3.7892,-3.7796,-3.7269,-3.6654,-3.6442,-3.6212,-3.5596,-3.55,-3.55,-3.5462,-3.5288,-3.5199,-3.5122,-3.4968,-3.4526,-3.4026,-3.3801,-3.3353,-3.2756,-3.1948,-3.1872,-3.1937,-3.1375,-3.1105,-3.1168,-3.0978,-3.0652,-3.0606,-3.0375,-3.0425,-3.0531,-3.0524,-3.044,-3.0555,-3.0419,-3.008,-2.9361,-2.8978,-2.8573,-2.7893,-2.7328,-2.7025,-2.6776,-2.6687,-2.6658,-2.6626,-2.6195,-2.5801,-2.5684,-2.5527,-2.5527,-2.5527,-2.5547,-2.5547,-2.5605,-2.5625,-2.5625,-2.5644,-2.5684,-2.5703,-2.5664,-2.5684,-2.5703,-2.5703,-2.5703,-2.5703,-2.5703,-2.5703,-2.5703,-2.5703,-2.5703,-2.5703,-5.0752,-4.9838,-5.0019,-5.0214,-5.041,-5.0633,-5.0202,-4.9413,-4.8913,-4.8298,-4.7451,-4.6663,-4.6297,-4.6124,-4.5748,-4.5614,-4.5594,-4.5594,-4.5594,-4.5594,-4.5594,-4.5594,-4.5594,-4.5594,-4.5594,-4.5594,-4.5594,-4.5594,-4.5594,-4.5594,-4.5594,-4.5594,-4.5594,-4.5364,-4.494,-4.447,-4.3921,-4.3113,-4.2643,-4.1816,-4.065,-4.0054,-3.9496,-3.8911,-3.8565,-3.7988,-3.6942,-3.6712,-3.6308,-3.5673,-3.55,-3.55,-3.55,-3.55,-3.55,-3.55,-3.55,-3.5365,-3.4814,-3.4526,-3.3936,-3.3571,-3.2795,-3.2526,-3.2634,-3.2245,-3.1774,-3.1616,-3.1511,-3.0969,-3.0554,-3.0564,-3.0552,-3.0547,-3.0571,-3.0597,-3.0594,-3.0561,-3.0303,-2.9944,-2.9477,-2.9002,-2.8621,-2.8173,-2.7918,-2.7719,-2.7558,-2.7482,-2.7424,-2.6951,-2.6387,-2.614,-2.6021,-2.5751,-2.5729,-2.5693,-2.5554,-2.5535,-2.5554,-2.5567,-2.5586,-2.5625,-2.5605,-2.5586,-2.5605,-2.5664,-2.5703,-2.5703,-2.5703,-2.5703,-2.5703,-2.5703,-2.5703,-2.5703,-2.5703,-5.0096,-4.9382,-4.9543,-4.9657,-4.9758,-4.9857,-4.9426,-4.868,-4.8211,-4.7885,-4.7549,-4.6474,-4.6196,-4.6388,-4.5956,-4.5513,-4.5586,-4.5594,-4.5594,-4.5594,-4.5594,-4.5594,-4.5594,-4.5594,-4.5594,-4.5594,-4.5594,-4.5594,-4.5594,-4.5594,-4.5594,-4.5594,-4.5594,-4.5594,-4.5402,-4.496,-4.4459,-4.4152,-4.3605,-4.247,-4.1181,-4.0554,-4.0227,-3.9631,-3.9554,-3.8815,-3.7623,-3.718,-3.6654,-3.6019,-3.5635,-3.55,-3.55,-3.55,-3.55,-3.55,-3.55,-3.55,-3.5308,-3.4968,-3.4564,-3.441,-3.3622,-3.3353,-3.3372,-3.3308,-3.2814,-3.2141,-3.1922,-3.1588,-3.0987,-3.0751,-3.0666,-3.0476,-3.0513,-3.0544,-3.0533,-3.0516,-3.0486,-3.0139,-2.9776,-2.9398,-2.9004,-2.9208,-2.8999,-2.8466,-2.8282,-2.826,-2.8162,-2.7826,-2.7342,-2.695,-2.6646,-2.6204,-2.6026,-2.5954,-2.5729,-2.5477,-2.5493,-2.5508,-2.5517,-2.5527,-2.5524,-2.5548,-2.5566,-2.5625,-2.5664,-2.5683,-2.5684,-2.5684,-2.5684,-2.5703,-2.5703,-2.5703,-2.5703,-4.9435,-4.8905,-4.8261,-4.8194,-4.8418,-4.7939,-4.7105,-4.6518,-4.7304,-4.7185,-4.6727,-4.6334,-4.6238,-4.6181,-4.5589,-4.5399,-4.5543,-4.5655,-4.5627,-4.556,-4.5673,-4.5748,-4.5671,-4.5594,-4.5787,-4.5806,-4.571,-4.5594,-4.5594,-4.5594,-4.5594,-4.5594,-4.5594,-4.5594,-4.5556,-4.5364,-4.5441,-4.5229,-4.4528,-4.3316,-4.1893,-4.1016,-4.0554,-4.0419,-4.0227,-3.9785,-3.8738,-3.8142,-3.745,-3.6615,-3.5904,-3.5577,-3.55,-3.55,-3.55,-3.55,-3.55,-3.5481,-3.5462,-3.5288,-3.5173,-3.5045,-3.4487,-3.4564,-3.4564,-3.4314,-3.3699,-3.2872,-3.2776,-3.2391,-3.1731,-3.1524,-3.117,-3.0758,-3.0513,-3.0465,-3.0444,-3.0472,-3.0436,-3.0425,-3.0066,-2.9727,-2.9358,-2.9791,-3.0072,-2.9485,-2.9053,-2.9023,-2.8879,-2.8526,-2.8217,-2.781,-2.7336,-2.6895,-2.6493,-2.6384,-2.6231,-2.5792,-2.5663,-2.5651,-2.5722,-2.578,-2.5563,-2.5578,-2.557,-2.5549,-2.5567,-2.5603,-2.5654,-2.5644,-2.5644,-2.5664,-2.5703,-2.5703,-2.5684,-4.8752,-4.8512,-4.7939,-4.778,-4.7871,-4.7335,-4.6601,-4.6123,-4.6809,-4.7062,-4.6645,-4.6196,-4.6026,-4.5874,-4.5596,-4.5594,-4.5727,-4.5861,-4.5695,-4.5601,-4.5879,-4.6269,-4.649,-4.674,-4.6855,-4.624,-4.624,-4.6009,-4.5797,-4.5586,-4.5594,-4.5594,-4.5594,-4.5594,-4.5594,-4.5594,-4.5575,-4.5287,-4.4605,-4.3825,-4.3028,-4.2008,-4.1219,-4.12,-4.0777,-4.0131,-3.9438,-3.9015,-3.8315,-3.7565,-3.7026,-3.6942,-3.6769,-3.6519,-3.6173,-3.6154,-3.5731,-3.5519,-3.5481,-3.5519,-3.55,-3.5462,-3.5161,-3.5115,-3.5346,-3.5135,-3.4545,-3.3718,-3.3641,-3.3218,-3.2429,-3.1962,-3.1577,-3.1154,-3.0596,-3.0462,-3.0404,-3.0404,-3.0396,-3.041,-3.0371,-3.0037,-2.9804,-3.0047,-3.0296,-3.0023,-2.9737,-2.975,-2.9511,-2.9145,-2.887,-2.8615,-2.8119,-2.7619,-2.7205,-2.6935,-2.7027,-2.6693,-2.6326,-2.6296,-2.6193,-2.6126,-2.5858,-2.5561,-2.5414,-2.5421,-2.5488,-2.5531,-2.5559,-2.5567,-2.5566,-2.5606,-2.5635,-2.5644,-2.5644,-4.8324,-4.8252,-4.7752,-4.7556,-4.746,-4.6806,-4.6104,-4.5635,-4.5961,-4.6412,-4.6534,-4.6082,-4.5697,-4.5448,-4.5467,-4.5499,-4.5493,-4.5975,-4.5653,-4.557,-4.5785,-4.6176,-4.6282,-4.6839,-4.6868,-4.6577,-4.6167,-4.5928,-4.5592,-4.54,-4.5362,-4.5577,-4.5594,-4.5594,-4.5594,-4.5594,-4.5594,-4.5518,-4.4594,-4.407,-4.3719,-4.2514,-4.1873,-4.1509,-4.1083,-4.0439,-3.9746,-3.9611,-3.9181,-3.8488,-3.7969,-3.7777,-3.77,-3.7315,-3.7065,-3.6928,-3.6507,-3.6197,-3.6036,-3.5847,-3.557,-3.55,-3.55,-3.5404,-3.5442,-3.5481,-3.5327,-3.4564,-3.4526,-3.3949,-3.3083,-3.2314,-3.1769,-3.1269,-3.0712,-3.0538,-3.0404,-3.0404,-3.0404,-3.0404,-3.0404,-3.0404,-3.0254,-3.0319,-3.0383,-3.0396,-3.0404,-3.0404,-3.0096,-2.9679,-2.9563,-2.9352,-2.9179,-2.864,-2.8107,-2.7813,-2.7794,-2.7582,-2.7217,-2.6823,-2.6665,-2.6415,-2.6125,-2.5779,-2.5404,-2.5326,-2.5398,-2.5441,-2.5495,-2.5526,-2.5549,-2.5549,-2.5558,-2.5585,-2.5605,-4.8324,-4.8233,-4.7481,-4.7169,-4.7059,-4.5496,-4.4887,-4.4841,-4.4538,-4.5088,-4.5885,-4.584,-4.5212,-4.4673,-4.5046,-4.5196,-4.4823,-4.5504,-4.5347,-4.4977,-4.4777,-4.5261,-4.5586,-4.5791,-4.5769,-4.5755,-4.5741,-4.5491,-4.5113,-4.4931,-4.514,-4.5504,-4.5466,-4.554,-4.5594,-4.5594,-4.5594,-4.546,-4.4786,-4.4258,-4.3771,-4.2794,-4.192,-4.1628,-4.1566,-4.1316,-4.0508,-4.0407,-4.0154,-3.9365,-3.8738,-3.8335,-3.8339,-3.8013,-3.7851,-3.7713,-3.7271,-3.7009,-3.6891,-3.6163,-3.5575,-3.55,-3.55,-3.55,-3.55,-3.55,-3.5404,-3.5295,-3.5154,-3.4584,-3.3603,-3.2737,-3.2295,-3.1558,-3.1077,-3.0692,-3.0538,-3.0404,-3.0404,-3.0404,-3.0404,-3.0404,-3.0404,-3.0404,-3.0404,-3.0404,-3.0404,-3.0404,-3.0404,-3.0115,-3.0173,-3.0135,-3.0173,-2.9769,-2.9146,-2.8838,-2.8544,-2.8352,-2.8082,-2.7505,-2.7016,-2.6736,-2.6621,-2.5904,-2.5519,-2.5414,-2.5313,-2.5356,-2.5421,-2.5488,-2.551,-2.549,-2.5506,-2.5529,-2.5552,-4.8324,-4.8288,-4.7957,-4.7553,-4.7021,-4.592,-4.5168,-4.4818,-4.5031,-4.5077,-4.5158,-4.529,-4.5053,-4.4764,-4.5227,-4.5552,-4.5472,-4.5895,-4.5559,-4.5312,-4.5208,-4.5375,-4.5653,-4.5829,-4.6182,-4.5765,-4.5525,-4.5179,-4.4814,-4.4599,-4.4695,-4.4977,-4.5161,-4.5429,-4.5513,-4.5531,-4.554,-4.551,-4.5288,-4.4976,-4.469,-4.3761,-4.2976,-4.2867,-4.1987,-4.1959,-4.1657,-4.1217,-4.0991,-4.0587,-3.9861,-3.9451,-3.9033,-3.8729,-3.8529,-3.8388,-3.7842,-3.7536,-3.7414,-3.6596,-3.589,-3.5525,-3.55,-3.55,-3.5493,-3.55,-3.55,-3.5481,-3.55,-3.4923,-3.4731,-3.3987,-3.3276,-3.2275,-3.1558,-3.1115,-3.0769,-3.0635,-3.0423,-3.0442,-3.0423,-3.0404,-3.0404,-3.0404,-3.0404,-3.0404,-3.0404,-3.0404,-3.0404,-3.0404,-3.0404,-3.0404,-3.0404,-3.0404,-2.9794,-2.9467,-2.9198,-2.9063,-2.8909,-2.8371,-2.7813,-2.7525,-2.7255,-2.6428,-2.5654,-2.5486,-2.5385,-2.5336,-2.5354,-2.5402,-2.5413,-2.5391,-2.5415,-2.5471,-2.5506,-4.8324,-4.8324,-4.8324,-4.7975,-4.7369,-4.6599,-4.5773,-4.5204,-4.5333,-4.5094,-4.4378,-4.4544,-4.4525,-4.4635,-4.5442,-4.5387,-4.5346,-4.5646,-4.5395,-4.5058,-4.4785,-4.5148,-4.5439,-4.5603,-4.5526,-4.545,-4.525,-4.4847,-4.4438,-4.4341,-4.435,-4.4455,-4.4651,-4.4924,-4.5182,-4.5293,-4.5293,-4.5312,-4.5312,-4.5184,-4.4936,-4.4124,-4.3467,-4.3334,-4.2659,-4.2314,-4.2422,-4.2267,-4.2016,-4.1418,-4.075,-4.032,-3.987,-3.9438,-3.9115,-3.8727,-3.8315,-3.7819,-3.7667,-3.6825,-3.6127,-3.5836,-3.5431,-3.5448,-3.546,-3.55,-3.55,-3.55,-3.55,-3.5423,-3.5269,-3.4353,-3.3641,-3.266,-3.2391,-3.1948,-3.1308,-3.1,-3.0692,-3.0481,-3.0462,-3.0519,-3.0885,-3.0904,-3.0577,-3.0519,-3.0404,-3.0404,-3.0404,-3.0404,-3.0404,-3.0404,-3.0404,-3.0404,-3.0346,-3.0,-2.9737,-2.9788,-2.9602,-2.9275,-2.8838,-2.8472,-2.7698,-2.6678,-2.6,-2.5635,-2.5433,-2.5351,-2.5327,-2.5308,-2.5312,-2.5348,-2.5337,-2.5391,-2.5425,-4.8324,-4.8324,-4.8324,-4.8288,-4.8104,-4.7424,-4.6617,-4.5681,-4.5002,-4.4323,-4.3699,-4.3663,-4.3663,-4.3956,-4.5131,-4.5094,-4.4544,-4.5258,-4.5257,-4.4423,-4.4064,-4.3973,-4.415,-4.4434,-4.4617,-4.4537,-4.4533,-4.4389,-4.4016,-4.4024,-4.3984,-4.3958,-4.4136,-4.4332,-4.4606,-4.4631,-4.4631,-4.4663,-4.4682,-4.4535,-4.4259,-4.3792,-4.3415,-4.3211,-4.3079,-4.28,-4.2787,-4.3295,-4.2863,-4.1719,-4.1204,-4.0617,-3.9849,-3.9712,-3.9524,-3.935,-3.9089,-3.8915,-3.8872,-3.7054,-3.6295,-3.6091,-3.5645,-3.543,-3.5482,-3.5493,-3.55,-3.55,-3.55,-3.5141,-3.468,-3.4263,-3.3814,-3.341,-3.3141,-3.2776,-3.216,-3.1846,-3.1635,-3.1115,-3.0788,-3.0731,-3.1275,-3.1487,-3.0981,-3.0712,-3.0481,-3.0404,-3.0423,-3.0404,-3.0404,-3.0404,-3.0404,-3.0404,-3.0404,-3.0404,-3.0308,-3.0385,-3.0231,-2.9852,-2.9473,-2.9011,-2.8121,-2.7005,-2.6404,-2.6058,-2.5673,-2.5327,-2.5308,-2.5308,-2.5308,-2.5308,-2.5308,-2.5307,-2.5367,-4.8324,-4.8324,-4.8324,-4.8324,-4.8269,-4.8012,-4.7168,-4.5792,-4.4562,-4.3754,-4.3534,-4.3479,-4.3479,-4.3864,-4.4507,-4.4837,-4.4544,-4.4562,-4.4635,-4.4966,-4.4011,-4.4044,-4.4142,-4.3913,-4.3775,-4.3973,-4.4064,-4.4046,-4.3697,-4.3861,-4.386,-4.3812,-4.3775,-4.4035,-4.4447,-4.4593,-4.4593,-4.4593,-4.4593,-4.454,-4.4336,-4.3947,-4.3654,-4.3524,-4.3435,-4.3278,-4.3118,-4.376,-4.3069,-4.2214,-4.1838,-4.106,-4.0263,-4.0042,-3.9812,-3.9429,-3.9022,-3.8826,-3.8604,-3.759,-3.6708,-3.6284,-3.597,-3.5661,-3.5376,-3.5444,-3.546,-3.5538,-3.5589,-3.5346,-3.5161,-3.5084,-3.4757,-3.4257,-3.393,-3.3622,-3.3212,-3.3135,-3.2904,-3.2115,-3.1596,-3.15,-3.1795,-3.1795,-3.1365,-3.1,-3.0788,-3.0577,-3.0538,-3.0481,-3.0442,-3.0404,-3.0404,-3.0404,-3.0423,-3.0596,-3.05,-3.0385,-3.0385,-3.025,-2.9871,-2.9492,-2.8953,-2.8082,-2.7255,-2.65,-2.5962,-2.5519,-2.5346,-2.5308,-2.5308,-2.5308,-2.5293,-2.5298,-2.5317,-4.8324,-4.8324,-4.8324,-4.8324,-4.8324,-4.8324,-4.7388,-4.5792,-4.4249,-4.3479,-4.3479,-4.3479,-4.3479,-4.3809,-4.4562,-4.458,-4.4433,-4.4966,-4.458,-4.5057,-4.4048,-4.3862,-4.3863,-4.3809,-4.3601,-4.3663,-4.3883,-4.3937,-4.3567,-4.401,-4.3919,-4.3605,-4.3496,-4.3761,-4.408,-4.4154,-4.415,-4.4121,-4.411,-4.414,-4.4031,-4.3918,-4.3781,-4.3703,-4.3638,-4.3539,-4.359,-4.3386,-4.3002,-4.2851,-4.2361,-4.1623,-4.0874,-4.0263,-4.0096,-3.9716,-3.9364,-3.9071,-3.8609,-3.8349,-3.7456,-3.669,-3.6534,-3.6232,-3.5922,-3.6224,-3.6036,-3.5967,-3.5866,-3.571,-3.5621,-3.5621,-3.5365,-3.4853,-3.4699,-3.4385,-3.3968,-3.3853,-3.3532,-3.2763,-3.2257,-3.2225,-3.2206,-3.1962,-3.1712,-3.1404,-3.1096,-3.0975,-3.0917,-3.0981,-3.1019,-3.1058,-3.1077,-3.1212,-3.1154,-3.1019,-3.0827,-3.0462,-3.043,-3.0476,-3.0308,-2.9929,-2.9544,-2.9083,-2.8044,-2.7063,-2.6192,-2.5712,-2.5481,-2.5346,-2.5308,-2.5308,-2.5308,-2.5308,-2.5308,-4.8324,-4.8324,-4.8324,-4.8324,-4.8306,-4.8141,-4.7223,-4.5792,-4.425,-4.3552,-4.3479,-4.3552,-4.3589,-4.3828,-4.5076,-4.4966,-4.425,-4.5223,-4.5076,-4.4323,-4.4011,-4.3901,-4.3809,-4.3681,-4.3516,-4.3497,-4.3681,-4.392,-4.357,-4.3663,-4.3608,-4.3515,-4.3479,-4.3597,-4.3664,-4.3679,-4.3679,-4.3728,-4.3728,-4.3726,-4.3677,-4.3614,-4.358,-4.3563,-4.3531,-4.3513,-4.3525,-4.3415,-4.3067,-4.2769,-4.2406,-4.1858,-4.1201,-4.0412,-4.0634,-4.0543,-4.0118,-3.9478,-3.8817,-3.8542,-3.8264,-3.7488,-3.7135,-3.7019,-3.6881,-3.6861,-3.6701,-3.6551,-3.6455,-3.6128,-3.5907,-3.5806,-3.5673,-3.55,-3.5404,-3.5,-3.4487,-3.4154,-3.3814,-3.3288,-3.2799,-3.2644,-3.273,-3.2522,-3.206,-3.2134,-3.1967,-3.207,-3.2045,-3.2154,-3.2212,-3.2256,-3.2275,-3.2256,-3.2102,-3.1769,-3.1327,-3.1019,-3.0676,-3.0625,-3.0464,-3.0253,-2.9838,-2.9282,-2.8527,-2.7601,-2.6519,-2.5865,-2.5519,-2.5404,-2.5327,-2.5308,-2.5308,-2.5308,-2.5308,-4.8324,-4.8324,-4.8324,-4.8324,-4.8141,-4.7095,-4.6305,-4.5755,-4.4782,-4.4085,-4.3533,-4.4103,-4.3938,-4.3662,-4.458,-4.4635,-4.4874,-4.5333,-4.5975,-4.5516,-4.4562,-4.48,-4.458,-4.403,-4.3663,-4.3681,-4.3864,-4.3901,-4.3571,-4.3479,-4.3479,-4.3479,-4.3479,-4.3479,-4.3479,-4.3479,-4.3516,-4.3534,-4.3552,-4.3479,-4.3479,-4.3479,-4.3479,-4.3479,-4.3479,-4.3479,-4.3479,-4.3479,-4.324,-4.3167,-4.3112,-4.2745,-4.1992,-4.1662,-4.1589,-4.0267,-3.99,-3.9551,-3.8872,-3.8707,-3.8579,-3.8358,-3.8092,-3.7498,-3.7237,-3.7126,-3.7238,-3.7106,-3.7091,-3.6856,-3.6561,-3.6383,-3.6155,-3.5967,-3.5776,-3.5315,-3.4863,-3.4625,-3.4277,-3.3773,-3.326,-3.3146,-3.3225,-3.2727,-3.2376,-3.2641,-3.2837,-3.2932,-3.3111,-3.3194,-3.3262,-3.33,-3.3158,-3.3034,-3.284,-3.2532,-3.2038,-3.159,-3.1194,-3.0731,-3.0383,-3.0147,-2.9989,-2.9499,-2.8778,-2.7764,-2.6635,-2.6231,-2.6135,-2.5519,-2.5346,-2.5327,-2.5308,-2.5327,-2.5327,-4.7847,-4.7773,-4.748,-4.7535,-4.759,-4.6452,-4.6049,-4.6085,-4.4874,-4.392,-4.3589,-4.3975,-4.3956,-4.3681,-4.4305,-4.4526,-4.4268,-4.5278,-4.5736,-4.4911,-4.5076,-4.4745,-4.4452,-4.4103,-4.3626,-4.3718,-4.3846,-4.3828,-4.3571,-4.3479,-4.3479,-4.3479,-4.3479,-4.3479,-4.3479,-4.3516,-4.3736,-4.3773,-4.3736,-4.3552,-4.3497,-4.3497,-4.3479,-4.3479,-4.3479,-4.3479,-4.3479,-4.3479,-4.3479,-4.3479,-4.3479,-4.3296,-4.2782,-4.2708,-4.2011,-4.091,-4.0836,-4.0249,-3.9533,-3.9239,-3.9019,-3.8799,-3.8726,-3.828,-3.8012,-3.794,-3.7766,-3.7587,-3.7673,-3.7659,-3.7357,-3.7043,-3.6697,-3.6387,-3.5967,-3.5528,-3.5318,-3.5166,-3.4727,-3.4204,-3.3913,-3.3734,-3.343,-3.2891,-3.2826,-3.3355,-3.3578,-3.354,-3.3817,-3.4077,-3.4133,-3.4182,-3.3926,-3.3696,-3.347,-3.3208,-3.2675,-3.2091,-3.1477,-3.1008,-3.0453,-2.9961,-2.9695,-2.941,-2.9037,-2.8052,-2.7119,-2.7094,-2.6928,-2.6254,-2.5753,-2.5845,-2.5754,-2.5481,-2.5423,-4.7113,-4.7058,-4.6232,-4.6342,-4.6746,-4.6049,-4.6085,-4.6544,-4.4433,-4.357,-4.3643,-4.3753,-4.3791,-4.3736,-4.4323,-4.436,-4.4488,-4.5259,-4.5406,-4.3808,-4.4525,-4.4562,-4.4121,-4.3551,-4.3497,-4.3479,-4.3534,-4.3663,-4.3552,-4.3479,-4.3479,-4.3479,-4.3479,-4.3479,-4.3479,-4.3479,-4.3699,-4.3975,-4.3791,-4.3552,-4.3626,-4.3589,-4.3479,-4.3479,-4.3479,-4.3479,-4.3479,-4.3479,-4.3479,-4.3479,-4.3479,-4.3478,-4.3423,-4.3332,-4.2451,-4.1901,-4.1717,-4.1001,-4.0267,-3.99,-3.957,-3.9221,-3.8799,-3.883,-3.8792,-3.8511,-3.8265,-3.8135,-3.8178,-3.8195,-3.7954,-3.7629,-3.7287,-3.6928,-3.6529,-3.6131,-3.5865,-3.5552,-3.5045,-3.4555,-3.4186,-3.4005,-3.384,-3.3366,-3.3309,-3.4016,-3.4163,-3.404,-3.4148,-3.4519,-3.463,-3.4663,-3.4456,-3.4154,-3.4116,-3.3783,-3.3258,-3.2654,-3.1876,-3.0989,-3.0251,-2.9773,-2.9405,-2.9315,-2.9217,-2.8562,-2.7889,-2.7797,-2.7497,-2.6871,-2.6514,-2.6557,-2.631,-2.5838,-2.5788,-4.7094,-4.7021,-4.6232,-4.57,-4.5296,-4.5076,-4.4764,-4.4342,-4.3809,-4.3883,-4.4433,-4.4874,-4.4544,-4.3699,-4.436,-4.4507,-4.4709,-4.5406,-4.559,-4.5057,-4.4966,-4.458,-4.4232,-4.3681,-4.3534,-4.3479,-4.3479,-4.3479,-4.3479,-4.3479,-4.3479,-4.3479,-4.3479,-4.3479,-4.3479,-4.3479,-4.3663,-4.4066,-4.3754,-4.3828,-4.4213,-4.3773,-4.3479,-4.3479,-4.3479,-4.3479,-4.3479,-4.3479,-4.3479,-4.3479,-4.3479,-4.3479,-4.3479,-4.3479,-4.3002,-4.2304,-4.2213,-4.157,-4.091,-4.0579,-4.0469,-4.0065,-3.9753,-3.9662,-3.947,-3.9053,-3.8778,-3.8677,-3.8605,-3.8596,-3.8496,-3.8176,-3.7818,-3.7442,-3.7077,-3.6727,-3.6351,-3.5807,-3.5287,-3.4901,-3.4463,-3.4266,-3.413,-3.408,-3.403,-3.4076,-3.4157,-3.4136,-3.4117,-3.4322,-3.444,-3.4504,-3.4641,-3.449,-3.449,-3.4215,-3.3611,-3.2845,-3.2006,-3.1054,-3.0045,-2.9614,-2.9297,-2.9502,-2.9397,-2.8839,-2.845,-2.8304,-2.7934,-2.7388,-2.7132,-2.7128,-2.6632,-2.6129,-2.6228,-4.603,-4.5938,-4.5168,-4.48,-4.4727,-4.4709,-4.4635,-4.4562,-4.4562,-4.4599,-4.4636,-4.4745,-4.4322,-4.3662,-4.436,-4.4672,-4.4911,-4.5957,-4.57,-4.5388,-4.5223,-4.4745,-4.4268,-4.3754,-4.3589,-4.3479,-4.3479,-4.3479,-4.3479,-4.3479,-4.3479,-4.3479,-4.3479,-4.3479,-4.3479,-4.3497,-4.3663,-4.4048,-4.3717,-4.3975,-4.4525,-4.3975,-4.3516,-4.3479,-4.3479,-4.3479,-4.3479,-4.3479,-4.3479,-4.3479,-4.3479,-4.3479,-4.3479,-4.3479,-4.3296,-4.2983,-4.2708,-4.2286,-4.1534,-4.1277,-4.1423,-4.1056,-4.0598,-4.0469,-3.9808,-3.9393,-3.9044,-3.8932,-3.8711,-3.8668,-3.8664,-3.8405,-3.7986,-3.761,-3.7257,-3.6891,-3.6166,-3.5378,-3.5116,-3.5016,-3.4721,-3.4671,-3.4571,-3.4584,-3.4434,-3.3911,-3.4018,-3.4173,-3.4154,-3.4247,-3.4332,-3.4321,-3.4443,-3.4609,-3.4622,-3.4315,-3.3859,-3.3034,-3.2099,-3.0921,-2.9848,-2.9479,-2.9241,-2.9339,-2.942,-2.9308,-2.8998,-2.8772,-2.8483,-2.8004,-2.779,-2.7642,-2.7069,-2.647,-2.6357,-4.4709,-4.4452,-4.3809,-4.3883,-4.4525,-4.4672,-4.4966,-4.5424,-4.5626,-4.5204,-4.447,-4.3828,-4.3516,-4.3754,-4.4158,-4.4415,-4.4782,-4.5314,-4.5241,-4.5076,-4.5333,-4.4635,-4.4066,-4.3663,-4.3644,-4.3552,-4.3479,-4.3479,-4.3479,-4.3479,-4.3479,-4.3479,-4.3479,-4.3479,-4.3479,-4.3552,-4.3718,-4.403,-4.4011,-4.4048,-4.403,-4.3901,-4.3608,-4.3479,-4.3479,-4.3479,-4.3479,-4.3479,-4.3479,-4.3479,-4.3479,-4.3479,-4.3479,-4.3479,-4.3479,-4.3314,-4.3277,-4.2818,-4.2376,-4.2286,-4.2268,-4.2029,-4.1535,-4.0985,-4.0377,-3.9955,-3.9625,-3.9313,-3.9108,-3.8756,-3.8735,-3.8606,-3.8198,-3.7919,-3.757,-3.7279,-3.6364,-3.5505,-3.5432,-3.5381,-3.5275,-3.5224,-3.5151,-3.5151,-3.4839,-3.4266,-3.4064,-3.41,-3.4233,-3.4386,-3.4515,-3.4319,-3.4209,-3.4398,-3.4513,-3.4289,-3.3848,-3.2994,-3.1985,-3.0734,-2.9713,-2.9314,-2.9082,-2.9071,-2.9126,-2.919,-2.9272,-2.9134,-2.883,-2.8481,-2.8506,-2.8281,-2.7561,-2.6977,-2.6429,-4.4305,-4.3699,-4.3534,-4.3625,-4.3828,-4.4415,-4.4452,-4.4103,-4.4709,-4.447,-4.3938,-4.3663,-4.3479,-4.3479,-4.3608,-4.3846,-4.4213,-4.4745,-4.4342,-4.3883,-4.4911,-4.4378,-4.3901,-4.3883,-4.3938,-4.3718,-4.3479,-4.3479,-4.3479,-4.3479,-4.3479,-4.3479,-4.3479,-4.3479,-4.3479,-4.3534,-4.3589,-4.3883,-4.4232,-4.4305,-4.3754,-4.3626,-4.3552,-4.3479,-4.3479,-4.3479,-4.3479,-4.3479,-4.3479,-4.3479,-4.3479,-4.3479,-4.3479,-4.3479,-4.3479,-4.3479,-4.3479,-4.3332,-4.3056,-4.3037,-4.2928,-4.2928,-4.2451,-4.1974,-4.146,-4.1038,-4.0689,-4.0304,-3.9882,-3.9016,-3.8833,-3.8723,-3.8444,-3.8444,-3.8227,-3.8117,-3.7658,-3.7088,-3.6758,-3.6556,-3.6336,-3.6193,-3.6028,-3.6009,-3.5954,-3.5532,-3.5422,-3.544,-3.5312,-3.5092,-3.4784,-3.4472,-3.4215,-3.3935,-3.3985,-3.4043,-3.364,-3.2815,-3.1937,-3.0808,-2.9883,-2.9205,-2.9017,-2.923,-2.909,-2.9045,-2.913,-2.9228,-2.9084,-2.8825,-2.9114,-2.8958,-2.8154,-2.7475,-2.6915]},{"header":{"parameterUnit":"m.s-1","parameterCategory":1,"la1":31.0,"la2":29.5877,"lo1":-88.7671,"lo2":-86.6584,"dy":0.0162,"dx":0.0185,"nx":115,"ny":88,"refTime":"2024-04-25T12:00:00:Z","depth":0,"parameterNumber":3,"parameterNumberName":"V-component_of_WINDS"},"data":[0.0,0.0,0.0,0.0,0.0,0.0,0.0,0.0,0.0,0.0,0.0,0.0,0.0,0.0,0.0,0.0,0.0,0.0,0.0,0.0,0.0,0.0,0.0,0.0,0.0,0.0,0.0,0.0,0.0,0.0,0.0,0.0,0.0,0.0,0.0,0.0,0.0,0.0,0.0,0.0,0.0,0.0,0.0,0.0,0.0,0.0,0.0,0.0,0.0,0.0,0.0,0.0,0.0,0.0,0.0,0.0,0.0,0.0,0.0,0.0,0.0,0.0,0.0,0.0,0.0,0.0,0.0,0.0,0.0,0.0,0.0,0.0,0.0,0.0,0.0,0.0,0.0,0.0,0.0,0.0,0.0,0.0,0.0,0.0,0.0,0.0,0.0,0.0,0.0,0.0,0.0,0.0,0.0,0.0,0.0,0.0,0.0,0.0,0.0,0.0,0.0,0.0,0.0,0.0,0.0,0.0,0.0,0.0,0.0,0.0,0.0,0.0,0.0,0.0,0.0,0.0,0.0,0.0,0.0,0.0,0.0,0.0,0.0,0.0,0.0,0.0,0.0,0.0,0.0,0.0,0.0,0.0,0.0,0.0,0.0,0.0,0.0,0.0,0.0,0.0,0.0,0.0,0.0,0.0,0.0,0.0,0.0,0.0,0.0,0.0,0.0,0.0,0.0,0.0,0.0,0.0,0.0,0.0,0.0,0.0,0.0,0.0,0.0,0.0,0.0,0.0,0.0,0.0,0.0,0.0,0.0,0.0,0.0,0.0,0.0,0.0,0.0,0.0,0.0,0.0,0.0,0.0,0.0,0.0,0.0,0.0,0.0,0.0,0.0,0.0,0.0,0.0,0.0,0.0,0.0,0.0,0.0,0.0,0.0,0.0,0.0,0.0,0.0,0.0,0.0,0.0,0.0,0.0,0.0,0.0,0.0,0.0,0.0,0.0,0.0,0.0,0.0,0.0,0.0,0.0,0.0,0.0,0.0,0.0,0.0,0.0,0.0,0.0,0.0,0.0,0.0,0.0,0.0,0.0,0.0,0.0,0.0,0.0,0.0,0.0,0.0,0.0,0.0,0.0,0.0,0.0,0.0,0.0,0.0,0.0,0.0,0.0,0.0,0.0,0.0,0.0,0.0,0.0,0.0,0.0,0.0,0.0,0.0,0.0,0.0,0.0,0.0,0.0,0.0,0.0,0.0,0.0,0.0,0.0,0.0,0.0,0.0,0.0,0.0,0.0,0.0,0.0,0.0,0.0,0.0,0.0,0.0,0.0,0.0,0.0,0.0,0.0,0.0,0.0,0.0,0.0,0.0,0.0,0.0,0.0,0.0,0.0,0.0,0.0,0.0,0.0,0.0,0.0,0.0,0.0,0.0,0.0,0.0,0.0,0.0,0.0,0.0,0.0,0.0,0.0,0.0,0.0,0.0,0.0,0.0,0.0,0.0,0.0,0.0,0.0,0.0,0.0,0.0,0.0,0.0,0.0,0.0,0.0,0.0,0.0,0.0,0.0,0.0,0.0,0.0,0.0,0.0,0.0,0.0,0.0,0.0,0.0,0.0,0.0,0.0,0.0,0.0,0.0,0.0,0.0,0.0,0.0,0.0,0.0,0.0,0.0,0.0,0.0,0.0,0.0,0.0,0.0,0.0,0.0,0.0,0.0,0.0,0.0,0.0,0.0,0.0,0.0,0.0,0.0,0.0,0.0,0.0,0.0,0.0,0.0,0.0,0.0,0.0,0.0,0.0,0.0,0.0,0.0,0.0,0.0,0.0,0.0,0.0,0.0,0.0,0.0,0.0,0.0,0.0,0.0,0.0,0.0,0.0,0.0,0.0,0.0,0.0,0.0,0.0,0.0,0.0,0.0,0.0,0.0,0.0,0.0,0.0,0.0,0.0,0.0,0.0,0.0,0.0,0.0,0.0,0.0,0.0,0.0,0.0,0.0,0.0,0.0,0.0,0.0,0.0,0.0,0.0,0.0,0.0,0.0,0.0,0.0,0.0,0.0,0.0,0.0,0.0,0.0,0.0,0.0,0.0,0.0,0.0,0.0,0.0,0.0,0.0,0.0,0.0,0.0,0.0,0.0,0.0,0.0,0.0,0.0,0.0,0.0,0.0,0.0,0.0,0.0,0.0,0.0,0.0,0.0,0.0,0.0,0.0,0.0,0.0,0.0,0.0,0.0,0.0,0.0,0.0,0.0,0.0,0.0,0.0,0.0,0.0,0.0,0.0,0.0,0.0,0.0,0.0,0.0,0.0,0.0,0.0,0.0,0.0,0.0,0.0,0.0,0.0,0.0,0.0,0.0,0.0,0.0,0.0,0.0,0.0,0.0,0.0,0.0,0.0,0.0,0.0,0.0,0.0,0.0,0.0,0.0,0.0,0.0,0.0,0.0,0.0,0.0,0.0,0.0,0.0,0.0,0.0,0.0,0.0,0.0,0.0,0.0,0.0,0.0,0.0,0.0,0.0,0.0,0.0,0.0,0.0,0.0,0.0,0.0,0.0,0.0,0.0,0.0,0.0,0.0,0.0,0.0,0.0,0.0,0.0,0.0,0.0,0.0,0.0,0.0,0.0,0.0,0.0,0.0,0.0,0.0,0.0,0.0,0.0,0.0,0.0,0.0,0.0,0.0,0.0,0.0,0.0,0.0,0.0,0.0,0.0,0.0,0.0,0.0,0.0,0.0,0.0,0.0,0.0,0.0,0.0,0.0,0.0,0.0,0.0,0.0,0.0,0.0,0.0,0.0,0.0,0.0,0.0,0.0,0.0,0.0,0.0,0.0,0.0,0.0,0.0,0.0,0.0,0.0,0.0,0.0,0.0,0.0,0.0,0.0,0.0,0.0,0.0,0.0,0.0,0.0,0.0,0.0,0.0,0.0,0.0,0.0,0.0,0.0,0.0,0.0,0.0,0.0,0.0,0.0,0.0,0.0,0.0,0.0,0.0,0.0,0.0,0.0,0.0,0.0,0.0,0.0,0.0,0.0,0.0,0.0,0.0,0.0,0.0,0.0,0.0,0.0,0.0,0.0,0.0,0.0,0.0,0.0,0.0,0.0,0.0,0.0,0.0,0.0,0.0,0.0,0.0,0.0,0.0,0.0,0.0,0.0,0.0,0.0,0.0,0.0,0.0,0.0,0.0,0.0,0.0,0.0,0.0,0.0,0.0,0.0,0.0,0.0,0.0,0.0,0.0,0.0,0.0,0.0,0.0,0.0,0.0,0.0,0.0,0.0,0.0,0.0,0.0,0.0,0.0,0.0,0.0,0.0,0.0,0.0,0.0,0.0,0.0,0.0,0.0,0.0,0.0,0.0,0.0,0.0,0.0,0.0,0.0,0.0,0.0,0.0,0.0,0.0,0.0,0.0,0.0,0.0,0.0,0.0,0.0,0.0,0.0,0.0,0.0,0.0,0.0,0.0,0.0,0.0,0.0,0.0,0.0,0.0,0.0,0.0,0.0,0.0,0.0,0.0,0.0,0.0,0.0,0.0,0.0,0.0,0.0,0.0,0.0,0.0,0.0,0.0,0.0,0.0,0.0,0.0,0.0,0.0,0.0,0.0,0.0,0.0,0.0,0.0,0.0,0.0,0.0,0.0,0.0,0.0,0.0,0.0,0.0,0.0,0.0,0.0,0.0,0.0,0.0,0.0,0.0,0.0,0.0,0.0,0.0,0.0,0.0,0.0,0.0,0.0,0.0,0.0,0.0,0.0,0.0,0.0,0.0,0.0,0.0,0.0,0.0,0.0,0.0,0.0,0.0,0.0,0.0,0.0,0.0,0.0,0.0,0.0,0.0,0.0,0.0,0.0,0.0,0.0,0.0,0.0,0.0,0.0,0.0,0.0,0.0,0.0,0.0,0.0,0.0,0.0,0.0,0.0,0.0,0.0,0.0,0.0,0.0,0.0,0.0,0.0,0.0,0.0,0.0,0.0,0.0,0.0,0.0,0.0,0.0,0.0,0.0,0.0,0.0,0.0,0.0,0.0,0.0,0.0,0.0,0.0,0.0,0.0,0.0,0.0,0.0,0.0,0.0,0.0,0.0,0.0,0.0,0.0,0.0,0.0,0.0,0.0,0.0,0.0,0.0,0.0,0.0,0.0,0.0,0.0,0.0,0.0,0.0,0.0,0.0,0.0,0.0,0.0,0.0,0.0,0.0,0.0,0.0,0.0,0.0,0.0,0.0,0.0,0.0,0.0,0.0,0.0,0.0,0.0,0.0,0.0,0.0,0.0,0.0,0.0,0.0,0.0,0.0,0.0,0.0,0.0,-0.5271,0.0,0.0,0.0,0.0,0.0,0.0,0.0,0.0,0.0,0.0,0.0,0.0,0.0,0.0,0.0,0.0,0.0,0.0,0.0,0.0,0.0,0.0,0.0,0.0,0.0,0.0,0.0,0.0,0.0,0.0,0.0,0.0,0.0,0.0,0.0,0.0,0.0,0.0,0.0,0.0,0.0,0.0,0.0,0.0,0.0,0.0,0.0,0.0,0.0,0.0,0.0,0.0,0.0,0.0,0.0,0.0,0.0,0.0,0.0,0.0,0.0,0.0,0.0,0.0,0.0,0.0,0.0,0.0,0.0,0.0,0.0,0.0,0.0,0.0,0.0,0.0,0.0,0.0,0.0,0.0,0.0,0.0,0.0,0.0,0.0,0.0,0.0,0.0,0.0,0.0,0.0,0.0,0.0,0.0,0.0,0.0,0.0,0.0,0.0,0.0,0.0,0.0,0.0,0.0,0.0,0.0,0.0,0.0,0.0,0.0,-0.5979,-0.6513,-0.545,-0.4998,-0.5274,0.0,0.0,0.0,0.0,0.0,0.0,0.0,0.0,0.0,0.0,0.0,0.0,0.0,0.0,0.0,0.0,0.0,0.0,0.0,0.0,0.0,0.0,0.0,0.0,0.0,0.0,0.0,0.0,0.0,0.0,0.0,0.0,0.0,0.0,0.0,0.0,0.0,0.0,0.0,0.0,0.0,0.0,0.0,0.0,0.0,0.0,0.0,0.0,0.0,0.0,0.0,0.0,0.0,0.0,0.0,0.0,0.0,0.0,0.0,0.0,0.0,0.0,0.0,0.0,0.0,0.0,0.0,0.0,0.0,0.0,0.0,0.0,0.0,0.0,0.0,0.0,0.0,0.0,0.0,0.0,0.0,0.0,0.0,0.0,0.0,0.0,0.0,0.0,0.0,0.0,0.0,0.0,0.0,0.0,0.0,0.0,0.0,0.0,0.0,0.0,0.0,0.0,0.0,0.0,0.0,0.0,0.0,0.0,0.0,0.0,0.0,0.0,-0.503,-0.4565,-0.5152,0.0,0.0,0.0,0.0,0.0,0.0,0.0,0.0,0.0,0.0,0.0,0.0,0.0,0.0,0.0,0.0,0.0,0.0,0.0,0.0,0.0,0.0,0.0,0.0,0.0,0.0,0.0,0.0,0.0,0.0,0.0,0.0,0.0,0.0,0.0,0.0,0.0,0.0,0.0,0.0,0.0,0.0,0.0,0.0,0.0,0.0,0.0,0.0,0.0,0.0,0.0,0.0,0.0,0.0,0.0,0.0,0.0,0.0,0.0,0.0,0.0,0.0,0.0,0.0,0.0,0.0,0.0,0.0,0.0,0.0,0.0,0.0,0.0,0.0,0.0,0.0,0.0,0.0,0.0,0.0,0.0,0.0,0.0,0.0,0.0,0.0,0.0,0.0,0.0,0.0,0.0,0.0,0.0,0.0,0.0,0.0,0.0,0.0,0.0,0.0,0.0,0.0,0.0,0.0,0.0,0.0,0.0,0.0,0.0,0.0,-0.5933,-0.7139,-0.6405,0.0,-0.4982,0.0,0.0,0.0,0.0,0.0,0.0,0.0,0.0,0.0,0.0,0.0,0.0,0.0,0.0,0.0,0.0,0.0,0.0,0.0,0.0,0.0,0.0,0.0,0.0,0.0,0.0,0.0,0.0,0.0,0.0,0.0,0.0,0.0,0.0,0.0,0.0,0.0,0.0,0.0,0.0,0.0,0.0,0.0,0.0,0.0,0.0,0.0,0.0,0.0,0.0,0.0,0.0,0.0,0.0,0.0,0.0,0.0,0.0,0.0,0.0,0.0,0.0,0.0,0.0,0.0,0.0,0.0,0.0,0.0,0.0,0.0,0.0,0.0,0.0,0.0,0.0,0.0,0.0,0.0,0.0,0.0,0.0,0.0,0.0,0.0,0.0,0.0,0.0,0.0,0.0,0.0,0.0,0.0,0.0,0.0,0.0,0.0,0.0,0.0,0.0,0.0,0.0,0.0,0.0,0.0,0.0,0.0,0.0,0.0,0.0,-0.5641,-0.6863,-0.6361,-0.5471,0.0,0.0,0.0,0.0,0.0,0.0,0.0,0.0,0.0,0.0,0.0,0.0,0.0,0.0,0.0,0.0,0.0,0.0,0.0,0.0,0.0,0.0,0.0,0.0,0.0,0.0,0.0,0.0,0.0,0.0,0.0,0.0,0.0,0.0,0.0,0.0,0.0,0.0,0.0,0.0,0.0,0.0,0.0,0.0,0.0,0.0,0.0,0.0,0.0,0.0,0.0,0.0,0.0,0.0,0.0,0.0,0.0,0.0,0.0,0.0,0.0,0.0,0.0,0.0,0.0,0.0,0.0,0.0,0.0,0.0,0.0,0.0,0.0,0.0,0.0,0.0,0.0,0.0,0.0,0.0,0.0,0.0,0.0,0.0,0.0,0.0,0.0,0.0,0.0,0.0,0.0,0.0,0.0,0.0,0.0,0.0,0.0,0.0,0.0,0.0,0.0,0.0,0.0,0.0,0.0,0.0,0.0,0.0,0.0,0.0,-0.4755,-0.5148,-0.5993,-0.5668,-0.4888,-0.3703,0.0,0.0,0.0,0.0,0.0,0.0,0.0,0.0,0.0,0.0,0.0,0.0,0.0,0.0,0.0,0.0,0.0,0.0,0.0,0.0,0.0,0.0,0.0,0.0,0.0,0.0,0.0,0.0,0.0,0.0,0.0,0.0,0.0,0.0,0.0,0.0,0.0,0.0,0.0,0.0,0.0,0.0,0.0,0.0,0.0,0.0,0.0,0.0,0.0,0.0,0.0,0.0,0.0,0.0,0.0,0.0,0.0,0.0,0.0,0.0,0.0,0.0,0.0,0.0,0.0,0.0,0.0,0.0,0.0,0.0,0.0,0.0,0.0,0.0,0.0,0.0,0.0,0.0,0.0,0.0,0.0,0.0,0.0,0.0,0.0,0.0,0.0,0.0,0.0,0.0,0.0,0.0,0.0,0.0,0.0,0.0,0.0,0.0,0.0,0.0,0.0,0.0,0.0,0.0,0.0,0.0,0.0,0.0,-0.6117,-0.496,-0.4404,-0.4784,-0.4336,-0.4007,0.0,0.0,0.0,0.0,0.0,0.0,0.0,0.0,0.0,0.0,0.0,0.0,0.0,0.0,0.0,0.0,0.0,0.0,0.0,0.0,0.0,0.0,0.0,0.0,0.0,0.0,0.0,0.0,0.0,0.0,0.0,0.0,0.0,0.0,0.0,0.0,0.0,0.0,0.0,0.0,0.0,0.0,0.0,0.0,0.0,0.0,0.0,0.0,0.0,0.0,0.0,0.0,0.0,0.0,0.0,0.0,0.0,0.0,0.0,0.0,0.0,0.0,0.0,0.0,0.0,0.0,0.0,0.0,0.0,0.0,0.0,0.0,0.0,0.0,0.0,0.0,0.0,0.0,0.0,0.0,0.0,0.0,0.0,0.0,0.0,0.0,0.0,0.0,0.0,0.0,0.0,0.0,0.0,0.0,0.0,0.0,0.0,0.0,0.0,0.0,0.0,0.0,0.0,0.0,0.0,0.0,0.0,0.0,0.0,-0.4375,-0.4884,-0.4851,-0.4309,-0.4609,-0.4543,0.0,0.0,0.0,0.0,0.0,0.0,0.0,0.0,0.0,0.0,0.0,0.0,0.0,0.0,0.0,0.0,0.0,0.0,0.0,0.0,0.0,0.0,0.0,0.0,0.0,0.0,0.0,0.0,0.0,0.0,0.0,0.0,0.0,0.0,0.0,0.0,0.0,0.0,0.0,0.0,0.0,0.0,0.0,0.0,0.0,0.0,0.0,0.0,0.0,0.0,0.0,0.0,0.0,0.0,0.0,0.0,0.0,0.0,0.0,0.0,0.0,0.0,0.0,0.0,0.0,0.0,0.0,0.0,0.0,0.0,0.0,0.0,0.0,0.0,0.0,0.0,0.0,0.0,0.0,0.0,0.0,0.0,0.0,0.0,0.0,0.0,0.0,0.0,0.0,0.0,0.0,0.0,0.0,0.0,0.0,0.0,0.0,0.0,0.0,0.0,0.0,0.0,0.0,0.0,0.0,0.0,0.0,0.0,0.0,-0.3483,0.0,-0.4914,-0.4076,-0.4604,-0.4578,0.0,0.0,0.0,0.0,0.0,0.0,0.0,0.0,0.0,0.0,0.0,0.0,0.0,0.0,0.0,0.0,0.0,0.0,0.0,0.0,0.0,0.0,0.0,0.0,0.0,0.0,0.0,0.0,0.0,0.0,0.0,0.0,0.0,0.0,0.0,0.0,0.0,0.0,0.0,0.0,0.0,0.0,0.0,0.0,0.0,0.0,0.0,0.0,0.0,0.0,0.0,0.0,0.0,0.0,0.0,0.0,0.0,0.0,0.0,0.0,0.0,0.0,0.0,0.0,0.0,0.0,0.0,0.0,0.0,0.0,0.0,0.0,0.0,0.0,0.0,0.0,0.0,0.0,0.0,0.0,0.0,0.0,0.0,0.0,0.0,0.0,0.0,0.0,0.0,0.0,0.0,0.0,0.0,0.0,0.0,0.0,0.0,0.0,0.0,0.0,0.0,0.0,0.0,0.0,0.0,0.0,0.0,0.0,-0.3323,-0.3781,-0.4397,-0.4489,-0.4016,-0.4149,-0.3954,0.0,0.0,0.0,0.0,0.0,0.0,0.0,0.0,0.0,0.0,0.0,0.0,0.0,0.0,0.0,0.0,0.0,0.0,0.0,0.0,0.0,0.0,0.0,0.0,0.0,0.0,0.0,0.0,0.0,0.0,0.0,0.0,0.0,0.0,0.0,0.0,0.0,0.0,0.0,0.0,0.0,0.0,0.0,0.0,0.0,0.0,0.0,0.0,0.0,0.0,0.0,0.0,0.0,0.0,0.0,0.0,0.0,0.0,0.0,0.0,0.0,0.0,0.0,0.0,0.0,0.0,0.0,0.0,0.0,0.0,0.0,0.0,0.0,0.0,0.0,0.0,0.0,0.0,0.0,0.0,0.0,0.0,0.0,0.0,0.0,0.0,0.0,0.0,0.0,0.0,0.0,0.0,0.0,0.0,0.0,0.0,0.0,0.0,0.0,0.0,0.0,0.0,0.0,0.0,0.0,0.0,0.0,0.0,0.0,-0.3472,-0.4055,-0.4358,-0.4333,-0.4081,-0.3988,0.0,0.0,0.0,0.0,0.0,0.0,0.0,0.0,0.0,0.0,0.0,0.0,0.0,0.0,0.0,0.0,0.0,0.0,0.0,0.0,0.0,0.0,0.0,0.0,0.0,0.0,0.0,0.0,0.0,0.0,0.0,0.0,0.0,0.0,0.0,0.0,0.0,0.0,0.0,0.0,0.0,0.0,0.0,0.0,0.0,0.0,0.0,0.0,0.0,0.0,0.0,0.0,0.0,0.0,0.0,0.0,0.0,0.0,0.0,0.0,0.0,0.0,0.0,0.0,0.0,0.0,0.0,0.0,0.0,0.0,0.0,0.0,0.0,0.0,0.0,0.0,0.0,0.0,0.0,0.0,0.0,0.0,0.0,0.0,0.0,0.0,0.0,0.0,0.0,0.0,0.0,0.0,0.0,0.0,0.0,0.0,0.0,0.0,0.0,0.0,0.0,0.0,0.0,0.0,0.0,0.0,0.0,0.0,0.0,-0.3986,-0.42,-0.4291,-0.4232,-0.3996,-0.3931,-0.404,0.0,0.0,0.0,0.0,0.0,0.0,0.0,0.0,0.0,0.0,0.0,0.0,0.0,0.0,0.0,0.0,0.0,0.0,0.0,0.0,0.0,0.0,0.0,0.0,0.0,0.0,0.0,0.0,0.0,0.0,0.0,0.0,0.0,0.0,0.0,0.0,0.0,0.0,0.0,0.0,0.0,0.0,0.0,0.0,0.0,0.0,0.0,0.0,0.0,0.0,0.0,0.0,0.0,0.0,0.0,0.0,0.0,0.0,0.0,0.0,0.0,0.0,0.0,0.0,0.0,0.0,0.0,0.0,0.0,0.0,0.0,0.0,0.0,0.0,0.0,0.0,0.0,0.0,0.0,0.0,0.0,0.0,0.0,0.0,0.0,0.0,0.0,0.0,0.0,0.0,0.0,0.0,0.0,0.0,0.0,0.0,0.0,0.0,0.0,0.0,0.0,0.0,0.0,0.0,0.0,0.0,0.0,0.0,-0.5095,-0.4734,-0.431,-0.3904,-0.3972,-0.3805,0.0,0.0,0.0,0.0,0.0,0.0,0.0,0.0,0.0,0.0,0.0,0.0,0.0,0.0,0.0,0.0,0.0,0.0,0.0,0.0,0.0,0.0,0.0,0.0,0.0,0.0,0.0,0.0,0.0,0.0,0.0,0.0,0.0,0.0,0.0,0.0,0.0,0.0,0.0,0.0,0.0,0.0,0.0,0.0,0.0,0.0,0.0,0.0,0.0,0.0,0.0,0.0,0.0,0.0,0.0,0.0,0.0,0.0,0.0,0.0,0.0,0.0,0.0,0.0,0.0,0.0,0.0,0.0,0.0,0.0,0.0,0.0,0.0,0.0,0.0,0.0,0.0,0.0,0.0,0.0,0.0,0.0,0.0,0.0,0.0,0.0,0.0,0.0,0.0,0.0,0.0,0.0,0.0,0.0,0.0,0.0,0.0,0.0,0.0,0.0,0.0,0.0,0.0,0.0,0.0,0.0,0.0,0.0,0.0,-0.5351,-0.4898,-0.4677,-0.4732,-0.426,-0.4066,0.0,0.0,0.0,0.0,0.0,0.0,0.0,0.0,0.0,0.0,0.0,0.0,0.0,0.0,0.0,0.0,0.0,0.0,0.0,0.0,0.0,0.0,0.0,0.0,0.0,0.0,0.0,0.0,0.0,0.0,0.0,0.0,0.0,0.0,0.0,0.0,0.0,0.0,0.0,0.0,0.0,0.0,0.0,0.0,0.0,0.0,0.0,0.0,0.0,0.0,0.0,0.0,0.0,0.0,0.0,0.0,0.0,0.0,0.0,0.0,0.0,0.0,0.0,0.0,0.0,0.0,0.0,0.0,0.0,0.0,0.0,0.0,0.0,0.0,0.0,0.0,0.0,0.0,0.0,0.0,0.0,0.0,0.0,0.0,0.0,0.0,0.0,0.0,0.0,0.0,0.0,0.0,0.0,0.0,0.0,0.0,0.0,0.0,0.0,0.0,0.0,0.0,0.0,0.0,0.0,0.0,0.0,0.0,-0.4824,-0.5405,-0.4968,-0.4802,-0.5002,-0.4562,-0.4229,0.0,0.0,0.0,0.0,0.0,0.0,0.0,0.0,0.0,0.0,0.0,0.0,0.0,0.0,0.0,0.0,0.0,0.0,0.0,0.0,0.0,0.0,0.0,0.0,0.0,0.0,0.0,0.0,0.0,0.0,0.0,0.0,0.0,0.0,0.0,0.0,0.0,0.0,0.0,0.0,0.0,0.0,0.0,0.0,0.0,0.0,0.0,0.0,0.0,0.0,0.0,0.0,0.0,0.0,0.0,0.0,0.0,0.0,0.0,0.0,0.0,0.0,0.0,0.0,0.0,0.0,0.0,0.0,0.0,0.0,0.0,0.0,0.0,0.0,0.0,0.0,0.0,0.0,0.0,0.0,0.0,0.0,0.0,0.0,0.0,0.0,0.0,0.0,0.0,0.0,0.0,0.0,0.0,0.0,0.0,0.0,0.0,0.0,0.0,0.0,0.0,0.0,0.0,0.0,0.0,0.0,0.0,0.0,-0.5167,-0.5264,-0.4887,-0.4755,-0.4884,-0.4735,-0.4324,0.0,0.0,0.0,0.0,0.0,0.0,0.0,0.0,0.0,0.0,0.0,0.0,0.0,0.0,0.0,0.0,0.0,0.0,0.0,0.0,0.0,0.0,0.0,0.0,0.0,0.0,0.0,0.0,0.0,0.0,0.0,0.0,0.0,0.0,0.0,0.0,0.0,0.0,0.0,0.0,0.0,0.0,0.0,0.0,0.0,0.0,0.0,0.0,0.0,0.0,0.0,0.0,0.0,0.0,0.0,0.0,0.0,0.0,0.0,0.0,0.0,0.0,0.0,0.0,0.0,0.0,0.0,0.0,0.0,0.0,0.0,0.0,0.0,0.0,0.0,0.0,0.0,0.0,0.0,0.0,0.0,0.0,0.0,0.0,0.0,0.0,0.0,0.0,0.0,0.0,0.0,0.0,0.0,0.0,0.0,0.0,0.0,0.0,0.0,0.0,0.0,0.0,0.0,0.0,0.0,0.0,0.0,0.0,-0.4387,-0.4967,-0.4801,-0.4704,-0.4735,-0.4453,-0.4186,0.0,0.0,0.0,0.0,0.0,0.0,0.0,0.0,0.0,0.0,0.0,0.0,0.0,0.0,0.0,0.0,0.0,0.0,0.0,0.0,0.0,0.0,0.0,0.0,0.0,0.0,0.0,0.0,0.0,0.0,0.0,0.0,0.0,0.0,0.0,0.0,0.0,0.0,0.0,0.0,0.0,0.0,0.0,0.0,0.0,0.0,0.0,0.0,-0.4272,0.0,0.0,0.0,0.0,0.0,0.0,0.0,0.0,0.0,0.0,0.0,0.0,0.0,0.0,0.0,0.0,0.0,0.0,0.0,0.0,0.0,0.0,0.0,0.0,0.0,0.0,0.0,0.0,0.0,0.0,0.0,0.0,0.0,0.0,0.0,0.0,0.0,0.0,0.0,0.0,0.0,0.0,0.0,0.0,0.0,0.0,0.0,0.0,0.0,0.0,0.0,0.0,0.0,0.0,0.0,0.0,0.0,0.0,0.0,-0.4385,-0.4706,-0.464,-0.4616,-0.4674,-0.4334,-0.3923,0.0,0.0,0.0,0.0,0.0,0.0,0.0,0.0,0.0,0.0,0.0,0.0,0.0,0.0,0.0,0.0,0.0,0.0,0.0,0.0,0.0,0.0,0.0,0.0,0.0,0.0,0.0,0.0,0.0,0.0,0.0,0.0,0.0,0.0,0.0,0.0,0.0,0.0,0.0,0.0,0.0,0.0,0.0,0.0,0.0,0.0,0.0,0.0,0.0,0.0,0.0,0.0,0.0,0.0,0.0,0.0,0.0,0.0,0.0,0.0,0.0,0.0,0.0,0.0,0.0,0.0,0.0,0.0,0.0,0.0,0.0,0.0,0.0,0.0,0.0,0.0,0.0,0.0,0.0,0.0,0.0,0.0,0.0,0.0,0.0,0.0,0.0,0.0,0.0,0.0,0.0,0.0,0.0,0.0,0.0,0.0,0.0,0.0,0.0,0.0,0.0,0.0,0.0,0.0,0.0,0.0,0.0,-0.4341,-0.4552,-0.4494,-0.4467,-0.4518,-0.4613,-0.4185,-0.3667,-0.3112,0.0,0.0,0.0,0.0,0.0,0.0,0.0,0.0,0.0,0.0,0.0,0.0,0.0,0.0,0.0,0.0,0.0,0.0,0.0,0.0,0.0,0.0,0.0,0.0,0.0,0.0,0.0,0.0,0.0,0.0,0.0,0.0,0.0,0.0,0.0,0.0,0.0,0.0,-0.3251,-0.381,0.0,0.0,0.0,0.0,0.0,0.0,0.0,0.0,-0.4374,0.0,0.0,0.0,0.0,0.0,0.0,0.0,0.0,0.0,0.0,0.0,0.0,0.0,0.0,0.0,0.0,0.0,0.0,0.0,0.0,0.0,0.0,0.0,0.0,0.0,0.0,0.0,0.0,0.0,0.0,0.0,0.0,0.0,0.0,0.0,0.0,0.0,0.0,0.0,0.0,0.0,0.0,0.0,0.0,0.0,0.0,0.0,0.0,0.0,0.0,0.0,0.0,0.0,0.0,0.0,0.0,-0.3975,-0.4052,-0.4214,-0.4474,-0.4345,-0.4267,-0.4281,-0.3887,-0.3428,-0.2981,0.0,0.0,0.0,0.0,0.0,0.0,0.0,0.0,0.0,0.0,0.0,0.0,0.0,0.0,0.0,0.0,0.0,0.0,0.0,0.0,0.0,0.0,0.0,0.0,0.0,0.0,0.0,0.0,0.0,0.0,0.0,0.0,0.0,0.0,0.0,0.0,0.0,0.0,0.0,-0.3621,-0.3886,0.0,0.0,0.0,0.0,0.0,0.0,0.0,0.0,-0.4798,0.0,0.0,0.0,0.0,0.0,0.0,0.0,0.0,0.0,0.0,0.0,0.0,0.0,0.0,0.0,0.0,0.0,0.0,0.0,0.0,0.0,0.0,0.0,0.0,0.0,0.0,0.0,0.0,0.0,0.0,0.0,0.0,0.0,0.0,0.0,0.0,0.0,0.0,0.0,0.0,0.0,0.0,0.0,0.0,0.0,0.0,0.0,0.0,0.0,0.0,0.0,0.0,0.0,0.0,0.0,-0.3877,-0.3829,-0.3938,-0.4222,-0.4217,-0.4146,-0.4012,-0.3754,-0.3497,0.0,0.0,0.0,0.0,0.0,0.0,0.0,0.0,0.0,0.0,0.0,0.0,0.0,0.0,0.0,0.0,0.0,0.0,0.0,0.0,0.0,0.0,0.0,0.0,0.0,0.0,0.0,0.0,0.0,0.0,0.0,0.0,0.0,0.0,0.0,0.0,0.0,0.0,0.0,0.0,-0.456,-0.4323,-0.4477,0.0,0.0,0.0,0.0,0.0,0.0,-0.4988,-0.5102,0.0,0.0,0.0,0.0,0.0,0.0,0.0,0.0,0.0,0.0,0.0,0.0,0.0,0.0,0.0,0.0,0.0,0.0,0.0,0.0,0.0,0.0,0.0,0.0,0.0,0.0,0.0,0.0,0.0,0.0,0.0,0.0,0.0,0.0,0.0,0.0,0.0,0.0,0.0,0.0,0.0,0.0,0.0,0.0,0.0,0.0,0.0,0.0,0.0,0.0,0.0,0.0,0.0,0.0,0.0,-0.3771,-0.3703,-0.3751,-0.3984,-0.4082,-0.4001,-0.3781,-0.3512,-0.3452,0.0,0.0,0.0,0.0,0.0,0.0,0.0,0.0,0.0,0.0,0.0,0.0,0.0,0.0,0.0,0.0,0.0,0.0,0.0,0.0,0.0,0.0,0.0,0.0,0.0,0.0,0.0,0.0,0.0,0.0,0.0,0.0,0.0,0.0,0.0,0.0,0.0,0.0,0.0,0.0,0.0,-0.5034,-0.4713,-0.5147,0.0,0.0,0.0,0.0,-0.5356,-0.5309,0.0,0.0,0.0,0.0,0.0,0.0,0.0,0.0,0.0,0.0,0.0,0.0,0.0,0.0,0.0,0.0,0.0,0.0,0.0,0.0,0.0,0.0,0.0,0.0,0.0,0.0,0.0,0.0,0.0,0.0,0.0,0.0,0.0,0.0,0.0,0.0,0.0,0.0,0.0,0.0,0.0,0.0,0.0,0.0,0.0,0.0,0.0,0.0,0.0,0.0,0.0,0.0,0.0,0.0,0.0,0.0,-0.3782,-0.3775,-0.3846,-0.3977,-0.3904,-0.3768,-0.3628,-0.2974,-0.2952,0.0,0.0,0.0,0.0,0.0,0.0,0.0,0.0,0.0,0.0,0.0,0.0,0.0,0.0,0.0,0.0,0.0,0.0,0.0,0.0,0.0,0.0,0.0,0.0,0.0,0.0,0.0,0.0,0.0,0.0,0.0,0.0,0.0,0.0,0.0,0.0,0.0,0.0,0.0,0.0,0.0,-0.5595,-0.5555,-0.5716,-0.5589,0.0,0.0,0.0,-0.5363,-0.5309,0.0,0.0,0.0,0.0,0.0,0.0,0.0,0.0,0.0,0.0,0.0,0.0,0.0,0.0,0.0,0.0,0.0,0.0,0.0,0.0,0.0,0.0,0.0,0.0,0.0,0.0,0.0,0.0,0.0,0.0,0.0,0.0,0.0,0.0,0.0,0.0,0.0,0.0,0.0,0.0,0.0,0.0,0.0,0.0,0.0,0.0,0.0,0.0,0.0,0.0,0.0,0.0,0.0,0.0,0.0,-0.3524,-0.3663,-0.3585,-0.3509,-0.3492,-0.3615,-0.3408,-0.2842,-0.249,-0.257,0.0,0.0,0.0,0.0,0.0,0.0,0.0,0.0,0.0,0.0,0.0,0.0,0.0,0.0,0.0,0.0,0.0,0.0,0.0,0.0,0.0,0.0,0.0,0.0,0.0,0.0,0.0,0.0,0.0,0.0,0.0,0.0,0.0,0.0,0.0,0.0,0.0,0.0,0.0,0.0,0.0,0.0,-0.603,-0.5899,0.0,0.0,0.0,-0.5732,-0.5534,0.0,0.0,0.0,0.0,0.0,0.0,0.0,0.0,0.0,0.0,0.0,0.0,0.0,0.0,0.0,0.0,0.0,0.0,0.0,0.0,0.0,0.0,0.0,0.0,0.0,0.0,0.0,0.0,0.0,0.0,0.0,0.0,0.0,0.0,0.0,0.0,0.0,0.0,0.0,0.0,0.0,0.0,0.0,0.0,0.0,0.0,0.0,0.0,0.0,0.0,0.0,0.0,0.0,0.0,0.0,0.0,0.0,-0.3514,-0.3276,-0.3141,-0.3127,-0.3344,-0.3056,-0.2239,-0.21,0.0,0.0,0.0,0.0,0.0,0.0,0.0,0.0,0.0,0.0,0.0,0.0,0.0,0.0,0.0,0.0,0.0,0.0,0.0,0.0,0.0,0.0,0.0,0.0,0.0,0.0,0.0,-0.2653,0.0,0.0,0.0,0.0,0.0,0.0,0.0,0.0,0.0,0.0,0.0,0.0,0.0,0.0,-0.6533,-0.6542,-0.6057,-0.5561,0.0,0.0,-0.5674,-0.5594,-0.5484,-0.5581,0.0,0.0,0.0,0.0,0.0,0.0,0.0,0.0,0.0,0.0,0.0,0.0,0.0,0.0,0.0,0.0,0.0,0.0,0.0,0.0,0.0,0.0,0.0,0.0,0.0,0.0,0.0,0.0,0.0,0.0,0.0,0.0,0.0,0.0,0.0,0.0,0.0,0.0,0.0,0.0,0.0,0.0,0.0,0.0,0.0,0.0,0.0,0.0,0.0,0.0,0.0,0.0,0.0,0.0,0.0,-0.3296,-0.2944,-0.2859,-0.3087,-0.3137,-0.2838,-0.2216,-0.1832,-0.1707,0.0,0.0,0.0,0.0,0.0,0.0,0.0,0.0,0.0,0.0,0.0,0.0,0.0,0.0,0.0,0.0,0.0,0.0,0.0,0.0,0.0,0.0,0.0,0.0,0.0,0.0,0.0,0.0,0.0,0.0,0.0,0.0,0.0,0.0,0.0,0.0,0.0,0.0,0.0,0.0,0.0,-0.7577,-0.7285,-0.6362,-0.5495,0.0,0.0,-0.5625,-0.5367,-0.5524,-0.5809,-0.6142,0.0,0.0,0.0,0.0,0.0,0.0,0.0,0.0,0.0,0.0,0.0,0.0,0.0,0.0,0.0,0.0,0.0,0.0,0.0,0.0,0.0,0.0,0.0,0.0,0.0,0.0,0.0,0.0,0.0,0.0,0.0,0.0,0.0,0.0,0.0,0.0,0.0,0.0,0.0,0.0,0.0,0.0,0.0,0.0,0.0,0.0,0.0,0.0,0.0,0.0,0.0,0.0,0.0,-0.3378,-0.3483,-0.3049,-0.2832,-0.2849,-0.2661,-0.2239,-0.166,-0.1246,-0.1156,0.0,0.0,0.0,0.0,0.0,0.0,0.0,0.0,0.0,0.0,0.0,0.0,0.0,0.0,0.0,0.0,0.0,0.0,0.0,0.0,0.0,0.0,0.0,0.0,0.0,0.0,0.0,0.0,-0.3859,-0.4057,-0.4252,0.0,0.0,0.0,0.0,0.0,0.0,0.0,0.0,0.0,0.0,-0.6917,-0.7039,-0.6453,0.0,0.0,-0.5621,-0.586,-0.5373,-0.5524,-0.5734,-0.5865,-0.6266,0.0,0.0,0.0,0.0,0.0,0.0,0.0,0.0,0.0,0.0,0.0,0.0,0.0,0.0,0.0,0.0,0.0,0.0,0.0,0.0,0.0,0.0,0.0,0.0,0.0,0.0,0.0,0.0,0.0,0.0,0.0,0.0,0.0,0.0,0.0,0.0,0.0,0.0,0.0,0.0,0.0,0.0,0.0,0.0,0.0,0.0,0.0,0.0,0.0,0.0,0.0,0.0,-0.3466,-0.3507,-0.3025,-0.2676,-0.248,-0.2258,-0.1811,-0.1142,-0.084,-0.0725,0.0,0.0,0.0,0.0,0.0,0.0,0.0,0.0,0.0,0.0,0.0,0.0,0.0,0.0,0.0,0.0,0.0,0.0,0.0,0.0,0.0,0.0,0.0,0.0,0.0,0.0,0.0,0.0,-0.3781,-0.3905,-0.5015,0.0,0.0,0.0,0.0,0.0,0.0,0.0,0.0,0.0,0.0,-0.6616,-0.6875,-0.6559,-0.6076,-0.5497,-0.5982,-0.6239,-0.5672,-0.5865,-0.611,-0.6201,0.0,0.0,0.0,0.0,0.0,0.0,0.0,0.0,0.0,0.0,0.0,0.0,0.0,0.0,0.0,0.0,0.0,0.0,0.0,0.0,0.0,0.0,0.0,0.0,0.0,0.0,0.0,0.0,0.0,0.0,0.0,0.0,0.0,0.0,0.0,0.0,0.0,0.0,0.0,0.0,0.0,0.0,0.0,0.0,0.0,0.0,0.0,0.0,0.0,0.0,0.0,0.0,0.0,0.0,-0.3306,-0.2784,-0.2351,-0.2045,-0.2002,-0.1579,-0.0756,-0.0707,-0.0478,-0.0059,0.0,0.0,0.0,0.0,0.0,0.0,0.0,0.0,0.0,0.0,0.0,0.0,0.0,0.0,0.0,0.0,0.0,0.0,0.0,0.0,0.0,0.0,0.0,0.0,0.0,0.0,-0.4591,-0.4441,-0.4443,0.0,0.0,0.0,0.0,0.0,0.0,0.0,0.0,0.0,0.0,-0.7711,-0.699,-0.698,-0.6698,-0.6297,-0.5756,-0.6431,-0.6789,-0.6254,-0.66,-0.7068,0.0,0.0,0.0,0.0,0.0,0.0,0.0,0.0,0.0,0.0,0.0,0.0,0.0,0.0,0.0,0.0,0.0,0.0,0.0,0.0,0.0,0.0,0.0,0.0,0.0,0.0,0.0,0.0,0.0,0.0,0.0,0.0,0.0,0.0,0.0,0.0,0.0,0.0,0.0,0.0,0.0,0.0,0.0,0.0,0.0,0.0,0.0,0.0,0.0,0.0,0.0,0.0,0.0,0.0,-0.3497,-0.358,-0.2664,-0.2159,-0.2113,-0.1488,-0.0991,-0.0707,-0.04,-0.0168,-0.0021,0.0,0.0,0.0,0.0,0.0,0.0,0.0,0.0,0.0,0.0,0.0,0.0,0.0,0.0,0.0,0.0,0.0,0.0,0.0,0.0,0.0,0.0,0.0,0.0,0.0,-0.5147,0.0,0.0,0.0,0.0,0.0,0.0,0.0,0.0,0.0,0.0,0.0,-0.818,-0.8152,-0.7179,-0.6535,-0.6693,-0.65,-0.6232,0.0,0.0,0.0,0.0,0.0,0.0,0.0,0.0,0.0,0.0,0.0,0.0,0.0,0.0,-0.8845,-0.8875,-0.9198,-0.9402,-0.9177,0.0,0.0,0.0,0.0,0.0,0.0,0.0,0.0,0.0,0.0,0.0,0.0,0.0,0.0,0.0,0.0,0.0,0.0,0.0,0.0,0.0,0.0,0.0,0.0,0.0,0.0,0.0,0.0,0.0,0.0,0.0,0.0,-0.0242,0.0,0.0,0.0,0.0,0.0,0.0,0.0,0.0,-0.3377,-0.3364,-0.2334,-0.1733,-0.1647,-0.1037,-0.0617,-0.0451,-0.0146,0.0,0.0,-0.0372,-0.0405,0.0,0.0,0.0,0.0,0.0,0.0,0.0,0.0,0.0,0.0,0.0,0.0,0.0,0.0,0.0,0.0,0.0,0.0,0.0,0.0,0.0,0.0,0.0,-0.5018,0.0,0.0,0.0,0.0,0.0,0.0,0.0,0.0,0.0,-0.7702,-0.7644,-0.7572,-0.7593,-0.687,-0.6399,-0.6567,0.0,0.0,0.0,0.0,0.0,0.0,0.0,-0.7049,-0.7042,-0.7189,-0.7238,-0.7021,-0.7314,-0.7665,-0.7925,0.0,0.0,-0.8077,-0.8536,-0.8783,-0.8438,-0.9259,-0.9895,-0.9508,-1.0086,-1.0584,0.0,0.0,0.0,0.0,0.0,0.0,0.0,0.0,0.0,0.0,0.0,0.0,0.0,0.0,0.0,0.0,0.0,0.0,0.0,0.0,0.0,0.0,0.0,0.0,0.0,0.0,0.0,0.0,0.0,-0.0719,0.0,0.0,0.0,0.0,0.0,0.0,-0.281,-0.2657,-0.176,-0.1092,-0.0736,-0.0688,-0.0459,0.0,0.0,0.0,0.0,0.0,0.0,0.0,-0.0544,0.0,0.0,0.0,0.0,0.0,0.0,0.0,0.0,0.0,0.0,0.0,0.0,0.0,0.0,0.0,0.0,0.0,0.0,0.0,0.0,-0.5245,0.0,0.0,0.0,0.0,0.0,0.0,0.0,0.0,0.0,0.0,-0.7426,-0.7229,-0.7006,-0.7013,0.0,0.0,0.0,0.0,-0.7192,-0.6699,-0.7317,-0.7655,-0.7077,-0.7461,-0.785,-0.7842,0.0,0.0,-0.7084,-0.6993,-0.7021,-0.7006,-0.7055,-0.7306,-0.8252,-0.8566,-0.8693,-0.8482,-0.9139,-0.9817,-0.9966,-0.9918,-1.0066,0.0,0.0,0.0,0.0,0.0,0.0,0.0,0.0,0.0,0.0,0.0,0.0,0.0,0.0,0.0,0.0,0.0,0.0,0.0,0.0,0.0,0.0,0.0,0.0,0.0,0.0,0.0,0.0,0.0,-0.0205,-0.0702,-0.1401,0.0,0.0,0.0,0.0,-0.2153,-0.2154,-0.1332,-0.0849,-0.0847,-0.0436,-0.0139,0.0,0.0,0.0,0.0,0.0,0.0,0.0,-0.0156,0.0,0.0,0.0,0.0,0.0,0.0,0.0,0.0,0.0,0.0,0.0,0.0,0.0,0.0,0.0,0.0,0.0,0.0,0.0,-0.5966,-0.4178,-0.3434,0.0,0.0,0.0,0.0,0.0,0.0,0.0,0.0,0.0,-0.7395,-0.7208,-0.7101,0.0,0.0,-0.6767,-0.7176,-0.6997,-0.6832,-0.6867,0.0,0.0,0.0,-0.7147,-0.7252,-0.7259,-0.7259,-0.7189,-0.7021,-0.6993,-0.6993,-0.6993,-0.6993,-0.709,-0.7341,-0.7488,-0.7523,-0.7489,-0.7994,-0.8479,-0.8532,-0.8832,-0.9229,0.1597,0.1478,0.0448,0.0,0.0,0.0,0.0,0.0,0.0,0.0,0.0,0.0,0.0,0.0,0.0,0.0,0.0,0.0,0.0,0.0,0.0,0.0,0.0,0.0,0.0,0.0,0.0,0.0,0.0,0.0,-0.0215,-0.0641,0.0,0.0,-0.2094,-0.1746,-0.154,-0.1526,-0.0797,-0.0457,-0.0524,-0.0184,0.0,0.0,0.0,0.0,0.0,0.0,0.0,0.0,0.0,-0.0226,0.0,0.0,0.0,0.0,0.0,0.0,0.0,0.0,0.0,0.0,0.0,-0.337,0.0,0.0,0.0,0.0,-0.4591,-0.4469,-0.4354,-0.3455,0.0,0.0,0.0,0.0,0.0,0.0,0.0,-0.6344,-0.6101,-0.6077,-0.6616,-0.6709,-0.6832,-0.7246,-0.6981,-0.6887,-0.7263,0.0,-0.68,-0.6973,-0.6993,-0.6993,-0.6993,-0.6993,-0.6993,-0.6993,-0.6993,-0.6993,-0.6993,-0.6993,-0.6993,-0.6993,-0.6993,-0.6993,-0.6993,-0.6993,-0.6993,-0.7,-0.7273,-0.7593,-0.7836,-0.818,-0.8561,0.3934,0.366,0.1186,0.0,0.0,0.0,0.0,0.0,0.0,0.0,0.0,0.0,0.0,0.0,0.0,0.0,0.0,0.0,0.0,0.0,0.0,0.0,0.0,0.0,0.0,0.0,0.0,0.0,0.0,0.0,0.0,0.0,-0.0682,-0.129,-0.1766,-0.1291,-0.0962,-0.0837,-0.0271,0.0,0.0,0.0,0.0,0.0,0.0,0.0,0.0,0.0,0.0,0.0,0.0,0.0,0.0,0.0,0.0,0.0,0.0,0.0,0.0,0.0,0.0,0.0,0.0,0.0,0.0,0.0,0.0,0.0,-0.4087,0.0,-0.2194,-0.3199,0.0,0.0,0.0,-0.4289,-0.4989,-0.4424,-0.449,-0.578,0.0,0.0,0.0,0.0,-0.6321,-0.6853,-0.6942,-0.702,-0.7073,-0.7046,-0.6985,-0.6961,-0.6929,-0.6909,-0.6761,-0.6825,-0.6915,-0.6979,-0.6993,-0.6993,-0.6993,-0.6993,-0.6993,-0.6993,-0.6993,-0.6993,-0.6993,-0.6993,-0.6993,-0.6993,-0.6993,-0.7189,-0.7663,-0.7801,-0.7987,0.3426,0.2415,0.1817,0.1518,0.1438,0.0408,0.0,0.0,0.0,0.0,0.0,0.0,0.0,0.0,0.0,0.0,0.0,0.0,0.0,0.0,0.0,0.0,0.0,0.0,0.0,0.0,0.0,0.0,0.0,0.0,0.0,0.0,-0.0161,-0.0341,-0.0472,-0.033,-0.0248,-0.0221,-0.0072,0.0,0.0,0.0,0.0,0.0,0.0,0.0,0.0,0.0,0.0,0.0,0.0,0.0,0.0,-0.0176,0.0,0.0,0.0,0.0,0.0,0.0,0.0,0.0,0.0,-0.4143,-0.4143,0.0,-0.4392,0.0,-0.4165,-0.4135,-0.4424,-0.426,0.0,0.0,-0.4485,-0.4288,-0.4609,-0.4257,-0.4336,-0.5212,-0.5047,-0.5079,-0.5673,-0.5697,-0.5758,-0.6054,-0.6635,-0.7166,-0.757,-0.7279,-0.6909,-0.6705,-0.6513,-0.6221,-0.5862,-0.6103,-0.6541,-0.6937,-0.6972,-0.6993,-0.6993,-0.6993,-0.6993,-0.6993,-0.6993,-0.6993,-0.6993,-0.6993,-0.6993,-0.6993,-0.6993,-0.7042,-0.7189,-0.721,-0.7384,0.5322,0.462,0.4019,0.3455,0.2733,0.0817,0.0,0.0,0.0,0.0,0.0,0.0,0.0,0.0,0.0,0.0,0.0,0.0,0.0,0.0,0.0,0.0,0.0,0.0,0.0,0.0,0.0,0.0,0.0,0.0,0.0,0.0,0.0,0.0,0.0,0.0,0.0,0.0,0.0,0.0,0.0,0.0,0.0,0.0,0.0,0.0,0.0,0.0,0.0,0.0,0.0,0.0,0.0,0.0,0.0,0.0,0.0,0.0,0.0,0.0,0.0,0.0,0.0,0.0,0.0,0.0,-0.4491,0.0,-0.4259,0.0,-0.4778,-0.4424,-0.4312,-0.4596,-0.4328,-0.4126,-0.4191,-0.4019,-0.4098,-0.4625,-0.4589,-0.4638,-0.5027,-0.5158,-0.5266,-0.5395,-0.601,-0.6543,-0.6742,-0.6492,-0.6198,-0.6019,-0.5897,-0.5701,-0.5329,-0.5809,-0.6285,-0.6577,-0.6831,-0.6993,-0.6993,-0.6993,-0.6993,-0.6993,-0.6993,-0.6993,-0.6993,-0.6993,-0.6993,-0.6993,-0.6993,-0.6993,-0.6993,-0.6993,-0.7126,0.7892,0.7637,0.6481,0.5222,0.3817,0.1309,0.015,0.0,0.0,0.0,0.0,0.0,0.0,0.0,0.0,0.0,0.0,0.0,0.0,0.0,0.0,0.0,0.0,0.0,0.0,0.0,0.0,0.0,0.0,0.0,0.0,0.0,0.0,0.0,0.0,0.0,0.0,0.0,0.0,0.0,0.0,0.0,0.0,0.0,0.0,0.0,0.0,0.0,0.0,0.0,0.0,0.0,0.0,0.0,0.0,0.0,-0.0895,0.0,0.0,0.0,0.0,0.0,0.0,0.0,0.0,-0.4491,-0.4491,-0.4491,-0.4313,-0.4221,-0.4217,-0.4223,-0.4115,-0.389,-0.3944,-0.4002,-0.3894,-0.3863,-0.3961,-0.419,-0.4132,-0.4128,-0.4272,-0.4601,-0.482,-0.491,-0.5235,-0.549,-0.5387,-0.543,-0.5441,-0.5271,-0.5149,-0.5026,-0.513,-0.5588,-0.5959,-0.6179,-0.6562,-0.6915,-0.6985,-0.6993,-0.6993,-0.6993,-0.6993,-0.6993,-0.6993,-0.6993,-0.6993,-0.6993,-0.6993,-0.6993,-0.6993,-0.6993,-0.6993,0.7385,0.6381,0.6079,0.5222,0.3865,0.2314,0.0988,0.0,0.0,0.0,0.0,0.0,0.0,0.0,0.0,0.0,0.0,0.0,0.0,0.0,0.0,0.0,0.0,0.0,0.0,0.0,0.0,0.0,0.0,0.0,0.0,0.0,0.0,0.0,0.0,0.0,0.0,0.0,0.0,0.0,0.0,0.0,0.0,0.0,0.0,0.0,0.0,0.0,0.0,0.0,0.0,0.0,0.0,0.0,0.0,0.0,0.0,0.0,0.0,0.0,0.0,0.0,-0.1507,-0.2369,-0.4294,-0.4491,-0.4491,-0.4487,-0.4321,-0.421,-0.422,-0.4223,-0.4174,-0.4149,-0.4163,-0.421,-0.4341,-0.4203,-0.4206,-0.4423,-0.4395,-0.4412,-0.4426,-0.44,-0.4404,-0.4545,-0.4426,-0.4393,-0.4474,-0.5164,-0.5486,-0.5052,-0.4437,-0.4148,-0.4522,-0.4696,-0.5173,-0.59,-0.6264,-0.6492,-0.6852,-0.6958,-0.6979,-0.6979,-0.6993,-0.6993,-0.6993,-0.6993,-0.6993,-0.6993,-0.6993,-0.6993,-0.6993,-0.6993,-0.6993,0.7587,0.0,0.6986,0.6229,0.0,0.427,0.3217,0.1881,0.058,0.0,0.0,0.0,0.0,0.0,0.0,0.0,0.0,0.0,0.0,0.0,0.0,0.0,0.0,0.0,0.0,0.0,0.0,0.0,0.0,0.0,0.0,0.0,0.0,0.0,0.0,0.0,0.0,0.0,0.0,0.0,0.0,0.0,0.0,0.0,0.0,0.0,0.0,0.0,0.0,0.0,0.0,0.0,0.0,0.0,0.0,0.0,-0.0336,-0.0392,-0.0056,-0.0336,-0.0699,-0.1062,-0.1424,-0.2287,-0.379,-0.3901,-0.407,-0.446,-0.4395,-0.4355,-0.4351,-0.4355,-0.4297,-0.4233,-0.4223,-0.4254,-0.4334,-0.4267,-0.4281,-0.446,-0.4491,-0.4491,-0.4491,-0.4429,-0.4382,-0.447,-0.4368,-0.4236,-0.4229,-0.4593,-0.4759,-0.442,-0.4034,-0.3792,-0.3958,-0.426,-0.4543,-0.52,-0.5545,-0.5846,-0.6097,-0.6428,-0.6605,-0.6619,-0.681,-0.6993,-0.6993,-0.6993,-0.6993,-0.6993,-0.6993,-0.6993,-0.6993,-0.6993,-0.6993,0.7988,0.7988,0.7988,0.7385,0.6329,0.6129,0.523,0.3829,0.0,0.0,0.0,0.0407,0.0267,0.0,0.0,0.0,0.0,0.0,0.0,0.0,0.0,0.0,0.0,0.0,0.0,0.0,0.0,0.0,0.0,0.0,0.0,0.0,0.0,0.0,0.0,0.0,0.0,0.0,0.0,0.0,0.0,0.0,0.0,0.0,0.0,0.0,0.0,0.0,0.0,0.0,0.0,0.0,0.0,0.0,0.0,0.0,0.0,0.0,0.0,0.0,-0.0252,-0.0866,-0.1453,-0.2176,-0.3037,-0.3231,-0.3597,-0.4239,-0.4405,-0.4487,-0.4491,-0.4491,-0.444,-0.4274,-0.426,-0.426,-0.426,-0.426,-0.4341,-0.4467,-0.4491,-0.4491,-0.4491,-0.4484,-0.4491,-0.4491,-0.4474,-0.4453,-0.4267,-0.416,-0.4077,-0.3942,-0.386,-0.3808,-0.3731,-0.3991,-0.4341,-0.4551,-0.4939,-0.5201,-0.5361,-0.5701,-0.6007,-0.6023,-0.6422,-0.6592,-0.6677,-0.6613,-0.6747,-0.6825,-0.6768,-0.674,-0.6831,-0.6852,-0.6852,0.7988,0.7988,0.7988,0.7889,0.764,0.6481,0.5266,0.3889,0.2631,0.1914,0.1753,0.1986,0.1297,0.0,0.0,0.0,0.0,0.0,0.0,0.0,0.0,0.0,0.0,0.0,0.0,0.0,0.0,0.0,0.0,0.0,0.0,0.0,0.0,0.0,0.0,0.0,0.0,0.0,0.0,0.0,0.0,0.0,0.0,0.0,0.0,0.0,0.0,0.0,0.0,0.0,0.0,0.0,0.0,0.0,0.0,0.0,0.0,0.0,0.0,0.0,-0.0056,-0.014,-0.0252,-0.0895,-0.223,-0.301,-0.34,-0.3483,-0.407,-0.4491,-0.4491,-0.4491,-0.4481,-0.446,-0.4457,-0.4457,-0.4423,-0.445,-0.4457,-0.4484,-0.4491,-0.4491,-0.4491,-0.4491,-0.4491,-0.4491,-0.4491,-0.4477,-0.4416,-0.4195,-0.4004,-0.3992,-0.396,-0.3921,-0.3832,-0.3897,-0.4197,-0.4589,-0.469,-0.4852,-0.5111,-0.5308,-0.5416,-0.5437,-0.5583,-0.5631,-0.5631,-0.554,-0.5798,-0.6173,-0.598,-0.5803,-0.6215,-0.6328,-0.6498,0.7988,0.7988,0.7988,0.7988,0.7939,0.7335,0.6728,0.6155,0.5574,0.4484,0.3182,0.3651,0.319,0.2088,0.1981,0.1605,0.0998,0.0976,0.0627,0.0,0.0,0.0,0.0,0.0,0.0,0.0,0.0,0.0,0.0,0.0,0.0,0.0,0.0,0.0,0.0,0.0,0.0,0.0,0.0,0.0,0.0,0.0,0.0,0.0,0.0,0.0,0.0,0.0,0.0,0.0,0.0,0.0,0.0,0.0,0.0,0.0,0.0,0.0,0.0,0.0,0.0,0.0,0.0,-0.028,-0.0922,-0.1703,-0.2286,-0.2676,-0.3398,-0.3846,-0.3873,-0.4236,-0.4491,-0.4491,-0.4491,-0.4491,-0.4491,-0.4491,-0.4491,-0.4491,-0.4491,-0.4491,-0.4491,-0.4491,-0.4491,-0.4491,-0.4491,-0.4491,-0.4491,-0.4378,-0.4229,-0.4136,-0.4115,-0.4051,-0.3951,-0.3944,-0.407,-0.4216,-0.4209,-0.4256,-0.4423,-0.4574,-0.4783,-0.4848,-0.5048,-0.5286,-0.5291,-0.5308,-0.5437,-0.5545,-0.5545,-0.548,-0.568,-0.5943,-0.6371,0.7988,0.7988,0.7988,0.7988,0.7988,0.7988,0.7988,0.7978,0.786,0.6732,0.509,0.5169,0.4736,0.3811,0.3696,0.3119,0.2323,0.2233,0.1533,0.0469,0.0382,0.0254,0.0,0.0,0.0,0.0,0.0,0.0,0.0,0.0,0.0,0.0,0.0,0.0,0.0,0.0,0.0,0.0,0.0,0.0,0.0,0.0,0.0,0.0,0.0,0.0,0.0,0.0,0.0,0.0,0.0,0.0,0.0,0.0,0.0,0.0,0.0,0.0,0.0,0.0,0.0,0.0,0.0,0.0,0.0,-0.0531,-0.1145,-0.1898,-0.2621,-0.3065,-0.3148,-0.3763,-0.4236,-0.4263,-0.4432,-0.4491,-0.4491,-0.4491,-0.4491,-0.4491,-0.4491,-0.4491,-0.4491,-0.4491,-0.4491,-0.4491,-0.4491,-0.4491,-0.4491,-0.4491,-0.4436,-0.4338,-0.4271,-0.421,-0.4082,-0.4111,-0.4066,-0.3921,-0.3894,-0.3886,-0.3878,-0.4085,-0.4245,-0.4341,-0.4647,-0.4856,-0.4922,-0.4902,-0.4923,-0.5022,-0.4918,-0.4901,-0.5087,-0.5394,-0.6023,0.7992,0.7988,0.7992,0.7988,0.7988,0.7988,0.7988,0.7985,0.7971,0.7918,0.7372,0.6306,0.5064,0.3873,0.3851,0.3797,0.3607,0.3494,0.2798,0.1729,0.1657,0.1082,0.013,0.0,0.0,0.0,0.0,0.0,0.0,0.0,0.0,0.0,0.0,0.0,0.0,0.0,0.0,0.0,0.0,0.0,0.0,0.0,0.0,0.0,0.0,0.0,0.0,0.0,0.0,0.0,0.0,0.0,0.0,0.0,0.0,0.0,0.0,0.0,0.0,0.0,0.0,0.0,0.0,0.0,0.0,0.0,-0.0392,-0.1146,-0.1868,-0.2287,-0.2341,-0.2982,-0.3428,-0.3514,-0.4015,-0.4491,-0.4377,-0.4491,-0.4491,-0.4491,-0.4349,-0.4491,-0.4408,-0.4408,-0.4432,-0.438,-0.446,-0.4491,-0.4491,-0.4487,-0.4487,-0.4467,-0.4467,-0.4375,-0.4247,-0.4345,-0.4304,-0.4176,-0.4058,-0.3992,-0.3948,-0.3897,-0.3896,-0.4095,-0.4033,-0.4098,-0.4046,-0.3881,-0.4024,-0.4351,-0.4246,-0.3968,-0.4351,-0.4631,-0.5087,0.8177,0.8167,0.8025,0.7988,0.7988,0.7988,0.7988,0.7988,0.7988,0.7941,0.786,0.7323,0.6747,0.6144,0.6079,0.5668,0.5008,0.4921,0.4229,0.3049,0.2977,0.2295,0.1168,0.1044,0.0733,0.0,0.0,0.0,0.0,0.0,0.0,0.0,0.0,0.0,0.0,0.0,0.0,0.0,0.0,0.0,0.0,0.0,0.0,0.0,0.0,0.0,0.0,0.0,0.0,0.0,0.0,0.0,0.0,0.0,0.0,0.0,0.0,0.0,0.0,0.0,0.0,0.0,0.0,0.0,0.0,0.0,-0.014,-0.0476,-0.1118,-0.1563,-0.1619,-0.2202,-0.2674,-0.2732,-0.2982,-0.3151,-0.3123,-0.3176,-0.3262,-0.3652,-0.34,-0.3372,-0.3735,-0.3846,-0.3846,-0.3932,-0.4181,-0.4432,-0.4491,-0.4491,-0.4491,-0.4491,-0.4491,-0.4467,-0.4385,-0.4443,-0.4392,-0.426,-0.415,-0.4119,-0.4036,-0.3985,-0.3951,-0.3994,-0.3944,-0.389,-0.3862,-0.3778,-0.3801,-0.3932,-0.3854,-0.3685,-0.3902,-0.418,-0.4631,0.8354,0.8248,0.8052,0.7988,0.7988,0.7988,0.7988,0.7988,0.7988,0.7924,0.7843,0.7941,0.7931,0.7862,0.7723,0.7174,0.6401,0.6319,0.56,0.4459,0.4364,0.3612,0.2439,0.1985,0.1383,0.0625,0.0,0.0,0.0922,0.093,0.0891,0.0893,0.058,0.0427,0.0421,0.0172,0.0,0.0,0.0,0.0126,0.0,0.035,0.0257,0.0,0.0,0.0,0.0,0.0,0.0,0.0,0.0,0.0,0.0,0.0,0.0,0.0,0.0,0.0,0.0,0.0,0.0,0.0,0.0,0.0,0.0,0.0,0.0,0.0,-0.0503,-0.0783,-0.0867,-0.1452,-0.1868,-0.1925,-0.2037,-0.2176,-0.2232,-0.2204,-0.2452,-0.2843,-0.2621,-0.2397,-0.2899,-0.3093,-0.3121,-0.343,-0.3873,-0.4322,-0.4432,-0.4491,-0.4491,-0.4491,-0.4491,-0.4487,-0.4491,-0.4487,-0.4402,-0.4341,-0.4257,-0.419,-0.4105,-0.4099,-0.4124,-0.4192,-0.4099,-0.4035,-0.3978,-0.391,-0.3778,-0.3658,-0.3607,-0.361,-0.3667,-0.3965,-0.4198,0.8446,0.8306,0.8106,0.7988,0.7988,0.7988,0.7988,0.7988,0.7988,0.7982,0.7968,0.7985,0.7985,0.7961,0.7865,0.7756,0.7639,0.7485,0.6847,0.5777,0.573,0.5018,0.3692,0.258,0.1952,0.1763,0.1744,0.2227,0.3235,0.3154,0.3152,0.3037,0.2054,0.1543,0.1416,0.0667,0.0,0.0,0.0,0.0414,0.108,0.1227,0.0805,0.0,0.0,0.0,0.0,0.0,0.0,0.0,0.0,0.0,0.0,0.0,0.0,0.0,0.0,0.0,0.0,0.0,0.0,0.0,0.0,0.0,0.0,0.0,0.0,0.0,0.0,0.0,-0.0196,-0.0755,-0.1146,-0.1202,-0.173,-0.2037,-0.212,-0.1981,-0.2176,-0.2259,-0.2148,-0.2091,-0.2202,-0.2258,-0.2593,-0.304,-0.3372,-0.3622,-0.4098,-0.4349,-0.4322,-0.4294,-0.4322,-0.446,-0.446,-0.4491,-0.4487,-0.4443,-0.4341,-0.4267,-0.4311,-0.4365,-0.4365,-0.4351,-0.4284,-0.42,-0.4153,-0.4008,-0.3816,-0.3709,-0.3651,-0.3638,-0.3655,-0.3614,-0.3792,0.8489,0.8258,0.8102,0.7988,0.7988,0.7988,0.7988,0.7988,0.7988,0.7988,0.7988,0.7988,0.7988,0.7988,0.7934,0.7907,0.795,0.7853,0.7582,0.711,0.7101,0.6353,0.5118,0.4619,0.3945,0.3262,0.3138,0.3258,0.3523,0.3523,0.347,0.3463,0.3028,0.2749,0.2588,0.2222,0.1691,0.1092,0.1019,0.113,0.1306,0.1299,0.1397,0.1701,0.1131,0.0566,0.0,0.0,0.0,0.0,0.0,0.0,0.0,0.0,0.0,0.0,0.0,0.0,0.0,0.0,0.0,0.0,0.0,0.0,0.0,0.0,0.0,0.0,0.0,0.0,0.0,-0.0252,0.0,0.0,0.0,0.0,-0.0783,-0.081,-0.0978,-0.1368,-0.1507,-0.1341,-0.109,-0.1202,-0.1592,-0.1896,-0.2343,-0.276,-0.2954,-0.304,-0.3121,-0.304,-0.3037,-0.3012,-0.3037,-0.3959,-0.4487,-0.4477,-0.4443,-0.4402,-0.4423,-0.4423,-0.4447,-0.444,-0.4379,-0.4294,-0.422,-0.4092,-0.3904,-0.3849,-0.3812,-0.374,-0.3717,-0.3682,-0.372,0.8567,0.8336,0.8177,0.8035,0.7992,0.7988,0.7988,0.7988,0.7988,0.7988,0.7988,0.7988,0.7988,0.7988,0.7988,0.7988,0.7988,0.7985,0.7934,0.7892,0.7837,0.7368,0.6537,0.6061,0.5413,0.4672,0.4449,0.449,0.4777,0.4706,0.4685,0.4688,0.4234,0.392,0.3777,0.3402,0.2785,0.2207,0.2035,0.2055,0.2187,0.2193,0.2454,0.292,0.2498,0.1599,0.0495,0.0436,0.0251,0.0,0.0,0.0,0.0,0.0,0.0,0.0,0.0,0.0,0.0,0.0,0.0,0.0,0.0,0.0,0.0,0.0,0.0,0.0,0.0,0.0,0.0,0.0,0.0,0.0,0.0,0.0,0.0,0.0,0.0,-0.0643,-0.0755,-0.0504,0.0,-0.0476,-0.0839,-0.1034,-0.1563,-0.187,-0.212,-0.2204,-0.2204,-0.2204,-0.2287,-0.2343,-0.2426,-0.3095,-0.3735,-0.384,-0.4257,-0.4346,-0.4322,-0.4349,-0.4405,-0.4432,-0.4433,-0.4375,-0.426,-0.4142,-0.4068,-0.4014,-0.3944,-0.3853,-0.3799,-0.3714,-0.3724,0.8621,0.8469,0.8326,0.818,0.8019,0.7995,0.7988,0.7988,0.7988,0.7988,0.7988,0.7988,0.7988,0.7988,0.7988,0.7988,0.7988,0.7988,0.7982,0.7965,0.7971,0.7901,0.7595,0.6651,0.6135,0.5821,0.5689,0.6227,0.7002,0.6741,0.6612,0.656,0.5619,0.5078,0.4906,0.4103,0.3393,0.3154,0.3031,0.3324,0.4067,0.3874,0.3882,0.3997,0.3931,0.3128,0.1489,0.1334,0.0935,0.0194,0.0,0.0,0.0,0.0,0.0,0.0,0.0,0.0,0.0,0.0,0.0,0.0,0.0,0.0,0.0,0.0,0.0,0.0,0.0,0.0,0.0,0.0,0.0,0.0,0.0,0.0,0.0,0.0,0.0,0.0,0.0,0.0,0.0,0.0,0.0,-0.0811,-0.1034,-0.1284,-0.1703,-0.1814,-0.2037,-0.2063,-0.1814,-0.1647,-0.1898,-0.2232,-0.2674,-0.309,-0.3705,-0.4042,-0.3876,-0.3846,-0.3956,-0.4042,-0.4432,-0.4382,-0.4362,-0.423,-0.4186,-0.4151,-0.4063,-0.3978,-0.388,-0.3792,-0.3693,0.8682,0.8611,0.8374,0.8245,0.8184,0.8085,0.7988,0.7988,0.7988,0.7988,0.7988,0.7988,0.7988,0.7988,0.7988,0.7988,0.7988,0.7988,0.7988,0.7988,0.7988,0.7965,0.7836,0.7568,0.7291,0.718,0.712,0.7185,0.7341,0.7272,0.7187,0.6937,0.6579,0.6301,0.6191,0.5736,0.5193,0.4401,0.4212,0.4203,0.4246,0.4297,0.4553,0.4919,0.5048,0.4467,0.3238,0.2601,0.1852,0.0961,0.0894,0.0627,0.0,0.0,0.0,0.0,0.0,0.0,0.0,0.0,0.0,0.0,0.0,0.0,0.0,0.0,0.0,0.0,0.0,0.0,0.0,0.0,0.0,0.0,0.0,0.0,0.0,0.0,0.0,0.0,0.0,0.0,0.0,0.0,0.0,0.0,0.0,0.0,0.0,0.0,-0.0699,-0.0699,-0.0699,0.0,-0.1062,-0.1285,-0.1647,-0.2147,-0.2788,-0.3372,-0.3317,-0.3289,-0.3428,-0.3677,-0.407,-0.4333,-0.4317,-0.4362,-0.4317,-0.4294,-0.4239,-0.4124,-0.3982,-0.3873,-0.3778,0.876,0.8686,0.8448,0.8368,0.8306,0.8106,0.7988,0.7988,0.7988,0.7988,0.7988,0.7988,0.7988,0.7988,0.7988,0.7988,0.7988,0.7988,0.7988,0.7988,0.7988,0.7988,0.7988,0.7988,0.7948,0.7853,0.7838,0.7719,0.7539,0.7467,0.7322,0.7217,0.7034,0.693,0.6926,0.6746,0.6222,0.5553,0.5369,0.5167,0.4937,0.4949,0.5174,0.549,0.5586,0.5274,0.4597,0.4007,0.3163,0.2138,0.1904,0.1324,0.0202,0.0,0.0336,0.0,0.0,0.0,0.0,0.0,0.0,0.0,0.0,0.0,0.0,0.0,0.0,0.0,0.0,0.0,0.0,0.0,0.0,0.0,0.0,0.0,0.0,0.0,0.0,0.0,0.0,0.0,0.0,0.0,0.0,0.0,0.0,0.0,0.0,0.0,0.0,0.0,0.0,0.0,0.0,-0.0336,-0.0671,-0.1174,-0.173,-0.2287,-0.2565,-0.2565,-0.2649,-0.301,-0.3372,-0.3763,-0.3841,-0.4296,-0.444,-0.4406,-0.4236,-0.4273,-0.4134,-0.3985,-0.3873,0.8859,0.8706,0.8557,0.8428,0.8299,0.814,0.8019,0.8008,0.7992,0.7988,0.7988,0.7988,0.7988,0.7988,0.7988,0.7988,0.7988,0.7988,0.7988,0.7988,0.7988,0.7988,0.7988,0.7988,0.7978,0.7951,0.7899,0.7818,0.775,0.755,0.739,0.7415,0.7251,0.7058,0.701,0.6953,0.6741,0.6414,0.6291,0.614,0.5945,0.5865,0.5801,0.5806,0.5732,0.5632,0.5454,0.5276,0.456,0.3199,0.286,0.2044,0.0747,0.0975,0.1046,0.0,0.0,0.0,0.0,0.0,0.0,0.0,0.0,0.0,0.0,0.0,0.0,0.0,0.0,0.0,0.0,0.0,0.0,0.0,0.0,0.0,0.0,0.0,0.0,0.0,0.0,0.0,0.0,0.0,0.0,0.0,0.0,0.0,0.0,0.0,0.0,0.0,0.0,0.0,0.0,0.0,0.0,-0.0532,0.0,0.0,0.0,-0.1814,-0.1925,-0.2287,-0.2704,-0.3093,-0.3372,-0.3707,-0.3901,-0.3801,-0.3857,-0.4182,-0.3999,-0.3615,-0.3559,0.9011,0.8811,0.8713,0.8628,0.8557,0.8323,0.8208,0.8191,0.8085,0.7988,0.7988,0.7988,0.7988,0.7988,0.7988,0.7988,0.7988,0.7988,0.7988,0.7988,0.7988,0.7988,0.7988,0.7988,0.7988,0.7978,0.7938,0.7923,0.7814,0.7719,0.7631,0.7543,0.7485,0.7394,0.7268,0.7136,0.695,0.6814,0.6658,0.6505,0.6369,0.6308,0.6183,0.5976,0.5915,0.5873,0.5769,0.582,0.5244,0.3988,0.3309,0.2841,0.2261,0.2349,0.2258,0.1955,0.1878,0.1743,0.1341,0.1099,0.1291,0.1786,0.082,0.0,0.0,0.0,0.0,0.0,0.0,0.0,0.0,0.0,0.0,0.0,0.0,0.0,0.0,0.0,0.0,0.0,0.0,0.0,0.0,0.0,0.0,0.0,0.0,0.0,0.0,0.0,0.0,0.0,0.0,0.0,0.0,0.0,0.0,0.0,0.0,0.0,0.0,-0.1006,-0.1202,-0.1481,-0.2037,-0.2482,-0.251,-0.2676,-0.2815,-0.3121,-0.3028,-0.3112,-0.2806,-0.2455,-0.273,0.9066,0.8868,0.8774,0.8713,0.8672,0.8446,0.8323,0.8241,0.8109,0.7988,0.7988,0.7988,0.7988,0.7988,0.7988,0.7988,0.7988,0.7988,0.7988,0.7988,0.7988,0.7988,0.7988,0.7988,0.7988,0.7988,0.7988,0.7944,0.7909,0.7848,0.7767,0.7689,0.7628,0.7522,0.7363,0.7285,0.7129,0.6906,0.6834,0.6722,0.6583,0.6502,0.6396,0.622,0.6135,0.6064,0.5911,0.5973,0.5619,0.4929,0.454,0.4303,0.4281,0.3721,0.3259,0.2861,0.273,0.2511,0.2243,0.1976,0.2142,0.2442,0.161,0.1041,0.0,0.0529,0.0491,0.0,0.0,0.0,0.0,0.0,0.0,0.0,0.0,0.0,0.0,0.0,0.0,0.0,0.0,0.0,0.0,0.0,0.0,0.0,0.0,0.0,0.0,0.0,0.0,0.0,0.0,0.0,0.0,0.0,0.0,0.0,0.0,0.0,0.0,0.0,0.0,0.0,0.0,-0.173,-0.1758,-0.1925,-0.2343,-0.2482,-0.2232,-0.2111,-0.199,-0.1714,-0.1968,0.9083,0.8868,0.8791,0.8733,0.8699,0.8445,0.835,0.8296,0.8153,0.8025,0.8022,0.8002,0.7988,0.7988,0.7988,0.7988,0.7988,0.7988,0.7988,0.7988,0.7988,0.7988,0.7988,0.7988,0.7988,0.7988,0.7988,0.7985,0.7941,0.7896,0.7848,0.7818,0.7719,0.7563,0.7455,0.7443,0.7234,0.7017,0.692,0.6892,0.6756,0.662,0.6545,0.6464,0.633,0.6173,0.6054,0.6013,0.5912,0.5823,0.5929,0.5893,0.5959,0.4937,0.4162,0.353,0.3404,0.326,0.303,0.3038,0.2954,0.3084,0.2878,0.2444,0.1741,0.1402,0.0895,0.0359,0.0065,0.0,0.0,0.0,0.0,0.0,0.0,0.0,0.0,0.0,0.0,0.0,0.0,0.0,0.0,0.0,0.0,0.0,0.0,0.0,0.0,0.0,0.0,0.0,0.0,0.0,0.0,0.0,0.0,0.0,0.0,0.0,0.0,0.0,0.0,0.0,0.0,-0.0978,-0.1006,-0.1313,0.0,-0.1703,-0.1397,-0.1619,-0.1806,-0.1366,-0.1331,0.9178,0.8878,0.8906,0.8834,0.8804,0.8696,0.8611,0.8584,0.8326,0.8208,0.8191,0.8092,0.7992,0.7988,0.7988,0.7988,0.7988,0.7988,0.7988,0.7988,0.7988,0.7988,0.7988,0.7988,0.7988,0.7988,0.7988,0.7988,0.7971,0.7955,0.7987,0.7921,0.7867,0.7811,0.7584,0.7526,0.74,0.7105,0.7048,0.7024,0.6983,0.6776,0.6641,0.6607,0.6436,0.6211,0.6081,0.616,0.6153,0.6064,0.6129,0.6173,0.6023,0.5764,0.5349,0.5078,0.5,0.5008,0.4832,0.4277,0.4144,0.4476,0.3587,0.2813,0.305,0.1976,0.1371,0.0898,0.0,0.0,0.0,0.0,0.0,0.0,0.0,0.0,0.0,0.0,0.0,0.0,0.0,0.0,0.0,0.0,0.0,0.0,0.0,0.0,0.0,0.0,0.0,0.0,0.0,0.0,0.0,0.0,0.0,0.0,0.0,0.0,0.0,0.0,0.0,0.0,0.0,0.0,0.0,0.0,0.0,0.0,0.0,0.0,0.0,0.0,-0.0741,0.9211,0.8888,0.8937,0.8937,0.8858,0.8777,0.8713,0.8655,0.8397,0.8323,0.8238,0.8106,0.7992,0.7988,0.7988,0.7988,0.7988,0.7988,0.7988,0.7988,0.7988,0.7988,0.7988,0.7988,0.7988,0.7988,0.7988,0.7988,0.7988,0.7988,0.7982,0.7988,0.7988,0.786,0.7716,0.7638,0.7475,0.7278,0.7129,0.7095,0.7055,0.6886,0.6705,0.6614,0.6477,0.6313,0.6177,0.6231,0.6235,0.6194,0.6235,0.6265,0.6139,0.6071,0.5986,0.5888,0.5827,0.5779,0.5486,0.5234,0.503,0.544,0.4459,0.4056,0.3785,0.2947,0.241,0.1976,0.1575,0.0,0.124,0.0,0.0656,0.0498,0.023,0.0,0.0,0.0,0.0,0.0,0.0,0.0,0.0,0.0,0.0,0.0,0.0,0.0,0.0,0.0,0.0,0.0,0.0,0.0,0.0,0.0,0.0,0.0,0.0,0.0,0.0,0.0,0.0,0.0,0.0,0.0,0.0,0.0,0.0,0.0,0.0,0.0,0.0,0.0,0.0,0.977,0.9265,0.921,0.9103,0.892,0.875,0.8737,0.8672,0.8448,0.8336,0.8252,0.8126,0.8032,0.7995,0.7988,0.7988,0.7988,0.7988,0.7988,0.7988,0.7988,0.7988,0.7988,0.7988,0.7988,0.7988,0.7988,0.7988,0.7988,0.7988,0.7988,0.7988,0.7988,0.7897,0.7811,0.7699,0.7553,0.7377,0.7255,0.7122,0.7078,0.6943,0.6787,0.6593,0.6566,0.6477,0.6358,0.634,0.6323,0.6303,0.63,0.63,0.6265,0.6152,0.6027,0.6023,0.5966,0.5895,0.5837,0.5674,0.5601,0.5665,0.5454,0.5054,0.4481,0.3979,0.3462,0.3062,0.2659,0.2444,0.2608,0.201,0.1578,0.1427,0.0821,0.0493,0.0399,0.0395,0.0,0.0,0.0,0.0,0.0,0.0,0.0,0.0846,0.0451,0.0367,0.0761,0.0,0.0,0.0,0.0,0.0,0.0,0.0,0.0,0.0,0.0,0.0,0.0,0.0,0.0,0.0,0.0,0.0,0.0,0.0,0.0,0.0,0.0,0.0,0.0,0.0,0.0,1.2226,1.0726,1.0726,1.0076,0.8989,0.8854,0.8821,0.872,0.8635,0.8492,0.8282,0.8238,0.814,0.8025,0.7988,0.7988,0.7988,0.7988,0.7988,0.7988,0.7988,0.7988,0.7988,0.7988,0.7988,0.7988,0.7988,0.7988,0.7988,0.7988,0.7988,0.7988,0.7988,0.7911,0.7813,0.777,0.7651,0.7482,0.737,0.7282,0.7088,0.697,0.6825,0.6681,0.6664,0.6613,0.6504,0.6467,0.6426,0.6317,0.63,0.63,0.6293,0.6262,0.6207,0.6193,0.6166,0.6088,0.6,0.5922,0.5881,0.5776,0.5633,0.562,0.5237,0.4654,0.4199,0.3861,0.329,0.2817,0.2678,0.2624,0.2495,0.2403,0.2235,0.2029,0.207,0.206,0.184,0.141,0.1234,0.1091,0.0974,0.0924,0.118,0.1462,0.1311,0.1485,0.1979,0.1975,0.0,0.0,0.0,0.0,0.0,0.0,0.0,0.0,0.0,0.0,0.0,0.0,0.0,0.0,0.0,0.0,0.0,0.0,0.0,0.0,0.0,0.0,0.0,0.0,0.0,1.3125,1.2195,1.1433,1.0731,0.997,0.9213,0.8852,0.8713,0.8625,0.8516,0.8367,0.8228,0.8163,0.8133,0.8015,0.7992,0.7988,0.7988,0.7988,0.7988,0.7988,0.7988,0.7988,0.7988,0.7988,0.7988,0.7988,0.7988,0.7988,0.7988,0.7988,0.7988,0.7988,0.7948,0.7874,0.7841,0.7695,0.7553,0.7519,0.7373,0.7122,0.7018,0.692,0.6861,0.68,0.6698,0.6555,0.6515,0.6443,0.633,0.63,0.63,0.63,0.63,0.63,0.63,0.63,0.6276,0.6139,0.6088,0.5946,0.5882,0.5783,0.5735,0.5681,0.5288,0.4891,0.476,0.4674,0.418,0.4192,0.3651,0.3413,0.3278,0.3045,0.2778,0.2811,0.3145,0.2985,0.262,0.2352,0.2155,0.2001,0.197,0.1983,0.2029,0.2078,0.2525,0.3094,0.2922,0.2686,0.2603,0.262,0.2565,0.2591,0.2559,0.2376,0.1898,0.1619,0.1396,0.0,0.0,0.0,0.0,0.0,0.0,0.0,0.0,0.0,0.0,0.0,0.0,0.0,0.0,0.0,1.4129,1.3637,1.241,1.1693,1.1259,1.0144,0.9608,0.9352,0.9099,0.8929,0.8813,0.8613,0.8614,0.865,0.8517,0.8333,0.8038,0.7988,0.7988,0.7988,0.7988,0.7988,0.7988,0.7988,0.7988,0.7988,0.7988,0.7988,0.7988,0.7988,0.7988,0.7988,0.7988,0.7988,0.7955,0.7877,0.7789,0.7735,0.7689,0.7489,0.7261,0.7105,0.7048,0.6943,0.693,0.6844,0.6634,0.6556,0.6504,0.6392,0.6323,0.63,0.63,0.63,0.63,0.63,0.63,0.63,0.6265,0.6166,0.6095,0.6067,0.5928,0.5881,0.5884,0.5798,0.5675,0.5667,0.5557,0.5428,0.5116,0.4733,0.4378,0.4181,0.3747,0.3311,0.358,0.3882,0.4251,0.3901,0.3491,0.3187,0.3016,0.2523,0.2441,0.2898,0.2973,0.3345,0.3801,0.3663,0.3448,0.3279,0.3183,0.3101,0.3109,0.3215,0.296,0.2565,0.2399,0.2232,0.212,0.0,0.2037,0.1983,0.0,0.0,0.0,0.0168,0.0,0.0,0.0,0.0,0.0,0.0,0.0,1.6601,1.5127,1.4697,1.382,1.2634,1.2064,1.1854,1.1544,1.0595,1.0137,1.0039,1.0007,0.9987,0.9974,0.9846,0.9133,0.8492,0.8204,0.8251,0.829,0.8105,0.8015,0.8002,0.7988,0.8022,0.8025,0.8008,0.7988,0.7988,0.7988,0.7988,0.7988,0.7988,0.7988,0.7982,0.7948,0.7961,0.7924,0.7851,0.7638,0.7387,0.7186,0.7105,0.7082,0.7048,0.697,0.6831,0.6725,0.6603,0.6497,0.6371,0.6313,0.63,0.63,0.63,0.63,0.63,0.6296,0.6293,0.6262,0.6242,0.6179,0.6081,0.6095,0.6095,0.6051,0.5942,0.5796,0.5779,0.5711,0.5631,0.5452,0.5321,0.5182,0.4867,0.4791,0.4924,0.4486,0.4855,0.4921,0.4426,0.4178,0.3995,0.3361,0.2929,0.3457,0.3922,0.4273,0.4445,0.4295,0.4249,0.4063,0.3933,0.384,0.3753,0.3826,0.3657,0.3253,0.3179,0.3121,0.3016,0.2852,0.249,0.2322,0.1956,0.1703,0.1396,0.1062,0.07,0.0,0.0,0.0,0.0,0.0,0.0,1.7324,1.6527,1.5461,1.4665,1.3953,1.2905,1.2323,1.2143,1.1834,1.1625,1.1522,1.1465,1.1422,1.1385,1.1368,1.1051,1.0399,0.9696,0.9245,0.8916,0.8607,0.8211,0.8197,0.8241,0.8262,0.8153,0.8153,0.8113,0.8075,0.8038,0.7988,0.7988,0.7988,0.7988,0.7988,0.7988,0.7985,0.7934,0.7865,0.7678,0.7587,0.7407,0.7268,0.7265,0.719,0.7031,0.691,0.6836,0.6756,0.6624,0.6529,0.6555,0.6525,0.648,0.6419,0.6416,0.634,0.6303,0.6296,0.6303,0.63,0.6293,0.62,0.6231,0.6272,0.6235,0.6091,0.5945,0.5932,0.5857,0.5718,0.5672,0.5603,0.5528,0.5429,0.5405,0.5395,0.5395,0.5326,0.5362,0.5355,0.4993,0.4721,0.4424,0.4056,0.432,0.4643,0.4812,0.4939,0.4877,0.4864,0.4853,0.4737,0.4653,0.4522,0.4477,0.4402,0.4138,0.4081,0.4018,0.3915,0.3701,0.3347,0.3365,0.343,0.3065,0.2454,0.1953,0.1535,0.1396,0.0,0.0978,0.0699,0.0,0.0,1.7589,1.7443,1.6093,1.5567,1.5421,1.3976,1.3384,1.3248,1.2962,1.2871,1.2796,1.2672,1.2673,1.2764,1.277,1.2511,1.2083,1.1303,1.0803,1.0207,0.968,0.9133,0.8996,0.8893,0.8634,0.8265,0.8765,0.8772,0.8759,0.8825,0.892,0.8088,0.7988,0.7988,0.7988,0.7988,0.7988,0.7975,0.7813,0.7969,0.8152,0.7688,0.7714,0.7646,0.7475,0.7085,0.6964,0.694,0.6909,0.6787,0.6695,0.6661,0.6647,0.658,0.6536,0.6636,0.6766,0.7036,0.6842,0.6684,0.6352,0.63,0.63,0.6282,0.6289,0.6296,0.6269,0.6095,0.6088,0.5986,0.5833,0.5698,0.5638,0.5549,0.545,0.5419,0.5395,0.5395,0.5395,0.5395,0.5395,0.5395,0.5233,0.5312,0.5289,0.5326,0.5395,0.5395,0.5341,0.5233,0.5213,0.5176,0.5145,0.505,0.4924,0.4904,0.4901,0.4863,0.4799,0.4669,0.4432,0.4391,0.4226,0.4401,0.4508,0.4153,0.34,0.2899,0.2371,0.2009,0.1703,0.1703,0.1563,0.1425,0.0,1.7589,1.7555,1.7164,1.6993,1.6896,1.6335,1.595,1.555,1.4364,1.3785,1.3646,1.3524,1.3715,1.3871,1.3987,1.3495,1.2168,1.2193,1.2098,1.1894,1.158,1.0762,1.0315,0.9838,0.9468,0.8739,0.941,0.9929,1.0105,1.0632,0.9801,0.8382,0.8478,0.8184,0.7988,0.7988,0.7988,0.7965,0.7847,0.8353,0.8607,0.8415,0.8101,0.8659,0.808,0.7285,0.7143,0.7261,0.7125,0.6985,0.6831,0.6975,0.7063,0.7002,0.7015,0.7117,0.7837,0.8035,0.7841,0.7111,0.6433,0.63,0.63,0.63,0.63,0.63,0.6282,0.6224,0.6238,0.6098,0.5925,0.5772,0.5694,0.56,0.5515,0.5446,0.5419,0.5395,0.5395,0.5395,0.5395,0.5395,0.5395,0.5395,0.5395,0.5395,0.5395,0.5395,0.5395,0.5344,0.5354,0.5347,0.5354,0.5283,0.5106,0.5052,0.5033,0.4999,0.4952,0.485,0.4703,0.4714,0.4694,0.4597,0.4528,0.4453,0.4349,0.3705,0.3065,0.2454,0.2204,0.2426,0.2259,0.1981,0.1647,1.7589,1.7575,1.7514,1.7367,1.7172,1.6714,1.644,1.6257,1.5836,1.5466,1.5165,1.5264,1.5293,1.5414,1.5628,1.5463,1.4775,1.4086,1.3712,1.31,1.2537,1.184,1.1383,1.132,1.1194,1.0671,1.1087,1.1264,1.1277,1.195,1.1507,1.0435,0.9702,0.8676,0.8333,0.8233,0.8184,0.8127,0.8037,0.8336,0.8485,0.9052,0.9086,0.9405,1.0177,0.935,0.8807,0.8526,0.7968,0.7476,0.7208,0.749,0.7897,0.7923,0.7926,0.8028,0.8954,0.9142,0.8638,0.782,0.718,0.6384,0.63,0.63,0.6338,0.63,0.63,0.6296,0.63,0.6197,0.6163,0.5993,0.5867,0.5691,0.56,0.5521,0.546,0.5436,0.5399,0.5402,0.5399,0.5395,0.5395,0.5395,0.5395,0.5395,0.5395,0.5395,0.5395,0.5395,0.5395,0.5395,0.5395,0.5395,0.5254,0.5196,0.5148,0.5125,0.5098,0.5003,0.4904,0.4853,0.4806,0.466,0.4552,0.4494,0.439,0.4211,0.3846,0.3372,0.3289,0.3456,0.3121,0.2621,0.2259,1.7589,1.7589,1.7589,1.7521,1.73,1.6961,1.6717,1.6453,1.65,1.6413,1.6152,1.6213,1.6206,1.6246,1.6484,1.6464,1.6058,1.555,1.5134,1.4532,1.3906,1.3106,1.2869,1.2647,1.2412,1.2391,1.2602,1.2595,1.2533,1.2872,1.277,1.2328,1.1599,1.0578,0.9604,0.9164,0.9164,0.9167,0.9167,0.9501,0.9911,1.0136,1.0787,1.0754,1.1032,1.0648,1.0038,0.9758,0.9363,0.8898,0.8662,0.88,0.9113,0.9332,0.9255,0.9611,1.0043,1.0311,0.9741,0.8841,0.8133,0.725,0.6887,0.669,0.6412,0.63,0.63,0.63,0.63,0.6286,0.6259,0.6057,0.5932,0.5759,0.5711,0.5633,0.5556,0.5501,0.5446,0.5409,0.5405,0.5416,0.5481,0.5484,0.5426,0.5416,0.5395,0.5395,0.5395,0.5395,0.5395,0.5395,0.5395,0.5395,0.5385,0.5324,0.5243,0.5286,0.522,0.5162,0.5052,0.4988,0.4884,0.4704,0.4614,0.4549,0.4456,0.4356,0.438,0.4377,0.4236,0.4015,0.3956,0.3456,0.3037,1.7589,1.7589,1.7589,1.7575,1.7508,1.732,1.6967,1.6627,1.638,1.6132,1.5905,1.5892,1.5892,1.5999,1.6426,1.6413,1.6213,1.6305,1.6193,1.5622,1.5226,1.4767,1.4292,1.385,1.3588,1.2613,1.3191,1.3996,1.3878,1.4677,1.461,1.4124,1.3494,1.2764,1.1848,1.175,1.175,1.1707,1.1556,1.2037,1.2378,1.1939,1.2347,1.2493,1.2099,1.1719,1.1465,1.1147,1.0786,1.045,1.0417,1.0504,1.0584,1.0641,1.059,1.0636,1.1625,1.213,1.207,1.0581,0.9429,0.8291,0.778,0.7289,0.6616,0.6338,0.63,0.63,0.63,0.6196,0.6115,0.6003,0.5962,0.5891,0.5844,0.5779,0.5671,0.5651,0.5614,0.5521,0.5463,0.5453,0.5515,0.5552,0.5498,0.545,0.5409,0.5395,0.5399,0.5395,0.5395,0.5395,0.5395,0.5395,0.5395,0.5395,0.5378,0.5392,0.5365,0.5264,0.5164,0.5083,0.4958,0.4762,0.4685,0.4624,0.4556,0.4494,0.4491,0.4491,0.4491,0.4377,0.4377,0.4263,0.3763,1.7589,1.7589,1.7589,1.7589,1.7569,1.7534,1.7168,1.6667,1.6219,1.5925,1.5845,1.5825,1.5825,1.5965,1.6199,1.6319,1.6213,1.6219,1.6246,1.6366,1.6019,1.5813,1.5361,1.5067,1.4806,1.4767,1.5226,1.522,1.5153,1.5802,1.5747,1.53,1.4806,1.3884,1.2431,1.1896,1.1896,1.1896,1.1896,1.2091,1.2608,1.2966,1.3398,1.388,1.3643,1.349,1.308,1.2703,1.235,1.1856,1.175,1.1774,1.1926,1.2051,1.1935,1.2055,1.282,1.3464,1.3387,1.2486,1.1267,0.985,0.8636,0.8069,0.7358,0.6609,0.6412,0.6306,0.6355,0.6272,0.62,0.6186,0.6129,0.604,0.5983,0.5928,0.5893,0.588,0.5839,0.5699,0.5607,0.559,0.5606,0.5606,0.5566,0.5501,0.5463,0.5426,0.5419,0.5409,0.5402,0.5395,0.5395,0.5395,0.5399,0.5429,0.5412,0.5392,0.5392,0.5368,0.5267,0.5167,0.5073,0.4952,0.4806,0.4702,0.4607,0.4528,0.4498,0.4491,0.4491,0.4491,0.446,0.4432,0.4322,1.7589,1.7589,1.7589,1.7589,1.7589,1.7589,1.7248,1.6667,1.6051,1.5825,1.5825,1.5825,1.5825,1.5945,1.6219,1.6226,1.6172,1.6366,1.6226,1.64,1.6032,1.5856,1.5911,1.5945,1.5601,1.5892,1.5972,1.5937,1.5696,1.5964,1.5931,1.5763,1.5778,1.4908,1.374,1.3499,1.3445,1.3542,1.3644,1.3547,1.383,1.4058,1.4543,1.4835,1.5026,1.5311,1.4744,1.4306,1.3972,1.3152,1.2951,1.3024,1.3379,1.3423,1.3367,1.3578,1.3698,1.4173,1.3957,1.3816,1.2578,1.1392,1.0046,0.9202,0.8583,0.7782,0.725,0.6991,0.6688,0.6457,0.6401,0.6401,0.6276,0.6146,0.6118,0.6102,0.5989,0.5969,0.5988,0.5851,0.5906,0.5863,0.586,0.5672,0.5627,0.5573,0.5518,0.5531,0.5521,0.5498,0.5504,0.5511,0.5515,0.5539,0.5528,0.5504,0.547,0.5405,0.5468,0.5545,0.5378,0.5277,0.5209,0.5128,0.4945,0.4772,0.4648,0.4563,0.4522,0.4498,0.4491,0.4491,0.4491,0.4491,0.4491,1.7589,1.7589,1.7589,1.7589,1.7582,1.7522,1.7188,1.6667,1.6106,1.5852,1.5825,1.5852,1.5865,1.5952,1.6406,1.6366,1.6106,1.646,1.6406,1.6132,1.6019,1.5979,1.5945,1.5899,1.5838,1.5832,1.5899,1.5985,1.5804,1.5892,1.5872,1.5784,1.5825,1.5439,1.5248,1.5146,1.5146,1.5003,1.5003,1.4949,1.5092,1.5391,1.5486,1.5534,1.5683,1.573,1.5466,1.5427,1.5356,1.5145,1.5173,1.508,1.4945,1.4659,1.479,1.4756,1.4552,1.4369,1.4128,1.4028,1.388,1.2908,1.2245,1.1318,1.0185,0.9105,0.8515,0.7936,0.7541,0.6982,0.6574,0.6475,0.633,0.63,0.6282,0.6211,0.6081,0.6061,0.6076,0.6132,0.6301,0.6382,0.6548,0.6395,0.6414,0.6137,0.6178,0.6161,0.6084,0.5706,0.5716,0.5688,0.5691,0.5688,0.5661,0.5638,0.5559,0.5504,0.5755,0.5814,0.5612,0.5573,0.5665,0.5559,0.5126,0.4867,0.4706,0.459,0.4528,0.4508,0.4494,0.4491,0.4491,0.4491,0.4491,1.7589,1.7589,1.7589,1.7589,1.7522,1.7141,1.6854,1.6653,1.6299,1.6046,1.5791,1.6052,1.5992,1.5838,1.6226,1.6246,1.6333,1.65,1.6734,1.6567,1.6219,1.6306,1.6226,1.6025,1.5892,1.5899,1.5965,1.5979,1.5858,1.5825,1.5825,1.5825,1.5825,1.5825,1.5825,1.5825,1.5838,1.5845,1.5852,1.5825,1.5825,1.5825,1.5825,1.5825,1.5825,1.5825,1.5825,1.5825,1.5738,1.5712,1.5691,1.5558,1.5284,1.5164,1.5137,1.4656,1.4522,1.4396,1.4148,1.4088,1.4041,1.3961,1.3489,1.2638,1.1473,1.0471,0.9761,0.9252,0.8563,0.8002,0.7605,0.7402,0.7151,0.6991,0.6954,0.6865,0.6737,0.673,0.6779,0.7102,0.7259,0.75,0.7594,0.7668,0.7624,0.7162,0.6905,0.6925,0.6736,0.6415,0.6165,0.6172,0.6295,0.6421,0.5975,0.581,0.5685,0.5641,0.5958,0.6287,0.6423,0.6408,0.6306,0.6069,0.5692,0.5177,0.4726,0.4655,0.4638,0.4528,0.4498,0.4494,0.4491,0.4494,0.4494,1.7415,1.7447,1.7281,1.7301,1.7321,1.6907,1.676,1.6774,1.6333,1.5985,1.5865,1.6005,1.5999,1.5899,1.6126,1.6261,1.6112,1.648,1.6647,1.6346,1.6462,1.6286,1.6179,1.6052,1.5879,1.5912,1.5959,1.5952,1.5858,1.5825,1.5825,1.5825,1.5825,1.5825,1.5825,1.5838,1.5919,1.5932,1.5919,1.5852,1.5832,1.5832,1.5825,1.5825,1.5825,1.5825,1.5825,1.5825,1.5825,1.5825,1.5825,1.5758,1.5571,1.5545,1.5291,1.489,1.4863,1.4649,1.4389,1.4282,1.4202,1.4122,1.4095,1.3603,1.2765,1.1781,1.1277,1.0778,0.9874,0.9128,0.8796,0.8509,0.8178,0.7859,0.7768,0.7673,0.7628,0.7595,0.7858,0.8212,0.8495,0.8803,0.8958,0.9006,0.8872,0.8394,0.8139,0.813,0.7807,0.736,0.71,0.6954,0.7134,0.7278,0.6734,0.6342,0.6425,0.6456,0.644,0.6768,0.7101,0.7228,0.7163,0.6756,0.6271,0.5835,0.5425,0.493,0.4748,0.4747,0.4773,0.4703,0.4657,0.4522,0.4511,1.7206,1.7186,1.6827,1.6867,1.7072,1.676,1.6774,1.6998,1.6172,1.5804,1.5831,1.5871,1.5939,1.5919,1.6132,1.6146,1.6192,1.6473,1.6526,1.5891,1.6206,1.6219,1.6059,1.5798,1.5832,1.5825,1.5845,1.5892,1.5852,1.5825,1.5825,1.5825,1.5825,1.5825,1.5825,1.5825,1.5905,1.6005,1.5939,1.5852,1.5879,1.5865,1.5825,1.5825,1.5825,1.5825,1.5825,1.5825,1.5825,1.5825,1.5825,1.5771,1.5751,1.5772,1.5451,1.5251,1.5184,1.4923,1.4656,1.4522,1.4402,1.4275,1.4122,1.4037,1.3499,1.2932,1.2433,1.207,1.1263,1.0637,1.0259,0.9732,0.9253,0.9079,0.8981,0.8883,0.8818,0.8946,0.9268,0.9583,0.9883,1.0153,1.0225,1.0241,1.0025,0.9553,0.9314,0.932,0.907,0.8567,0.8194,0.7963,0.7994,0.8082,0.7641,0.7335,0.7449,0.7464,0.7359,0.7547,0.807,0.8117,0.7982,0.7479,0.6981,0.6693,0.6311,0.5908,0.5626,0.5467,0.5364,0.5042,0.4876,0.4847,0.4576,1.7199,1.7172,1.6827,1.6633,1.6486,1.6406,1.6293,1.6139,1.5945,1.5972,1.6172,1.6333,1.6213,1.5905,1.6146,1.6199,1.6273,1.6526,1.6593,1.64,1.6366,1.6226,1.6099,1.5899,1.5845,1.5825,1.5825,1.5825,1.5825,1.5825,1.5825,1.5825,1.5825,1.5825,1.5825,1.5825,1.5892,1.6039,1.5925,1.5952,1.6092,1.5932,1.5825,1.5825,1.5825,1.5825,1.5825,1.5825,1.5825,1.5825,1.5825,1.5825,1.5825,1.5825,1.5651,1.5398,1.5364,1.513,1.489,1.477,1.473,1.4583,1.4469,1.4436,1.422,1.3877,1.3542,1.3176,1.2777,1.2169,1.1632,1.0992,1.0532,1.0428,1.0282,1.0229,1.0124,1.0394,1.0704,1.0962,1.1239,1.1341,1.1378,1.1279,1.1057,1.0785,1.0525,1.0396,1.039,1.0045,0.9632,0.9326,0.9039,0.892,0.844,0.8412,0.8575,0.8647,0.8613,0.8831,0.9078,0.9019,0.8852,0.8216,0.7705,0.7525,0.7391,0.7254,0.6965,0.6481,0.6202,0.5952,0.5752,0.5673,0.5098,1.6811,1.6777,1.644,1.6306,1.6279,1.6273,1.6246,1.6219,1.6219,1.6233,1.6301,1.6286,1.6077,1.5838,1.6146,1.6259,1.6346,1.6727,1.6633,1.652,1.646,1.6286,1.6112,1.5925,1.5865,1.5825,1.5825,1.5825,1.5825,1.5825,1.5825,1.5825,1.5825,1.5825,1.5825,1.5832,1.5892,1.6032,1.5858,1.6005,1.6206,1.6005,1.5838,1.5825,1.5825,1.5825,1.5825,1.5825,1.5825,1.5825,1.5825,1.5825,1.5825,1.5825,1.5758,1.5645,1.5545,1.5391,1.5117,1.5023,1.5077,1.4943,1.4776,1.473,1.4489,1.4144,1.4018,1.3691,1.3613,1.3079,1.3031,1.2571,1.2343,1.2175,1.206,1.1986,1.1751,1.1709,1.1878,1.1929,1.2125,1.215,1.22,1.2162,1.1941,1.1718,1.1465,1.1434,1.1428,1.1334,1.0948,1.0657,1.0325,0.9679,0.9034,0.9275,0.9749,0.9785,0.9775,0.9749,0.977,0.9828,0.9678,0.918,0.8784,0.8542,0.8418,0.8284,0.7799,0.7242,0.7058,0.6924,0.6718,0.6538,0.6085,1.6273,1.6179,1.5945,1.5972,1.6206,1.6259,1.6366,1.6533,1.6607,1.6453,1.6186,1.5952,1.5838,1.5925,1.6072,1.6166,1.6299,1.6493,1.6466,1.6406,1.65,1.6246,1.6039,1.5892,1.5885,1.5852,1.5825,1.5825,1.5825,1.5825,1.5825,1.5825,1.5825,1.5825,1.5825,1.5852,1.5912,1.6025,1.6019,1.6032,1.6025,1.5979,1.5872,1.5825,1.5825,1.5825,1.5825,1.5825,1.5825,1.5825,1.5825,1.5825,1.5825,1.5825,1.5825,1.5765,1.5752,1.5585,1.5371,1.5391,1.5384,1.5297,1.5169,1.4968,1.4696,1.4543,1.4422,1.4309,1.4186,1.401,1.3955,1.3909,1.3715,1.3568,1.3443,1.3385,1.3101,1.2835,1.2809,1.2834,1.2839,1.2864,1.2837,1.2837,1.2723,1.2472,1.2398,1.2412,1.2333,1.2135,1.1884,1.1733,1.1571,1.0804,1.0019,1.0157,1.0794,1.0641,1.0586,1.0508,1.0412,1.0309,1.0263,1.0295,0.9958,0.952,0.9265,0.9116,0.8574,0.8167,0.8006,0.7943,0.7903,0.7672,0.7236,1.6126,1.5905,1.5845,1.5824,1.5952,1.6166,1.6179,1.6052,1.6273,1.6186,1.5992,1.5892,1.5825,1.5825,1.5872,1.5959,1.6092,1.6286,1.6139,1.5972,1.6346,1.6152,1.5979,1.5972,1.5992,1.5912,1.5825,1.5825,1.5825,1.5825,1.5825,1.5825,1.5825,1.5825,1.5825,1.5845,1.5865,1.5972,1.6099,1.6126,1.5925,1.5879,1.5852,1.5825,1.5825,1.5825,1.5825,1.5825,1.5825,1.5825,1.5825,1.5825,1.5825,1.5825,1.5825,1.5825,1.5825,1.5772,1.5618,1.5611,1.5625,1.5625,1.5451,1.5277,1.509,1.4937,1.481,1.4669,1.4516,1.4153,1.4086,1.4046,1.3898,1.3898,1.3866,1.3826,1.366,1.3453,1.3333,1.326,1.318,1.3173,1.3113,1.3106,1.3086,1.2933,1.2893,1.2899,1.2852,1.2772,1.2703,1.2589,1.2496,1.2351,1.1744,1.1391,1.1665,1.154,1.127,1.0948,1.0692,1.0558,1.0561,1.0603,1.0588,1.025,1.0066,0.9779,0.9837,0.9505,0.918,0.9026,0.8978,0.8729,0.8229]}]]